[[{"header":{"parameterUnit":"m.s-1","parameterCategory":1,"la1":30.6,"la2":29.2853,"lo1":-89.7004,"lo2":-87.6739,"dy":0.0162,"dx":0.0183,"nx":112,"ny":82,"refTime":"2024-09-12T12:00:00:Z","depth":0,"parameterNumber":2,"parameterNumberName":"U-component_of_WINDS"},"data":[0.0,0.0,0.0,0.0,0.0,0.0,0.0,0.0,0.0,0.0,0.0,0.0,0.0,0.0,0.0,0.0,0.0,0.0,0.0,0.0,0.0,0.0,0.0,0.0,0.0,0.0,0.0,0.0,0.0,0.0,0.0,0.0,0.0,0.0,0.0,0.0,0.0,0.0,0.0,0.0,0.0,0.0,0.0,0.0,0.0,0.0,0.0,0.0,0.0,0.0,0.0,0.0,0.0,0.0,0.0,0.0,0.0,0.0,0.0,0.0,0.0,0.0,0.0,0.0,0.0,0.0,0.0,0.0,0.0,0.0,0.0,0.0,0.0,0.0,0.0,0.0,0.0,0.0,0.0,0.0,0.0,0.0,0.0,0.0,0.0,0.0,0.0,0.0,0.0,0.0,-1.7449,-1.9348,-2.1774,-2.3668,-2.4666,-2.4782,-2.3452,-2.0282,0.0,0.0,0.0,0.0,0.0,0.0,0.0,0.0,0.0,0.0,0.0,0.0,0.0,0.0,0.0,0.0,0.0,0.0,0.0,0.0,0.0,0.0,0.0,0.0,0.0,0.0,0.0,0.0,0.0,0.0,0.0,0.0,0.0,0.0,0.0,0.0,0.0,0.0,0.0,0.0,0.0,0.0,0.0,0.0,0.0,0.0,0.0,0.0,0.0,0.0,0.0,0.0,0.0,0.0,0.0,0.0,0.0,0.0,0.0,0.0,0.0,0.0,0.0,0.0,0.0,0.0,0.0,0.0,0.0,0.0,0.0,0.0,0.0,0.0,0.0,0.0,0.0,0.0,0.0,0.0,0.0,0.0,0.0,0.0,0.0,0.0,0.0,0.0,0.0,0.0,0.0,0.0,0.0,0.0,0.0,0.0,0.0,0.0,0.0,0.0,0.0,0.0,0.0,0.0,-1.7651,-2.2078,-2.3093,-2.3755,-2.4474,-2.4693,-2.3423,-2.0227,0.0,0.0,0.0,0.0,0.0,0.0,0.0,0.0,0.0,0.0,0.0,0.0,0.0,0.0,0.0,0.0,0.0,0.0,0.0,0.0,0.0,0.0,0.0,0.0,0.0,0.0,0.0,0.0,0.0,0.0,0.0,0.0,0.0,0.0,0.0,0.0,0.0,0.0,0.0,0.0,0.0,0.0,0.0,0.0,0.0,0.0,0.0,0.0,0.0,0.0,0.0,0.0,0.0,0.0,0.0,0.0,0.0,0.0,0.0,0.0,0.0,0.0,0.0,0.0,0.0,0.0,0.0,0.0,0.0,0.0,0.0,0.0,0.0,0.0,0.0,0.0,0.0,0.0,0.0,0.0,0.0,0.0,0.0,0.0,0.0,0.0,0.0,0.0,0.0,0.0,0.0,0.0,0.0,0.0,0.0,0.0,0.0,0.0,0.0,0.0,0.0,0.0,0.0,-1.7501,-1.8952,-2.2788,-2.3293,-2.3648,-2.4442,-2.4575,-2.3281,-2.0093,-1.8474,0.0,0.0,0.0,0.0,0.0,0.0,0.0,0.0,0.0,0.0,0.0,0.0,0.0,0.0,0.0,0.0,0.0,0.0,0.0,0.0,0.0,0.0,0.0,0.0,0.0,0.0,0.0,0.0,0.0,0.0,0.0,0.0,0.0,0.0,0.0,0.0,0.0,0.0,0.0,0.0,0.0,0.0,0.0,0.0,0.0,0.0,0.0,0.0,0.0,0.0,0.0,0.0,0.0,0.0,0.0,0.0,0.0,0.0,0.0,0.0,0.0,0.0,0.0,0.0,0.0,0.0,0.0,0.0,0.0,0.0,0.0,0.0,0.0,0.0,0.0,0.0,0.0,0.0,0.0,0.0,0.0,0.0,0.0,0.0,0.0,0.0,0.0,0.0,0.0,0.0,0.0,0.0,0.0,0.0,0.0,0.0,0.0,0.0,0.0,0.0,0.0,0.0,-1.9638,-2.0646,-2.2852,-2.3141,-2.349,-2.4247,-2.4055,-2.2697,-1.9943,-1.7917,0.0,0.0,0.0,0.0,0.0,0.0,0.0,0.0,0.0,0.0,0.0,0.0,0.0,0.0,0.0,0.0,0.0,0.0,0.0,0.0,0.0,0.0,0.0,0.0,0.0,0.0,0.0,0.0,0.0,0.0,0.0,0.0,0.0,0.0,0.0,0.0,0.0,0.0,0.0,0.0,0.0,0.0,0.0,0.0,0.0,0.0,0.0,0.0,0.0,0.0,0.0,0.0,0.0,0.0,0.0,0.0,0.0,0.0,0.0,0.0,0.0,0.0,0.0,0.0,0.0,0.0,0.0,0.0,0.0,0.0,0.0,0.0,0.0,0.0,0.0,0.0,0.0,0.0,0.0,0.0,0.0,0.0,0.0,0.0,0.0,0.0,0.0,0.0,0.0,0.0,0.0,0.0,0.0,0.0,0.0,0.0,0.0,0.0,0.0,0.0,0.0,0.0,-2.0158,-2.2522,-2.2703,-2.3021,-2.3346,-2.3717,-2.2739,-2.141,-1.9814,-1.679,0.0,0.0,0.0,0.0,0.0,0.0,0.0,0.0,0.0,0.0,0.0,0.0,0.0,0.0,0.0,0.0,0.0,0.0,0.0,0.0,0.0,0.0,0.0,0.0,0.0,0.0,0.0,0.0,0.0,0.0,0.0,0.0,0.0,0.0,0.0,0.0,0.0,0.0,0.0,0.0,0.0,0.0,0.0,0.0,0.0,0.0,0.0,0.0,0.0,0.0,0.0,0.0,0.0,0.0,0.0,0.0,0.0,0.0,0.0,0.0,0.0,0.0,0.0,0.0,0.0,0.0,0.0,0.0,0.0,0.0,0.0,0.0,0.0,0.0,0.0,0.0,0.0,0.0,0.0,0.0,0.0,0.0,0.0,0.0,0.0,0.0,0.0,0.0,0.0,0.0,0.0,0.0,0.0,0.0,0.0,0.0,0.0,0.0,0.0,0.0,0.0,0.0,-1.9576,-2.1447,-2.2565,-2.2822,-2.3117,-2.3649,-2.3277,-2.206,-1.9845,0.0,0.0,0.0,0.0,0.0,0.0,0.0,0.0,0.0,0.0,0.0,0.0,0.0,0.0,0.0,0.0,0.0,0.0,0.0,0.0,0.0,0.0,0.0,0.0,0.0,0.0,0.0,0.0,0.0,0.0,0.0,0.0,0.0,0.0,0.0,0.0,0.0,0.0,0.0,0.0,0.0,0.0,0.0,0.0,0.0,0.0,0.0,0.0,0.0,0.0,0.0,0.0,0.0,0.0,0.0,0.0,0.0,0.0,0.0,0.0,0.0,0.0,0.0,0.0,0.0,0.0,0.0,0.0,0.0,0.0,0.0,0.0,0.0,0.0,0.0,0.0,0.0,0.0,0.0,0.0,0.0,0.0,0.0,0.0,0.0,0.0,0.0,0.0,0.0,0.0,0.0,0.0,0.0,0.0,0.0,0.0,0.0,0.0,0.0,0.0,0.0,0.0,-1.7483,-1.9286,-2.086,-2.2221,-2.2441,-2.2805,-2.3482,-2.3223,-2.2063,-1.9832,0.0,0.0,0.0,0.0,0.0,0.0,0.0,0.0,0.0,0.0,0.0,0.0,0.0,0.0,0.0,0.0,0.0,0.0,0.0,0.0,0.0,0.0,0.0,0.0,0.0,0.0,0.0,0.0,0.0,0.0,0.0,0.0,0.0,0.0,0.0,0.0,0.0,0.0,0.0,0.0,0.0,0.0,0.0,0.0,0.0,0.0,0.0,0.0,0.0,0.0,0.0,0.0,0.0,0.0,0.0,0.0,0.0,0.0,0.0,0.0,0.0,0.0,0.0,0.0,0.0,0.0,0.0,0.0,0.0,0.0,0.0,0.0,0.0,0.0,0.0,0.0,0.0,0.0,0.0,0.0,0.0,0.0,0.0,0.0,0.0,0.0,0.0,0.0,0.0,0.0,0.0,0.0,0.0,0.0,0.0,0.0,0.0,0.0,0.0,0.0,0.0,0.0,-1.7011,-1.9438,-2.115,-2.1552,-2.1886,-2.238,-2.3117,-2.2154,-2.0994,0.0,0.0,0.0,0.0,0.0,0.0,0.0,0.0,0.0,0.0,0.0,0.0,0.0,0.0,0.0,0.0,0.0,0.0,0.0,0.0,0.0,0.0,0.0,0.0,0.0,0.0,0.0,0.0,0.0,0.0,0.0,0.0,0.0,0.0,0.0,0.0,0.0,0.0,0.0,0.0,0.0,0.0,0.0,0.0,0.0,0.0,0.0,0.0,0.0,0.0,0.0,0.0,0.0,0.0,0.0,0.0,0.0,0.0,0.0,0.0,0.0,0.0,0.0,0.0,0.0,0.0,0.0,0.0,0.0,0.0,0.0,0.0,0.0,0.0,0.0,0.0,0.0,0.0,0.0,0.0,0.0,0.0,0.0,0.0,0.0,0.0,0.0,0.0,0.0,0.0,0.0,0.0,0.0,0.0,0.0,0.0,0.0,0.0,0.0,0.0,0.0,0.0,0.0,-1.6749,-1.9321,-2.1055,-2.115,-2.1505,-2.1915,-2.238,-2.237,-2.1441,-1.9344,0.0,0.0,0.0,0.0,0.0,0.0,0.0,0.0,0.0,0.0,0.0,0.0,0.0,0.0,0.0,0.0,0.0,0.0,0.0,0.0,0.0,0.0,0.0,0.0,0.0,0.0,0.0,0.0,0.0,0.0,0.0,0.0,0.0,0.0,0.0,0.0,0.0,0.0,0.0,0.0,0.0,0.0,0.0,0.0,0.0,0.0,0.0,0.0,0.0,0.0,0.0,0.0,0.0,0.0,0.0,0.0,0.0,0.0,0.0,0.0,0.0,0.0,0.0,0.0,0.0,0.0,0.0,0.0,0.0,0.0,0.0,0.0,0.0,0.0,0.0,0.0,0.0,0.0,0.0,0.0,0.0,0.0,0.0,0.0,0.0,0.0,0.0,0.0,0.0,0.0,0.0,0.0,0.0,0.0,0.0,0.0,0.0,0.0,0.0,0.0,0.0,0.0,-1.6365,-1.9061,-2.0955,-2.1108,-2.1325,-2.1743,-2.2433,-2.2487,-2.1562,-1.9488,0.0,0.0,0.0,0.0,0.0,0.0,0.0,0.0,0.0,0.0,0.0,0.0,0.0,0.0,0.0,0.0,0.0,0.0,0.0,0.0,0.0,0.0,0.0,0.0,0.0,0.0,0.0,0.0,0.0,0.0,0.0,0.0,0.0,0.0,0.0,0.0,0.0,0.0,0.0,0.0,0.0,0.0,0.0,0.0,0.0,0.0,0.0,0.0,0.0,0.0,0.0,0.0,0.0,0.0,0.0,0.0,0.0,0.0,0.0,0.0,0.0,0.0,0.0,0.0,0.0,0.0,0.0,0.0,0.0,0.0,0.0,0.0,0.0,0.0,0.0,0.0,0.0,0.0,0.0,0.0,0.0,0.0,0.0,0.0,0.0,0.0,0.0,0.0,0.0,0.0,0.0,0.0,0.0,0.0,0.0,0.0,0.0,0.0,0.0,0.0,0.0,0.0,-1.605,-1.8854,-2.0858,-2.1285,-2.1358,-2.1808,-2.2848,-2.2454,-2.1481,-1.9974,0.0,0.0,0.0,0.0,0.0,0.0,0.0,0.0,0.0,0.0,0.0,0.0,0.0,0.0,0.0,0.0,0.0,0.0,0.0,0.0,0.0,0.0,0.0,0.0,0.0,0.0,0.0,0.0,0.0,0.0,0.0,0.0,0.0,0.0,0.0,0.0,0.0,0.0,0.0,0.0,0.0,0.0,0.0,0.0,0.0,0.0,0.0,0.0,0.0,0.0,0.0,0.0,0.0,0.0,0.0,0.0,0.0,0.0,0.0,0.0,-0.6086,-0.5941,0.0,0.0,0.0,0.0,0.0,0.0,0.0,0.0,0.0,0.0,0.0,0.0,0.0,0.0,0.0,0.0,0.0,0.0,0.0,0.0,0.0,0.0,0.0,0.0,0.0,0.0,0.0,0.0,0.0,0.0,0.0,0.0,0.0,0.0,0.0,0.0,0.0,0.0,0.0,0.0,-1.7044,-1.9301,-2.094,-2.1566,-2.1889,-2.1999,-2.1724,-2.2183,-2.1703,-1.9857,-1.8435,0.0,0.0,0.0,0.0,0.0,0.0,0.0,0.0,0.0,0.0,0.0,0.0,0.0,0.0,0.0,0.0,0.0,0.0,0.0,0.0,0.0,0.0,0.0,0.0,0.0,0.0,0.0,0.0,0.0,0.0,0.0,0.0,0.0,0.0,0.0,0.0,0.0,0.0,0.0,0.0,0.0,0.0,0.0,0.0,0.0,0.0,0.0,0.0,0.0,0.0,0.0,0.0,0.0,0.0,0.0,0.0,0.0,0.0,0.0,-0.7946,-0.7489,0.0,0.0,0.0,0.0,0.0,0.0,0.0,0.0,0.0,0.0,0.0,0.0,0.0,0.0,0.0,0.0,0.0,0.0,0.0,0.0,0.0,0.0,0.0,0.0,0.0,0.0,0.0,0.0,0.0,0.0,0.0,0.0,0.0,0.0,0.0,0.0,0.0,0.0,0.0,0.0,-1.7403,-1.976,-2.1307,-2.1645,-2.2169,-2.2439,-2.2284,-2.2102,-2.1504,-2.0355,-1.8726,0.0,0.0,0.0,0.0,0.0,0.0,0.0,0.0,0.0,0.0,0.0,0.0,0.0,0.0,0.0,0.0,0.0,0.0,0.0,0.0,0.0,0.0,0.0,0.0,0.0,0.0,0.0,0.0,0.0,0.0,0.0,0.0,0.0,0.0,0.0,0.0,0.0,0.0,0.0,0.0,0.0,0.0,0.0,0.0,0.0,0.0,0.0,0.0,0.0,0.0,0.0,0.0,0.0,-0.674,-0.7514,-0.8005,-0.8902,-1.0246,-1.1852,-1.0389,-0.9911,-1.0174,-1.0249,0.0,0.0,0.0,0.0,0.0,0.0,0.0,0.0,0.0,0.0,0.0,0.0,0.0,0.0,0.0,0.0,0.0,0.0,0.0,0.0,0.0,0.0,-1.5707,-1.6296,-1.7124,-1.7169,-1.4833,0.0,0.0,0.0,0.0,0.0,0.0,0.0,0.0,0.0,0.0,0.0,-1.7819,-2.0138,-2.1633,-2.1859,-2.2379,-2.2813,-2.3151,-2.2247,-2.1459,-2.0984,-1.9213,-1.8015,0.0,0.0,0.0,0.0,0.0,0.0,0.0,0.0,0.0,0.0,0.0,0.0,0.0,0.0,0.0,0.0,0.0,0.0,0.0,0.0,0.0,0.0,0.0,0.0,0.0,0.0,0.0,0.0,0.0,0.0,0.0,0.0,-0.306,-0.3239,0.0,0.0,0.0,0.0,0.0,0.0,0.0,0.0,0.0,0.0,0.0,0.0,0.0,-0.4755,-0.5796,-0.5643,-0.6215,-0.7455,-0.777,-0.8827,-1.0568,-1.1566,-1.2657,-1.3676,-1.5052,0.0,-1.3202,-1.2672,0.0,0.0,0.0,0.0,0.0,0.0,0.0,0.0,0.0,0.0,0.0,0.0,0.0,0.0,0.0,0.0,0.0,0.0,0.0,0.0,0.0,0.0,-1.8377,-1.9083,-1.9371,-1.9359,-1.9018,-1.6914,-1.4696,-1.3369,-1.3019,-1.2668,0.0,0.0,0.0,0.0,0.0,0.0,-1.9091,-2.0316,-2.1327,-2.2462,-2.2624,-2.2717,-2.2753,-2.2943,-2.2501,-2.131,-2.076,-1.9923,-1.8687,-1.7416,0.0,0.0,0.0,0.0,0.0,0.0,0.0,0.0,0.0,0.0,0.0,0.0,0.0,0.0,0.0,0.0,0.0,0.0,0.0,0.0,0.0,0.0,0.0,0.0,0.0,0.0,0.0,0.0,0.0,-0.2571,-0.3024,-0.3569,-0.3537,-0.3227,0.0,0.0,0.0,0.0,0.0,0.0,0.0,0.0,0.0,-0.4874,-0.5182,-0.5542,-0.5962,-0.6706,-0.7479,-0.8273,-0.9662,-1.1187,-1.2988,-1.4016,-1.5351,-1.6919,-1.7769,-1.7812,-1.713,-1.5655,-1.4505,-1.3662,0.0,0.0,0.0,0.0,-1.3232,-1.3445,-1.3777,-1.4032,-1.4064,-1.3346,0.0,0.0,0.0,0.0,0.0,0.0,0.0,-1.5587,-1.6644,-1.8324,-1.9978,-2.0623,-2.0752,-2.0752,-2.0752,-1.9522,-1.7842,-1.6033,-1.5875,-1.5376,-1.3476,-1.3391,0.0,0.0,0.0,-1.7849,-1.9958,-2.1449,-2.2386,-2.262,-2.332,-2.3644,-2.3251,-2.3069,-2.2707,-2.2115,-2.1598,-2.1003,-2.025,-1.8966,-1.7887,0.0,0.0,0.0,0.0,0.0,0.0,0.0,0.0,0.0,0.0,0.0,0.0,0.0,0.0,0.0,0.0,0.0,0.0,0.0,0.0,0.0,0.0,0.0,0.0,0.0,0.0,0.0,0.0,-0.2745,-0.3452,-0.4,-0.4189,-0.3918,0.0,0.0,0.0,0.0,0.0,0.0,-0.4445,-0.4669,-0.5058,-0.5708,-0.603,-0.6409,-0.6838,-0.7959,-0.8926,-0.9793,-1.1567,-1.3269,-1.505,-1.6088,-1.7598,-1.9496,-1.9756,-2.0074,-2.0264,-1.8223,-1.6865,-1.6035,-1.5615,-1.5186,-1.4797,-1.5293,-1.5644,-1.5977,-1.6406,-1.6777,-1.6914,-1.6055,-1.5703,-1.541,-1.4355,0.0,0.0,0.0,0.0,-1.759,-1.8486,-1.9908,-2.1349,-2.2151,-2.2334,-2.2334,-2.2334,-2.202,-2.1029,-1.8681,-1.843,-1.7953,-1.5923,-1.5897,0.0,-1.7413,-1.827,-1.9334,-2.0662,-2.2115,-2.2934,-2.2848,-2.3746,-2.4218,-2.3865,-2.343,-2.3041,-2.2739,-2.2218,-2.1777,-2.1427,-2.0277,-1.9421,-1.8958,0.0,0.0,0.0,0.0,0.0,0.0,0.0,0.0,0.0,0.0,0.0,0.0,0.0,0.0,0.0,0.0,0.0,0.0,0.0,0.0,0.0,0.0,0.0,0.0,0.0,0.0,0.0,0.0,0.0,-0.4484,-0.483,0.0,0.0,0.0,0.0,-0.5346,-0.5373,-0.5521,-0.5889,-0.4638,-0.4791,-0.6538,-0.6654,-0.7458,-0.9072,-0.9187,-1.0457,-1.2954,-1.3062,-1.4397,-1.6703,-1.7754,-1.8948,-2.0225,-2.1291,-2.1807,-2.165,-1.9893,-1.8652,-1.7842,-1.7422,-1.6982,-1.665,-1.709,-1.7266,-1.7344,-1.7764,-1.793,-1.8008,-1.833,-1.8174,-1.7764,-1.7295,-1.6885,0.0,0.0,-1.7769,-1.8871,-2.0763,-2.1804,-2.2819,-2.425,-2.4657,-2.4657,-2.4657,-2.4632,-2.3803,-2.1041,-2.0075,-1.9673,-1.9535,0.0,-1.9762,-2.0289,-2.0527,-2.0779,-2.1355,-2.1568,-2.2079,-2.3393,-2.3598,-2.39,-2.4491,-2.4507,-2.3999,-2.2798,-2.2679,-2.2364,-2.1704,-2.1354,-2.0868,-2.0138,-1.809,0.0,0.0,0.0,0.0,0.0,0.0,0.0,0.0,0.0,0.0,0.0,0.0,0.0,0.0,0.0,0.0,0.0,0.0,0.0,0.0,0.0,0.0,0.0,0.0,0.0,0.0,0.0,0.0,-0.5428,-0.5443,0.0,-0.5014,-0.5575,-0.5964,-0.6002,-0.6081,-0.577,-0.5104,-0.5768,-0.6535,-0.7319,-0.8108,-0.8775,-0.9421,-1.098,-1.2381,-1.3558,-1.5093,-1.6726,-1.8563,-1.9724,-2.0887,-2.2054,-2.2514,-2.2539,-2.2236,-2.1621,-2.0859,-2.0039,-1.96,-1.9336,-1.9219,-1.9375,-1.9619,-1.9844,-1.9697,-1.9648,-1.959,-1.9189,-1.8955,-1.8809,-1.8652,-1.8506,-1.8408,-1.8564,-1.9212,-2.0149,-2.1417,-2.2396,-2.3329,-2.4499,-2.482,-2.482,-2.482,-2.482,-2.4531,-2.354,-2.2585,-2.1719,-2.1016,-2.0891,-2.0819,-2.0665,-2.1239,-2.1776,-2.1987,-2.2755,-2.3358,-2.3392,-2.426,-2.4726,-2.4549,-2.4576,-2.4388,-2.3969,-2.3146,-2.2383,-2.1724,-2.1189,-2.07,-2.0261,-1.8912,-1.7378,0.0,0.0,0.0,0.0,0.0,0.0,0.0,0.0,0.0,0.0,0.0,0.0,0.0,0.0,0.0,0.0,0.0,0.0,0.0,0.0,0.0,0.0,0.0,0.0,0.0,-0.5058,-0.5807,-0.5926,-0.6071,-0.6103,-0.6047,-0.6329,-0.6534,-0.6542,-0.6732,-0.6459,-0.5617,-0.7333,-0.8402,-0.8366,-0.9562,-1.0487,-1.1017,-1.2974,-1.4377,-1.5039,-1.7044,-1.8707,-2.0124,-2.0935,-2.1943,-2.3135,-2.3135,-2.2978,-2.2725,-2.2725,-2.2393,-2.1816,-2.124,-2.1016,-2.1016,-2.1016,-2.1201,-2.1406,-2.1113,-2.1016,-2.0918,-2.0352,-2.0166,-2.0166,-2.0166,-2.0166,-2.0166,-2.0166,-2.0601,-2.1321,-2.2683,-2.3347,-2.3931,-2.5289,-2.5511,-2.5372,-2.5372,-2.5372,-2.5372,-2.5372,-2.4469,-2.3477,-2.2736,-2.2611,-2.2485,-2.2121,-2.2686,-2.315,-2.315,-2.3782,-2.4145,-2.3914,-2.4614,-2.5005,-2.4841,-2.4674,-2.4576,-2.4597,-2.34,-2.2488,-2.2039,-2.1186,-2.0632,-2.0457,-1.9217,-1.79,-1.6518,0.0,0.0,0.0,0.0,0.0,0.0,0.0,0.0,0.0,0.0,0.0,0.0,0.0,0.0,0.0,0.0,0.0,0.0,0.0,0.0,0.0,0.0,0.0,-0.481,-0.5362,-0.5833,-0.584,-0.6498,-0.6834,-0.6536,-0.6898,-0.7138,-0.7122,-0.7322,-0.7482,-0.7719,-0.9328,-1.0148,-0.991,-1.1143,-1.2479,-1.3968,-1.5171,-1.6497,-1.7777,-1.8956,-2.0124,-2.1293,-2.1382,-2.2031,-2.3135,-2.3135,-2.3135,-2.3135,-2.3135,-2.3135,-2.3057,-2.2246,-2.1924,-2.1924,-2.1924,-2.1924,-2.1924,-2.1904,-2.1904,-2.1904,-2.1894,-2.1885,-2.1885,-2.1885,-2.1885,-2.1885,-2.1885,-2.1885,-2.2431,-2.4456,-2.4646,-2.4814,-2.6853,-2.6904,-2.6584,-2.6584,-2.6571,-2.6546,-2.6546,-2.5611,-2.487,-2.4845,-2.4833,-2.482,-2.482,-2.482,0.0,-2.482,-2.4356,-2.4302,-2.4983,-2.459,-2.4622,-2.5397,-2.4855,-2.4515,-2.4566,-2.3385,-2.2694,-2.2694,-2.1395,-2.0722,-2.0707,-1.9052,-1.7943,-1.7474,0.0,0.0,0.0,0.0,0.0,0.0,0.0,0.0,0.0,0.0,0.0,0.0,0.0,0.0,0.0,0.0,0.0,0.0,0.0,0.0,0.0,-0.5638,-0.5821,-0.5518,-0.6047,-0.6532,-0.6746,-0.7153,-0.7383,-0.7299,-0.74,-0.7536,-0.759,-0.7699,-0.8144,-0.9267,-0.9862,-1.0462,-1.1274,-1.3446,-1.4798,-1.5164,-1.7323,-1.8648,-1.9039,-2.0232,-2.0953,-2.1293,-2.2217,-2.2775,-2.3135,-2.3135,-2.3135,-2.3135,-2.3135,-2.3135,-2.3115,-2.2881,-2.2793,-2.2793,-2.2793,-2.2793,-2.2754,-2.2441,-2.2344,-2.2295,-2.1982,-2.1885,-2.1885,-2.1885,-2.1885,-2.1885,-2.1885,-2.2421,-2.3353,-2.4681,-2.5509,-2.6237,-2.7567,-2.7758,-2.7657,-2.7657,-2.7344,-2.7055,-2.7055,-2.649,-2.5875,-2.546,-2.5071,-2.482,-2.482,-2.482,-2.482,-2.482,-2.4695,-2.4494,-2.4327,-2.4671,-2.4792,-2.4635,-2.4535,-2.4307,-2.3829,-2.2625,-2.1964,-2.1964,-2.1156,-2.0843,-2.1136,-2.0089,-1.937,0.0,0.0,0.0,0.0,0.0,0.0,0.0,0.0,0.0,0.0,0.0,0.0,0.0,0.0,0.0,0.0,0.0,0.0,0.0,0.0,0.0,0.0,-0.6408,-0.6589,-0.6454,-0.6759,-0.7068,-0.7305,-0.7543,-0.7689,-0.7689,-0.7746,-0.8007,-0.8672,-0.868,-0.9299,-1.0672,-1.1361,-1.194,-1.2716,-1.5184,-1.6504,-1.6504,-1.9007,-2.0215,-2.0305,-2.1498,-2.205,-2.212,-2.2775,-2.3135,-2.3135,-2.3135,-2.3135,-2.3135,-2.3135,-2.3135,-2.3135,0.0,0.0,0.0,0.0,-2.3135,-2.3105,-2.2861,-2.2773,-2.2734,-2.249,-2.2412,-2.2412,-2.2412,-2.2412,-2.2412,-2.2412,-2.3203,-2.4317,-2.5369,-2.6239,-2.7164,-2.8213,-2.8273,-2.8109,-2.8109,-2.7858,-2.7632,-2.7632,-2.7369,0.0,-2.6402,-2.5862,-2.5511,-2.5511,-2.5511,-2.5511,-2.5511,-2.5297,-2.5021,-2.4707,-2.4823,-2.487,-2.4642,-2.4435,0.0,0.0,0.0,-2.154,-2.1304,-2.1188,0.0,0.0,0.0,0.0,0.0,-2.1245,0.0,0.0,-1.872,-1.8399,0.0,0.0,0.0,0.0,0.0,0.0,0.0,0.0,0.0,0.0,0.0,0.0,0.0,0.0,0.0,0.0,-0.7239,-0.739,-0.7475,-0.7618,-0.7674,-0.7611,-0.7846,-0.8028,-0.8028,-0.8252,-0.892,-1.0096,-1.0194,-1.0779,-1.2042,-1.3295,0.0,0.0,0.0,-1.8031,-1.8256,-2.0525,-2.1616,-2.1697,-2.2723,-2.3281,-2.3281,-2.3281,-2.3252,-2.3213,-2.3213,-2.3184,-2.3135,-2.3135,-2.3135,-2.3135,-2.3135,-2.3135,-2.3135,-2.3135,-2.3135,-2.3135,-2.3135,0.0,0.0,-2.3135,-2.3135,-2.3135,-2.3135,-2.3135,-2.3135,-2.3222,-2.4135,-2.5294,-2.6389,-2.7115,-2.7806,-2.8786,-2.8649,-2.8298,-2.8298,-2.8247,-2.8197,-2.8197,-2.8147,-2.7946,-2.7457,-2.6917,-2.6596,-2.6533,-2.6533,-2.6533,-2.6533,-2.6013,-2.5674,-2.5598,-2.5184,0.0,-2.5066,-2.4459,-2.3947,-2.356,-2.244,-2.1583,-2.1054,-2.1727,-2.2556,-2.3431,-2.316,-2.3477,-2.446,-2.4582,-2.4126,-2.2969,-2.0619,-2.0046,0.0,0.0,0.0,0.0,0.0,0.0,0.0,0.0,0.0,0.0,0.0,0.0,0.0,0.0,0.0,-0.6892,-0.7269,-0.7629,-0.7702,-0.8787,-0.9026,-0.7876,-0.8867,-0.9555,-0.9555,-1.056,-1.1263,-1.1556,-1.156,-1.2139,-1.3392,-1.3776,-1.5025,-1.7376,-1.8895,-2.0254,-2.1611,-2.3121,-2.3784,-2.3784,-2.4069,0.0,-2.417,-2.417,-2.3984,-2.3662,-2.3662,-2.3467,-2.3135,-2.3135,-2.3135,-2.3135,-2.3135,-2.3135,-2.3135,-2.3135,-2.3135,-2.3135,-2.3135,-2.3135,-2.3135,-2.3135,-2.3135,-2.3135,-2.3135,-2.3135,0.0,-2.4211,-2.5294,-2.6378,-2.7522,-2.8536,-2.9372,-2.9551,-2.9553,-2.9465,-2.9465,-2.9101,-2.8775,-2.8775,-2.8411,-2.8072,-2.7959,-2.7494,-2.6967,-2.6596,-2.6533,-2.6533,-2.6533,-2.6433,-2.6113,-2.5649,-2.5511,-2.53,-2.4887,-2.4408,-2.3848,-2.3208,-2.3147,-2.3108,-2.2944,-2.4174,-2.4702,-2.4386,-2.4807,-2.5137,-2.5348,-2.5199,-2.5552,-2.6318,-2.3794,-2.2414,0.0,0.0,0.0,0.0,0.0,0.0,0.0,0.0,0.0,0.0,0.0,-0.6003,-0.6242,0.0,-0.7197,-0.7299,-0.756,-0.7945,-0.8773,-0.9551,-0.9768,-0.8999,-1.0134,-1.0974,-1.0974,-1.156,-1.2139,-1.2813,-1.2909,-1.3545,-1.5049,-1.5061,-1.6152,-1.8394,-1.9734,-2.1053,-2.2604,-2.3839,-2.4414,-2.4414,-2.4414,-2.4414,-2.4414,-2.4414,-2.4307,-2.4102,-2.4102,-2.3984,-2.3779,-2.3779,-2.3779,-2.3779,-2.3779,-2.3516,-2.3135,-2.3135,-2.3135,-2.3135,-2.3135,-2.3135,-2.3135,-2.3135,-2.3135,-2.3135,-2.3135,-2.3135,-2.3222,-2.38,-2.4798,-2.5797,-2.6284,-2.7683,-2.8937,-2.8937,-2.9365,-2.9792,-2.9792,-2.9566,-2.9365,-2.9365,-2.9139,-2.885,-2.8561,-2.8285,-2.7821,-2.6992,-2.6866,-2.6766,-2.6559,-2.6533,-2.6352,-2.6063,-2.6025,-2.5799,-2.5259,-2.4493,-2.3897,-2.3569,-2.3712,-2.4017,-2.4446,-2.5409,-2.6164,-2.6617,-2.6931,-2.7045,-2.693,-2.6852,-2.6749,-2.6552,-2.53,-2.4458,0.0,0.0,0.0,0.0,0.0,0.0,0.0,-0.6345,-0.6096,-0.6718,-0.6939,-0.7153,-0.7726,-0.7871,-0.8121,-0.8553,-0.862,-0.9053,-1.0168,-1.0583,-1.0774,-1.0774,-1.1653,-1.2334,-1.2334,-1.2528,-1.313,-1.4244,-1.4346,-1.4952,-1.6339,-1.664,-1.7547,-1.9117,-2.0483,-2.1778,-2.3229,-2.4191,-2.4678,-2.4678,-2.4678,-2.4678,-2.4678,-2.4678,-2.4629,-2.4541,-2.4453,-2.4414,-2.4414,-2.4414,-2.4414,-2.4414,-2.4414,-2.3994,-2.3379,-2.3291,-2.3213,-2.3135,-2.3135,-2.3135,-2.3135,-2.3135,-2.3135,-2.3135,-2.3135,-2.3135,-2.3135,-2.3387,-2.4125,-2.4872,-2.5041,-2.6614,-2.8096,-2.8096,-2.8937,-2.9792,-2.9792,-2.9792,-2.9792,-2.9792,-2.9792,-2.9641,-2.9176,-2.9089,-2.8725,-2.7607,-2.7444,-2.7281,-2.6841,-2.6747,-2.6684,-2.6684,-2.6596,-2.6226,-2.5649,-2.4808,-2.4268,-2.4167,-2.4335,-2.4816,-2.5687,-2.6339,-2.737,-2.8786,-2.8613,-2.8532,-2.8512,-2.8138,-2.7414,-2.6248,-2.6073,-2.5944,-0.8663,-0.9203,-0.9588,-1.008,-0.9082,-0.8548,0.0,-0.9741,-0.8649,-1.0114,-1.057,-1.0735,-1.093,-1.1066,-1.1208,-1.1381,-1.1424,-1.1531,-1.1653,-1.2716,-1.3488,-1.3488,-1.3584,-1.3686,-1.3686,-1.4657,-1.5549,-1.6005,-1.6018,-1.6248,-1.664,-1.7824,-1.9223,-2.0835,-2.224,-2.3805,-2.5383,-2.5489,-2.5586,-2.5586,-2.5586,-2.5586,-2.5586,-2.5586,-2.5371,-2.4971,-2.458,-2.4414,-2.4414,-2.4414,-2.4414,-2.4414,-2.4414,-2.4355,-2.4228,-2.3857,-2.3467,-2.3135,-2.3135,-2.3135,-2.3135,-2.3135,-2.3135,-2.3135,-2.3135,-2.3135,-2.3299,-2.4296,-2.4702,-2.5041,-2.6058,-2.7197,-2.8096,-2.8096,-2.8937,-2.9792,-2.9792,-2.9792,-2.9792,-2.9792,-2.9792,-2.9779,-2.9704,-2.9691,-2.9315,-2.8185,-2.8009,-2.7996,-2.7934,-2.7494,-2.7193,-2.7193,-2.6753,-2.6226,-2.5649,-2.5485,-2.5222,-2.4757,-2.5353,-2.6089,-2.6941,-2.7697,-2.8504,-2.9475,-2.8759,-2.8598,-2.9159,-2.766,-2.7061,-2.7473,-2.678,-2.6123,-1.0541,-1.0862,-1.1056,-1.147,-1.1016,-1.0761,-1.1723,-1.0982,-1.0243,-1.1256,-1.1451,-1.159,-1.1721,-1.1743,-1.1839,-1.193,-1.1945,-1.2139,-1.2909,-1.359,-1.4166,-1.4949,-1.5045,-1.5045,-1.5045,-1.5691,-1.6139,-1.6259,-1.6426,-1.6653,-1.6947,-1.8247,-1.9775,-2.1403,-2.283,-2.4235,-2.5732,-2.5742,-2.5742,-2.5742,-2.5742,-2.5742,-2.5742,-2.5742,-2.5635,-2.5449,-2.5264,-2.5185,-2.5185,-2.5185,-2.5185,-2.5185,-2.5185,-2.5019,-2.4746,-2.4316,-2.4043,-2.3887,-2.3887,-2.3721,-2.3516,-2.3516,-2.335,-2.3135,-2.3135,-2.3135,-2.3222,-2.3714,-2.38,-2.3887,-2.4392,-2.5378,-2.6191,-2.6191,-2.7035,-2.8039,-2.8688,-2.8767,-2.9028,-2.9702,-2.9792,-2.9792,-2.9792,-2.9792,-2.9628,-2.9164,-2.88,-2.8461,-2.8147,-2.7908,-2.7758,-2.7758,-2.771,-2.7331,-2.6659,-2.6726,-2.6511,-2.5854,-2.6505,-2.7304,-2.8181,-2.9047,-2.9857,-3.066,-3.0347,-2.9798,-2.9125,-2.8707,-2.8186,-2.7472,-2.7468,-2.7293,-1.1553,-1.1864,-1.2198,-1.2579,-1.2599,-1.2541,-1.279,-1.2313,-1.2018,-1.2731,-1.2842,-1.2897,-1.2978,-1.3017,-1.3017,-1.3017,-1.3017,-1.3301,-1.4268,-1.4459,-1.4752,-1.573,-1.5832,-1.5832,-1.5832,-1.6025,-1.6219,-1.638,-1.6587,-1.6874,-1.7248,-1.8578,-2.0085,-2.1643,-2.2968,-2.4304,-2.5645,-2.5742,-2.5742,-2.5742,-2.5742,-2.5742,-2.5742,-2.5742,-2.5742,-2.5742,-2.5742,-2.5742,-2.5742,-2.5742,-2.5742,-2.5742,-2.5742,-2.5537,-2.5215,-2.4893,-2.4805,-2.4854,-2.4506,-2.4483,-2.4376,-2.3918,-2.3574,-2.3301,-2.3174,-2.3135,-2.3135,-2.3135,-2.3135,-2.3135,-2.3135,-2.3963,-2.4787,-2.4787,-2.563,-2.6801,-2.7844,-2.8096,-2.8426,-2.9611,-2.9792,-2.9792,-2.9792,-2.9792,-2.9792,-2.9792,-2.944,-2.9026,-2.8624,-2.8436,-2.8273,-2.8122,-2.8254,-2.8151,-2.7578,-2.7665,-2.7559,-2.6974,-2.7751,-2.8598,-2.9435,-3.0338,-3.1229,-3.2019,-3.1827,-3.1107,-2.9883,-3.0072,-2.9497,-2.8317,-2.8718,-2.9003,-1.1089,-1.185,-1.2936,-1.3454,-1.3293,-1.3417,-1.4897,-1.4509,-1.413,-1.5419,-1.5717,-1.5717,-1.5635,-1.5635,-1.5635,-1.5635,-1.5635,-1.573,-1.573,-1.573,-1.573,-1.5832,-1.5832,-1.5832,-1.5832,-1.5838,-1.6079,-1.6653,-1.67,-1.6961,-1.7542,-1.8902,-2.0223,-2.1651,-2.2968,-2.4304,-2.5645,-2.5742,-2.5742,-2.5742,-2.5742,-2.5742,-2.5742,-2.5742,-2.5742,-2.5742,-2.5742,-2.5742,-2.5742,-2.5742,-2.5742,-2.5742,-2.5742,-2.5732,-2.5713,-2.5703,-2.5883,-2.6093,-2.4864,-2.5199,-2.5999,-2.4356,-2.3779,-2.3691,-2.3271,-2.3135,-2.3135,-2.3135,-2.3135,-2.3135,-2.3135,-2.3963,-2.4787,-2.4787,-2.563,-2.6801,-2.7844,-2.8096,-2.8426,-2.9611,-2.9792,-2.9792,-2.9792,-2.9792,-2.9792,-2.9792,-2.9779,-2.9767,-2.9741,-2.9252,-2.8699,-2.816,-2.8084,-2.8072,-2.8084,-2.8059,-2.8059,-2.8059,-2.8931,-2.9872,-3.0675,-3.1616,-3.2557,-3.344,-3.262,-3.2147,-3.2083,-3.1368,-3.0904,-3.0904,-3.0918,-3.1183,-1.2364,-1.3039,-1.3781,-1.4369,-1.4519,-1.4759,-1.5518,-1.5367,-1.5242,-1.573,-1.5678,-1.5538,-1.5538,-1.5538,-1.5538,-1.5538,-1.5705,-1.5832,-1.5832,-1.5999,-1.6052,-1.5852,-1.6005,-1.6046,-1.5845,-1.6005,-1.6286,-1.6673,-1.6887,-1.7174,-1.7562,-1.8916,-2.0346,-2.2014,-2.3353,-2.4931,-2.6582,-2.6582,-2.6582,-2.6582,-2.6582,-2.6582,-2.6572,-2.6299,-2.6172,-2.6152,-2.5859,-2.5742,-2.5742,-2.5742,-2.5742,-2.5742,-2.5742,-2.5742,-2.5742,-2.5742,-2.6285,-2.7024,-2.5749,-2.5372,-2.5458,-2.4864,-2.4443,-2.4121,-2.3701,-2.3574,-2.3516,-2.3223,-2.3135,-2.3135,-2.3135,-2.3387,-2.3637,-2.3637,-2.3973,-2.4723,-2.6625,-2.7046,-2.7626,-2.9456,-2.9792,-2.9792,-2.9792,-2.9792,-2.9792,-2.9792,-2.9792,-2.9792,-2.9792,-2.9616,-2.9428,-2.9252,-2.9372,-2.9275,-2.8649,-2.8856,-2.8983,-2.9054,-2.9856,-3.0798,-3.1673,-3.2616,-3.3223,-3.3499,-3.3223,-3.2757,-3.2205,-3.2311,-3.2111,-3.1542,-3.1875,-3.218,-1.3331,-1.3874,-1.4409,-1.5097,-1.5418,-1.5598,-1.5785,-1.5832,-1.5798,-1.5698,-1.5444,-1.5211,-1.5104,-1.4997,-1.4997,-1.5211,-1.5398,-1.5625,-1.5945,-1.6152,-1.6239,-1.6152,-1.6313,-1.6353,-1.6159,-1.6319,-1.6506,-1.6693,-1.6981,-1.7328,-1.7722,-1.9089,-2.0682,-2.2394,-2.3859,-2.5349,-2.7012,-2.7012,-2.7012,-2.7012,-2.7012,-2.7012,-2.7002,-2.6738,-2.6611,-2.6602,-2.6318,-2.6113,-2.5967,-2.5967,-2.5879,-2.5742,-2.5742,-2.5742,-2.5742,-2.5742,-2.6197,-2.6849,-2.6014,-2.5826,-2.5919,-2.5297,-2.4883,-2.457,-2.4141,-2.4014,-2.3926,-2.3496,-2.3369,-2.333,-2.3184,-2.3135,-2.3135,-2.3135,-2.3135,-2.3724,-2.5975,-2.6483,-2.7139,-2.9378,-2.9792,-2.9792,-2.9792,-2.9792,-2.9792,-2.9792,-2.9792,-2.9792,-2.9792,-2.9792,-2.9792,-2.9792,-2.9947,-2.9792,-2.9239,-2.9397,-2.9665,-3.0072,-3.0963,-3.1856,-3.2817,-3.3731,-3.4218,-3.4218,-3.4218,-3.3936,-3.3381,-3.3755,-3.3665,-3.31,-3.35,-3.3616,-1.3888,-1.4355,-1.4783,-1.5618,-1.5832,-1.5832,-1.5832,-1.5805,-1.5705,-1.5411,-1.5097,-1.4776,-1.4462,-1.4229,-1.4262,-1.481,-1.4957,-1.5304,-1.6152,-1.6286,-1.6393,-1.6673,-1.672,-1.6727,-1.6707,-1.6734,-1.6747,-1.6747,-1.7014,-1.7428,-1.8016,-1.9413,-2.0932,-2.2659,-2.4158,-2.5655,-2.708,-2.708,-2.708,-2.708,-2.708,-2.708,-2.708,-2.706,-2.7051,-2.7041,-2.7021,-2.6787,-2.6426,-2.6426,-2.6162,-2.5771,-2.5771,-2.5752,-2.5742,-2.5742,-2.5742,-2.5742,-2.5742,-2.6476,-2.7243,-2.5605,-2.5098,-2.5019,-2.458,-2.4453,-2.4365,-2.3935,-2.3828,-2.373,-2.331,-2.3184,-2.3174,-2.3174,-2.3154,-2.381,-2.6058,-2.6565,-2.7221,-2.9378,-2.9792,-2.9792,-2.9792,-2.9792,-2.9792,-2.9792,-2.9792,-2.9792,-2.9792,-2.9792,-2.9792,-2.9792,-2.9792,-2.9792,-2.9792,-2.9792,-3.0203,-3.118,-3.2105,-3.3031,-3.4027,-3.4986,-3.5504,-3.5504,-3.5504,-3.5504,-3.5504,-3.5504,-3.5504,-3.5504,-3.5504,-3.5504,-1.4502,-1.511,-1.5551,-1.5772,-1.5832,-1.5832,-1.5832,-1.5491,-1.5097,-1.4803,-1.3632,-1.2738,-1.2804,-1.3027,-1.3275,-1.3904,-1.4897,-1.5765,-1.6213,-1.646,-1.662,-1.67,-1.6901,-1.6947,-1.6727,-1.7101,-1.7361,-1.7361,-1.7428,-1.7635,-1.8023,-1.8571,-2.0223,-2.3137,-2.3586,-2.513,-2.7959,-2.7969,-2.7969,-2.7969,-2.7969,-2.7969,-2.7959,-2.7646,-2.75,-2.748,-2.7158,-2.6953,-2.6855,-2.6855,-2.6602,-2.6221,-2.6221,-2.6025,-2.5742,-2.5742,-2.5742,-2.5742,-2.5742,-2.5917,-2.6081,-2.5702,-2.5566,-2.5488,-2.5039,-2.4902,-2.4814,-2.4375,-2.4258,-2.4228,-2.4121,-2.3857,-2.3623,-2.3623,-2.4042,-2.4798,-2.6224,-2.7128,-2.8108,-2.9534,-2.9792,-2.9792,-2.9792,-2.9792,-2.9792,-2.9792,-2.9792,-2.9792,-2.9792,-2.9792,-2.9792,-2.9792,-2.9792,-2.9792,-2.9792,-2.9792,-3.0495,-3.2177,-3.2464,-3.3325,-3.5052,-3.5359,-3.5504,-3.5504,-3.5504,-3.5504,-3.5504,-3.5504,-3.5504,-3.5504,-3.5504,-3.5782,-1.4983,-1.5484,-1.5832,-1.5832,-1.5832,-1.5725,-1.5344,-1.4903,-1.4382,-1.3687,-1.2304,-1.1372,-1.1669,-1.1865,-1.2288,-1.3253,-1.4469,-1.5538,-1.6346,-1.6607,-1.6592,-1.6215,-1.6918,-1.7114,-1.6437,-1.7265,-1.7842,-1.7969,-1.7983,-1.811,-1.8417,-1.923,-2.0877,-2.3516,-2.4183,-2.5829,-2.8291,-2.8291,-2.8291,-2.8291,-2.8291,-2.8291,-2.8281,-2.8047,-2.7939,-2.793,-2.7685,-2.7471,-2.7305,-2.7305,-2.7051,-2.665,-2.6465,-2.624,-2.5996,-2.581,-2.5742,-2.5742,-2.5742,-2.5742,-2.5742,-2.5742,-2.5742,-2.5693,-2.5439,-2.5361,-2.5273,-2.4824,-2.4697,-2.4658,-2.4463,-2.4685,-2.4936,-2.4936,-2.5448,-2.6198,-2.7284,-2.7847,-2.8426,-2.9611,-2.9792,-2.9792,-2.9792,-2.9792,-2.9792,-2.9792,-2.9792,-2.9792,-2.9792,-2.9792,-2.9792,-2.9792,-2.9792,-2.9792,-2.9792,-3.0216,-3.1057,-3.2536,-3.2961,-3.3891,-3.5439,-3.5504,-3.5504,-3.5504,-3.5504,-3.5504,-3.5504,-3.5504,-3.5504,-3.5504,-3.5504,-3.5894,-1.5378,-1.5638,-1.5832,-1.5832,-1.5798,-1.5551,-1.471,-1.4117,-1.3418,-1.2269,-1.0897,-1.0055,-1.0425,-1.043,-1.09,-1.2395,-1.3471,-1.4663,-1.6196,-1.65,-1.6196,-1.5465,-1.653,-1.6977,-1.6005,-1.7104,-1.8044,-1.8531,-1.8584,-1.8698,-1.8911,-2.0153,-2.1727,-2.3702,-2.5489,-2.7051,-2.8291,-2.8291,-2.8291,-2.8291,-2.8067,-2.8067,-2.8291,-2.8067,-2.8067,-2.8291,-2.8291,-2.8086,-2.7754,-2.7754,-2.749,-2.706,-2.6699,-2.6484,-2.6338,-2.5967,-2.5781,-2.5742,-2.5742,-2.5742,-2.5742,-2.5742,-2.5742,-2.5742,-2.5742,-2.5742,-2.5654,-2.5273,-2.5156,-2.5068,-2.4687,-2.5432,-2.6357,-2.6357,-2.7053,-2.7882,-2.8716,-2.8626,-2.8597,-2.9624,-2.9792,-2.9792,-2.9792,-2.9792,-2.9792,-2.9792,-2.9792,-2.9792,-2.9792,-2.9792,-2.9714,-2.9624,-2.9702,-2.9714,-2.9624,-3.0532,-3.1609,-3.2522,-3.3449,-3.4461,-3.5439,-3.5504,-3.5504,-3.5504,-3.5504,-3.5504,-3.5504,-3.5504,-3.5554,-3.5668,-3.5668,-3.6117,-1.5671,-1.5792,-1.5832,-1.5832,-1.5651,-1.5304,-1.4663,-1.3296,-1.1852,-1.0907,-0.8909,-0.7423,-0.7752,-0.8077,-0.8697,-0.9792,-1.1033,-1.2631,-1.4871,-1.5154,-1.5149,-1.5352,-1.5719,-1.5982,-1.5914,-1.6422,-1.7396,-1.8731,-1.9078,-1.9125,-1.8931,-1.9374,-2.0987,-2.371,-2.6499,-2.8067,-2.8291,-2.8291,-2.8291,-2.8291,-2.7051,-2.7168,-2.8291,-2.7051,-2.7159,-2.8291,-2.8291,-2.8252,-2.8184,-2.8184,-2.793,-2.7549,-2.7471,-2.7012,-2.6377,-2.6309,-2.6045,-2.5742,-2.5742,-2.5742,-2.5742,-2.5742,-2.5742,-2.5742,-2.5742,-2.5742,-2.5723,-2.5644,-2.5625,-2.5605,-2.5527,-2.6151,-2.676,-2.676,-2.8076,-2.9248,-2.8964,-2.9224,-2.9534,-2.9792,-2.9792,-2.9792,-2.9792,-2.9792,-2.9792,-2.9792,-2.9792,-2.9792,-2.9792,-2.9792,-2.9443,-2.8518,-2.9275,-2.9456,-2.8426,-3.0101,-3.1609,-3.2522,-3.3449,-3.4461,-3.5439,-3.5504,-3.5504,-3.5504,-3.5504,-3.5504,-3.5504,-3.5504,-3.5846,-3.6384,-3.6384,-3.7128,-1.5752,-1.5832,-1.5832,-1.5832,-1.5113,-1.4155,-1.324,-1.154,-0.9916,-0.8918,-0.729,-0.6236,-0.6728,-0.7092,-0.7681,-0.8851,-0.9901,-1.1412,-1.4023,-1.3745,-1.353,-1.3963,-1.4375,-1.4646,-1.4983,-1.5892,-1.7225,-1.9024,-1.9285,-1.9305,-1.9165,-2.0737,-2.2379,-2.371,-2.5936,-2.7168,-2.7168,-2.6381,-2.6381,-2.7159,-2.649,-2.6825,-2.8291,-2.7609,-2.7618,-2.8291,-2.8291,-2.8291,-2.8291,-2.8291,-2.8174,-2.7969,-2.7754,-2.7275,-2.6689,-2.6465,-2.6113,-2.5742,-2.5742,-2.5742,-2.5742,-2.5742,-2.5742,-2.5742,-2.5742,-2.5742,-2.5742,-2.5742,-2.5742,-2.583,-2.6476,-2.7411,-2.8331,-2.8958,-3.0091,-3.0817,-2.9996,-2.9973,-3.0131,-2.9842,-2.9792,-2.9792,-2.9792,-2.9792,-2.9792,-2.9792,-2.9792,-2.9792,-2.9792,-2.9792,-2.9624,-2.9028,-2.9456,-2.9611,-2.9028,-3.0781,-3.2105,-3.2593,-3.3973,-3.4986,-3.5504,-3.5504,-3.5504,-3.5504,-3.5504,-3.5504,-3.5504,-3.5504,-3.5894,-3.6615,-3.6615,-3.7408,-1.4999,-1.5197,-1.5343,-1.5051,-1.4112,-1.2879,-1.1544,-1.0019,-0.8451,-0.7135,-0.6012,-0.5437,-0.6041,-0.6299,-0.6781,-0.795,-0.867,-1.0056,-1.2614,-1.2225,-1.1742,-1.2316,-1.2825,-1.3287,-1.4015,-1.532,-1.6988,-1.9229,-1.9366,-1.9366,-1.9366,-2.1934,-2.3375,-2.3375,-2.482,-2.5599,-2.5599,-2.4378,-2.4599,-2.6155,-2.5818,-2.6599,-2.8291,-2.795,-2.796,-2.8291,-2.8291,-2.8291,-2.8291,-2.8291,-2.8291,-2.8262,-2.793,-2.748,-2.6973,-2.665,-2.6191,-2.5742,-2.5742,-2.5742,-2.5742,-2.5742,-2.5742,-2.5742,-2.5742,-2.5742,-2.5742,-2.5742,-2.5742,-2.6014,-2.7315,-2.8495,-2.9772,-3.1223,-3.1908,-3.1989,-3.1135,-3.0859,-3.062,-3.008,-2.9967,-2.993,-2.9817,-2.9792,-2.9792,-2.9792,-2.9792,-2.9792,-2.9792,-2.9792,-2.9792,-2.9792,-2.9792,-2.9702,-2.9456,-3.1389,-3.2593,-3.2593,-3.4409,-3.5504,-3.5504,-3.5504,-3.5504,-3.5504,-3.5504,-3.5504,-3.5504,-3.5504,-3.5958,-3.6859,-3.6859,-3.77,-1.2675,-1.3031,-1.3782,-1.2528,-1.2483,-1.2221,-1.0312,-0.9311,-0.826,-0.6461,-0.5293,-0.4625,-0.468,-0.4837,-0.5104,-0.5784,-0.6338,-0.7458,-0.9853,-1.0387,-1.0676,-1.0987,-1.1411,-1.2315,-1.3917,-1.4549,-1.6004,-1.9127,-1.9366,-1.9366,-1.9366,-2.0923,-2.1805,-2.1805,-2.3263,-2.4044,-2.4044,-2.3822,-2.4599,-2.6045,-2.471,-2.5498,-2.8291,-2.6943,-2.7051,-2.8291,-2.8291,-2.8291,-2.8291,-2.8291,-2.8291,-2.8291,-2.8252,-2.7734,-2.7012,-2.6973,-2.6445,-2.5742,-2.5742,-2.5742,-2.5742,-2.5742,-2.5742,-2.5742,-2.5742,-2.5742,-2.5742,-2.5742,-2.5742,-2.6014,-2.7315,-2.8495,-2.9954,-3.2339,-3.2544,-3.219,-3.2089,-3.1675,-3.1173,-3.0645,-3.0545,-3.0382,-2.988,-2.9792,-2.9792,-2.9792,-2.9792,-2.9792,-2.9792,-2.9792,-2.9792,-2.9792,-2.9792,-2.9365,-2.8347,-3.0952,-3.2593,-3.2593,-3.4409,-3.5504,-3.5504,-3.5504,-3.5504,-3.5504,-3.5504,-3.5504,-3.5504,-3.5504,-3.6258,-3.769,-3.769,-3.8541,-1.2248,-1.2819,-1.359,-1.2237,-1.1154,-1.0167,-0.907,-0.7731,-0.6432,-0.5304,-0.4782,-0.4519,-0.4519,-0.4567,-0.4721,-0.523,-0.5393,-0.6253,-0.8517,-0.8475,-0.8725,-1.0069,-1.0107,-1.1077,-1.3783,-1.4453,-1.5908,-1.9127,-1.9366,-1.9366,-1.9366,-2.0809,-2.1586,-2.1586,-2.2145,-2.2476,-2.2476,-2.1601,-2.2379,-2.471,-2.4044,-2.538,-2.8291,-2.7726,-2.7726,-2.8291,-2.8291,-2.8291,-2.8291,-2.8291,-2.8291,-2.8291,-2.8291,-2.793,-2.7373,-2.7109,-2.6641,-2.6094,-2.583,-2.5742,-2.5742,-2.5742,-2.5742,-2.5742,-2.5742,-2.5742,-2.5742,-2.5742,-2.5742,-2.6197,-2.8132,-3.0147,-3.1877,-3.2896,-3.2905,-3.2641,-3.229,-3.2039,-3.1725,-3.1185,-3.0834,-3.0545,-3.0331,-3.0018,-2.9792,-2.9792,-2.9792,-2.9792,-2.9792,-2.9792,-2.9792,-2.9792,-2.9792,-2.9624,-2.9184,-3.1302,-3.2593,-3.2593,-3.4409,-3.5504,-3.5504,-3.5504,-3.5504,-3.5504,-3.5504,-3.5504,-3.5504,-3.5943,-3.6753,-3.7806,-3.8262,-3.9049,-1.0805,-1.1376,-1.231,-1.0986,-0.9722,-0.8619,-0.7765,-0.6628,-0.5512,-0.4692,-0.4519,-0.4519,-0.4519,-0.4519,-0.4579,-0.4942,-0.503,-0.5657,-0.7405,-0.7145,-0.7421,-0.9052,-0.932,-1.0546,-1.3684,-1.5187,-1.6979,-1.9249,-1.9366,-1.9366,-1.9366,-2.0364,-2.0923,-2.0923,-2.0923,-2.0923,-2.0923,-1.9924,-2.0931,-2.3822,-2.3822,-2.538,-2.8291,-2.8291,-2.8291,-2.8291,-2.8291,-2.8291,-2.8291,-2.8291,-2.8291,-2.8291,-2.8291,-2.8037,-2.7627,-2.7324,-2.6855,-2.6348,-2.6035,-2.585,-2.5742,-2.5742,-2.5742,-2.5742,-2.5742,-2.5742,-2.5742,-2.5742,-2.6197,-2.721,-2.8947,-3.1235,-3.3081,-3.3081,-3.3081,-3.2968,-3.2554,-3.2466,-3.2303,-3.1738,-3.1336,-3.1035,-3.0871,-3.052,-3.0269,-3.0269,-3.0269,-3.0269,-3.0269,-3.0269,-3.0206,-3.0043,-3.0043,-2.9967,-2.9804,-3.1549,-3.2593,-3.2593,-3.4409,-3.5504,-3.5504,-3.5504,-3.5504,-3.5504,-3.5504,-3.5504,-3.5504,-3.6228,-3.7024,-3.7822,-3.858,-3.9193,-0.7816,-0.8228,-0.925,-0.7973,-0.7933,-0.7785,-0.6359,-0.6378,-0.6288,-0.4777,-0.4519,-0.4519,-0.4519,-0.4519,-0.457,-0.467,-0.5067,-0.5638,-0.6252,-0.6766,-0.7302,-0.7756,-0.9311,-1.1216,-1.3444,-1.7178,-1.9366,-1.9366,-1.9366,-1.9366,-1.9366,-1.9366,-1.9366,-1.9366,-1.9366,-1.9366,-1.9366,-1.9366,-2.0931,-2.3822,-2.3822,-2.538,-2.8291,-2.8291,-2.8291,-2.8291,-2.8291,-2.8291,-2.8291,-2.8291,-2.8291,-2.8291,-2.8291,-2.8037,-2.7666,-2.7656,-2.7119,-2.6387,-2.6387,-2.6103,-2.5742,-2.5742,-2.5742,-2.5742,-2.5742,-2.5742,-2.5742,-2.5742,-2.7484,-2.9407,-2.9407,-3.1235,-3.3081,-3.3081,-3.3081,-3.3081,-3.3068,-3.3068,-3.2893,-3.2315,-3.2202,-3.2026,-3.1474,-3.1373,-3.1373,-3.1373,-3.1373,-3.1373,-3.1373,-3.1373,-3.1173,-3.0658,-3.0608,-3.0382,-2.9842,-3.1549,-3.2593,-3.2593,-3.4409,-3.5504,-3.5504,-3.5504,-3.5504,-3.5504,-3.5504,-3.5504,-3.5504,-3.6228,-3.7024,-3.7822,-3.858,-3.8908,-0.7281,-0.7858,-0.8809,-0.712,-0.6616,-0.636,-0.572,-0.5524,-0.5303,-0.4647,-0.4519,-0.4519,-0.4519,-0.4519,-0.4704,-0.5213,-0.5423,-0.5725,-0.6322,-0.6922,-0.739,-0.7638,-1.0785,-1.3679,-1.5738,-1.8077,-1.9366,-1.9366,-1.9366,-1.9366,-1.9366,-1.9366,-1.9366,-1.9366,-1.9366,-1.9366,-1.9366,-2.0364,-2.1926,-2.3822,-2.482,-2.6381,-2.8291,-2.8291,-2.8291,-2.8291,-2.8291,-2.8291,-2.8291,-2.8291,-2.8291,-2.8291,-2.8291,-2.8213,-2.8057,-2.7773,-2.749,-2.7178,-2.6592,-2.6299,-2.6133,-2.583,-2.5742,-2.5742,-2.5742,-2.5742,-2.5742,-2.5742,-2.7484,-2.9407,-2.9407,-3.1235,-3.3081,-3.3081,-3.3081,-3.3081,-3.3081,-3.3081,-3.3018,-3.283,-3.2478,-3.2152,-3.1989,-3.1637,-3.1386,-3.1386,-3.1386,-3.1386,-3.1386,-3.1386,-3.1323,-3.116,-3.1148,-3.0783,-2.9867,-3.1549,-3.2593,-3.2593,-3.4409,-3.5504,-3.5504,-3.5504,-3.5504,-3.5504,-3.5504,-3.5504,-3.5504,-3.6768,-3.779,-3.858,-3.8799,-3.8342,-0.6233,-0.6834,-0.7571,-0.641,-0.5861,-0.5572,-0.5328,-0.5043,-0.4762,-0.457,-0.4519,-0.4519,-0.4519,-0.4519,-0.4694,-0.5165,-0.5345,-0.5644,-0.6302,-0.6861,-0.7836,-0.9409,-1.269,-1.554,-1.7328,-1.8641,-1.9366,-1.9366,-1.9366,-1.9366,-1.9366,-1.9366,-1.9366,-1.9366,-1.9366,-1.9366,-1.9366,-2.0809,-2.2363,-2.3822,-2.5371,-2.6825,-2.8291,-2.8291,-2.8291,-2.8291,-2.8291,-2.8291,0.0,-2.8291,-2.8291,-2.8291,-2.8291,-2.8291,-2.8262,-2.7998,-2.7803,-2.7568,-2.6865,-2.6523,-2.6318,-2.5879,-2.5742,-2.5742,-2.5742,-2.5742,-2.5742,-2.5742,-2.7484,-2.9407,-2.9407,-3.1235,-3.3081,-3.3081,-3.3081,-3.3081,-3.3081,-3.3081,-3.3081,-3.3081,-3.278,-3.2697,-3.3078,-3.288,-3.2787,-3.3167,-3.2868,-3.2649,-3.2649,-3.225,-3.1938,-3.1725,-3.17,-3.1498,-3.1073,-3.2152,-3.2985,-3.3115,-3.4624,-3.5504,-3.5504,-3.5504,-3.5504,-3.5504,-3.5504,-3.5504,-3.5504,-3.6768,-3.7732,-3.8469,-3.8173,-3.7526,0.0,-0.5355,-0.5691,-0.5691,-0.5484,-0.5247,-0.5114,-0.487,0.0,-0.4546,-0.4519,-0.4529,-0.456,-0.4549,-0.4611,-0.4782,-0.5047,-0.5488,-0.6234,-0.6736,-0.8394,-1.2317,-1.455,-1.6457,-1.8262,-1.9045,-1.9366,-1.9366,-1.9366,-1.9366,-1.9366,-1.9366,-1.9366,-1.9366,-1.9366,-1.9366,-1.9366,-2.0809,-2.2258,-2.371,-2.527,-2.6834,-2.8184,-2.8291,-2.8291,-2.8291,-2.8291,-2.8291,-2.8291,-2.8291,-2.8291,-2.8291,-2.8291,-2.8291,-2.8291,-2.8291,-2.8047,-2.7646,-2.7207,-2.6807,-2.6406,-2.5977,-2.581,-2.5781,-2.5781,-2.5762,-2.5742,-2.5742,-2.7484,-2.9407,-2.9407,-3.1235,-3.3081,-3.3081,-3.3081,-3.3081,-3.3081,-3.3154,-3.324,-3.324,-3.3227,-3.3641,-3.4664,-3.4828,-3.5129,-3.5974,-3.5278,-3.4664,-3.4581,-3.3713,-3.2867,-3.2328,-3.2277,-3.2441,-3.2975,-3.3335,-3.3673,-3.4059,-3.4979,-3.5549,-3.5504,-3.5504,-3.5504,-3.5504,-3.5504,-3.5519,-3.5629,-3.6352,-3.7074,-3.7849,-3.706,-3.6693,-0.407,0.0,-0.4381,-0.4555,-0.4505,-0.4528,0.0,-0.4565,-0.4563,-0.4525,-0.4519,-0.4568,-0.4911,-0.4789,-0.4948,-0.5898,-0.6112,-0.638,-0.7021,-0.7597,-0.8962,-1.1726,-1.3486,-1.5305,-1.7207,-1.8564,-1.9366,-1.9366,-1.9366,-1.9366,-1.9366,-1.9366,-1.9366,-1.9366,-1.9366,-1.9366,-1.9366,-2.0809,-2.1805,-2.2145,-2.482,-2.6273,-2.6636,-2.7745,-2.8291,-2.8291,-2.8291,-2.8291,-2.8291,-2.8291,-2.8291,-2.8291,-2.8291,-2.8291,-2.8291,-2.8291,-2.8232,-2.8086,-2.7666,-2.7451,-2.7295,-2.6855,-2.6494,-2.624,-2.624,-2.6006,-2.5742,-2.5742,-2.7484,-2.9407,-2.9407,-3.1235,-3.3081,-3.3081,-3.3081,-3.3081,-3.3081,-3.3713,-3.4345,-3.4345,-3.4966,-3.5574,-3.5814,-3.5814,-3.5668,-3.5129,-3.4815,-3.4428,-3.3556,-3.324,-3.3031,-3.288,-3.2867,-3.3051,-3.35,-3.3946,-3.4301,-3.4706,-3.5725,-3.6028,-3.5534,-3.5504,-3.5504,-3.5504,-3.5504,-3.6023,-3.7105,-3.7264,-3.7732,-3.8387,-3.8196,-3.7824,-0.3743,-0.3963,-0.418,-0.4291,-0.4399,-0.447,-0.4548,-0.457,-0.4519,-0.4519,-0.4519,-0.4558,-0.4756,-0.485,-0.5176,-0.6108,-0.6421,-0.6753,-0.7563,-0.926,-1.1032,-1.2687,-1.4837,-1.6631,-1.799,-1.8887,-1.9366,-1.9366,-1.9366,-1.9366,-1.9366,-1.9366,-1.9366,-1.9366,-1.9366,-1.9366,-1.9366,-2.0809,-2.1919,-2.2589,-2.4931,-2.6499,-2.7187,-2.796,-2.8291,-2.8291,-2.8291,-2.8291,-2.8291,-2.8291,-2.8291,-2.8291,-2.8291,-2.8291,-2.8291,-2.8291,-2.8291,-2.8232,-2.7812,-2.7539,-2.7295,-2.6865,-2.6572,-2.6357,-2.6152,-2.5928,-2.5742,-2.5742,-2.7115,-2.868,-2.9223,-3.0777,-3.2339,-3.2982,-3.3081,-3.3081,-3.3081,-3.3953,-3.4664,-3.4664,-3.5507,-3.6369,-3.6852,-3.6526,-3.6212,-3.616,-3.5305,-3.4511,-3.3869,-3.3398,-3.3081,-3.3081,-3.3081,-3.3356,-3.4065,-3.4366,-3.4796,-3.541,-3.6389,-3.6626,-3.5983,-3.5953,-3.5953,-3.5953,-3.6237,-3.6721,-3.7486,-3.7486,-3.7669,-3.805,-3.805,-3.7797,-0.3636,-0.4063,-0.4536,-0.4467,-0.4528,-0.4657,-0.4657,-0.4555,-0.4525,-0.4494,-0.4497,-0.4519,-0.4584,-0.4816,-0.5196,-0.5985,-0.6455,-0.701,-0.7974,-1.068,-1.2851,-1.3546,-1.6287,-1.8354,-1.8886,-1.9216,-1.9366,-1.9366,-1.9366,-1.9366,-1.9366,-1.9366,-1.9366,-1.9366,-1.9366,-1.9366,-1.9366,-2.0809,-2.2258,-2.3487,-2.5261,-2.6717,-2.795,-2.8184,-2.8291,-2.8291,-2.8291,-2.8291,-2.8291,-2.8291,-2.8291,-2.8291,-2.8291,-2.8291,-2.8291,-2.8291,-2.8291,-2.8232,-2.7812,-2.7383,-2.6953,-2.6602,-2.6435,-2.6318,-2.5947,-2.5791,-2.5742,-2.5742,-2.6754,-2.8132,-2.9131,-3.0406,-3.1777,-3.2797,-3.3081,-3.3154,-3.3313,-3.4191,-3.4979,-3.5142,-3.5987,-3.693,-3.7663,-3.7021,-3.6618,-3.7266,-3.5855,-3.4664,-3.4511,-3.3628,-3.3081,-3.3081,-3.3081,-3.3471,-3.4345,-3.4581,-3.4955,-3.5702,-3.6731,-3.7133,-3.6656,-3.6626,-3.6626,-3.6626,-3.715,-3.7464,-3.7554,-3.7554,-3.7614,-3.7719,-3.7719,-3.7719,-0.3883,-0.4297,-0.4565,-0.4182,-0.4294,-0.4553,-0.4553,-0.4536,-0.4501,-0.4521,-0.4493,-0.4623,-0.4965,-0.4672,-0.4885,-0.6476,-0.7234,-0.7794,-0.8336,-1.0023,-1.1366,-1.1694,-1.4591,-1.6767,-1.696,-1.8384,-1.9366,-1.9366,-1.9366,-1.9366,-1.9366,-1.9366,-1.9366,-1.9366,-1.9366,-1.9366,-1.9366,-2.0809,-2.1692,-2.1919,-2.4812,-2.6264,-2.649,-2.7726,-2.8291,-2.8291,-2.8291,-2.8291,-2.8291,-2.8291,-2.8291,-2.8291,-2.8291,-2.8291,-2.8291,-2.8291,-2.8291,-2.8232,-2.7812,-2.7383,-2.7002,-2.6943,-2.668,-2.6377,-2.6309,-2.6035,-2.5742,-2.5742,-2.7389,-2.9131,-2.9315,-3.1057,-3.2884,-3.3068,-3.3081,-3.3313,-3.4275,-3.5278,-3.6212,-3.7112,-3.8144,-3.8694,-3.7919,-3.7663,-3.7035,-3.5453,-3.491,-3.4345,-3.3484,-3.324,-3.3081,-3.3081,-3.3081,-3.3154,-3.3313,-3.4191,-3.4749,-3.4888,-3.6155,-3.7023,-3.7216,-3.727,-3.727,-3.727,-3.736,-3.7689,-3.8242,-3.8242,-3.8542,-3.911,-3.911,-3.911,-0.3748,-0.4111,-0.4419,-0.429,-0.4667,-0.505,-0.5027,-0.5009,-0.4992,-0.5085,-0.5118,-0.4932,-0.4514,-0.5045,-0.5981,-0.7299,-0.7828,-0.8187,-0.8554,-1.0555,-1.2131,-1.2543,-1.5472,-1.7559,-1.7837,-1.8718,-1.9366,-1.9366,-1.9366,-1.9366,-1.9366,-1.9366,-1.9366,-1.9366,-1.9366,-1.9366,-1.9366,-2.1593,-2.2363,-2.1699,-2.4701,-2.6155,-2.6155,-2.7618,-2.8291,-2.8291,-2.8291,-2.8291,-2.8291,-2.8291,-2.8291,-2.8291,-2.8291,-2.8291,-2.8262,-2.8037,-2.7959,-2.7891,-2.7461,-2.7178,-2.6973,-2.6758,-2.6543,-2.6348,-2.6113,-2.5898,-2.5742,-2.5742,-2.703,-2.8588,-2.9223,-3.0687,-3.2239,-3.2982,-3.3081,-3.3398,-3.4511,-3.5521,-3.6526,-3.7587,-3.8234,-3.8383,-3.7904,-3.688,-3.5775,-3.4828,-3.4191,-3.3628,-3.3154,-3.3081,-3.3081,-3.3081,-3.3081,-3.3081,-3.3081,-3.3556,-3.4594,-3.6253,-3.6656,-3.7172,-3.7874,-3.7943,-3.7943,-3.7943,-3.8302,-3.8646,-3.8945,-3.8945,-3.911,-3.9424,-3.9424,-3.9424,-0.3666,-0.3985,-0.4334,-0.448,-0.4952,-0.5393,-0.545,-0.5476,-0.5443,-0.5739,-0.58,-0.5583,-0.4828,-0.5894,-0.7129,-0.796,-0.8221,-0.8515,-0.9094,-1.1491,-1.3347,-1.4025,-1.6625,-1.847,-1.8698,-1.8991,-1.9192,-1.9259,-1.9265,-1.9292,-1.9366,-1.9366,-1.9366,-1.9366,-1.9366,-1.9366,-1.9366,-2.1934,-2.2702,-2.1699,-2.5041,-2.6273,-2.5599,-2.7501,-2.8067,-2.7843,-2.8174,-2.8291,-2.8291,-2.8291,-2.8291,-2.8291,-2.8291,-2.8232,-2.8096,-2.7666,-2.7451,-2.7314,-2.6982,-2.6807,-2.666,-2.6348,-2.624,-2.6172,-2.584,-2.5742,-2.5742,-2.5742,-2.6849,-2.8226,-2.9131,-3.0496,-3.1865,-3.2884,-3.3081,-3.3484,-3.4733,-3.5668,-3.6526,-3.7587,-3.7829,-3.7677,-3.7204,-3.5775,-3.4581,-3.4345,-3.3641,-3.3081,-3.3081,-3.3081,-3.3081,-3.3081,-3.3081,-3.3081,-3.3081,-3.3081,-3.4345,-3.7266,-3.7189,-3.7536,-3.856,-3.8631,-3.8631,-3.8631,-3.9155,-3.9424,-3.9424,-3.9424,-3.9424,-3.9424,-3.9424,-3.9424,-0.3914,-0.4212,-0.4539,-0.4636,-0.4714,-0.4935,-0.5613,-0.5559,-0.5562,-0.6119,-0.6424,-0.6558,-0.6808,-0.7118,-0.7529,-0.8153,-0.8374,-0.9043,-1.0478,-1.2257,-1.3788,-1.5114,-1.6895,-1.809,-1.811,-1.8377,-1.8664,-1.8938,-1.8958,-1.9078,-1.9352,-1.9366,-1.9366,-1.9366,-1.9366,-1.9366,-1.9366,-2.0923,-2.1692,-2.1699,-2.6045,-2.6726,-2.4044,-2.6952,-2.7501,-2.6372,-2.7726,-2.8291,-2.8291,-2.8291,-2.8291,-2.8291,-2.8291,-2.8057,-2.7656,-2.7217,-2.6816,-2.6475,-2.6445,-2.6172,-2.582,-2.5791,-2.5781,-2.5781,-2.5752,-2.5742,-2.5742,-2.5742,-2.7389,-2.9315,-2.9407,-3.1146,-3.2982,-3.3068,-3.3081,-3.3628,-3.5654,-3.6119,-3.6526,-3.7587,-3.7829,-3.7204,-3.5224,-3.4828,-3.4345,-3.3398,-3.3154,-3.3081,-3.3081,-3.3081,-3.3081,-3.3081,-3.3081,-3.3081,-3.3081,-3.3081,-3.4024,-3.6212,-3.721,-3.8235,-3.9262,-3.9349,-3.9349,-3.9349,-3.9394,-3.9424,-3.9424,-3.9424,-3.9424,-3.9424,-3.9424,-3.9424,-0.3717,-0.4097,-0.4501,-0.4541,-0.4844,-0.5254,-0.5817,-0.6,-0.624,-0.6902,-0.7037,-0.72,-0.7447,-0.7629,-0.778,-0.8201,-0.8391,-0.9053,-1.069,-1.2266,-1.3804,-1.5204,-1.6971,-1.805,-1.805,-1.8317,-1.8537,-1.8644,-1.8651,-1.8704,-1.8818,-1.8824,-1.8824,-1.8824,-1.8998,-1.9092,-1.9092,-2.0708,-2.1145,-2.0256,-2.3822,-2.4931,-2.3822,-2.5936,-2.7159,-2.7501,-2.8067,-2.8291,-2.8291,-2.8291,-2.8135,-2.7881,-2.7607,-2.7402,-2.7207,-2.6787,-2.6523,-2.6348,-2.6084,-2.5879,-2.5742,-2.5742,-2.5742,-2.5742,-2.5742,-2.5742,-2.5742,-2.5742,-2.6935,-2.8402,-2.9223,-3.1235,-3.3081,-3.3081,-3.3081,-3.3471,-3.4966,-3.5278,-3.5601,-3.6618,-3.6318,-3.5615,-3.4828,-3.4108,-3.3556,-3.3154,-3.3081,-3.3081,-3.3081,-3.3081,-3.3081,-3.3081,-3.3081,-3.3081,-3.3081,-3.3713,-3.4733,-3.6119,-3.6604,-3.7572,-3.9337,-3.9424,-3.9424,-3.9424,-3.9424,-3.9424,-3.9424,-3.9424,-3.9424,-3.9424,-3.9424,-3.9424,-0.3694,-0.4065,-0.445,-0.4531,-0.4718,-0.5102,-0.5885,-0.6324,-0.6742,-0.7448,-0.7556,-0.7691,-0.7838,-0.7845,-0.7926,-0.8279,-0.8418,-0.9282,-1.1407,-1.2632,-1.4019,-1.5849,-1.7116,-1.7903,-1.7903,-1.8083,-1.8243,-1.8343,-1.835,-1.839,-1.8484,-1.849,-1.849,-1.849,-1.8684,-1.8784,-1.8784,-1.997,-2.0076,-1.9092,-2.1182,-2.2116,-2.2328,-2.4749,-2.6126,-2.6561,-2.7449,-2.7891,-2.7891,-2.7891,-2.7725,-2.7412,-2.6982,-2.6816,-2.6768,-2.6338,-2.6182,-2.6143,-2.584,-2.5742,-2.5742,-2.5742,-2.5742,-2.5742,-2.5742,-2.5742,-2.5742,-2.5742,-2.6668,-2.7767,-2.8588,-3.0687,-3.2513,-3.2513,-3.2797,-3.3398,-3.4511,-3.4664,-3.4897,-3.5588,-3.521,-3.4594,-3.4275,-3.3556,-3.3081,-3.3081,-3.3081,-3.3081,-3.3081,-3.3081,-3.3081,-3.3081,-3.3081,-3.3081,-3.3081,-3.4108,-3.5129,-3.6132,-3.6526,-3.7496,-3.9337,-3.9424,-3.9424,-3.9424,-3.9424,-3.9424,-3.9424,-3.9424,-3.9424,-3.9424,-3.9424,-3.9538,-0.3936,-0.4029,-0.4284,-0.4623,-0.4275,-0.4343,-0.595,-0.6549,-0.6963,-0.7784,-0.7957,-0.799,-0.8018,-0.7916,-0.796,-0.8404,-0.8479,-0.9633,-1.2876,-1.3264,-1.4341,-1.7259,-1.7582,-1.7582,-1.7582,-1.7582,-1.7709,-1.8016,-1.8043,-1.817,-1.8464,-1.8484,-1.8484,-1.8484,-1.8484,-1.849,-1.849,-1.849,-1.849,-1.849,-1.849,-1.8637,-1.9025,-2.3378,-2.4367,-2.2855,-2.5731,-2.7012,-2.7012,-2.7012,-2.7012,-2.6973,-2.6543,-2.6387,-2.6328,-2.5898,-2.5742,-2.5742,-2.5742,-2.5742,-2.5742,-2.5742,-2.5742,-2.5742,-2.5742,-2.5742,-2.5742,-2.5742,-2.6572,-2.7589,-2.7589,-2.9407,-3.1223,-3.1223,-3.214,-3.3398,-3.4428,-3.4664,-3.4664,-3.4664,-3.4664,-3.4345,-3.3326,-3.3081,-3.3081,-3.3081,-3.3081,-3.3081,-3.3081,-3.3081,-3.3081,-3.3081,-3.3081,-3.3081,-3.3081,-3.4108,-3.5129,-3.6119,-3.7252,-3.8308,-3.9337,-3.9424,-3.9424,-3.9424,-3.9424,-3.9424,-3.9424,-3.9424,-3.9424,-3.9424,-3.9424,-3.9864,-0.4222,-0.4365,-0.4346,-0.4019,-0.4671,-0.5683,-0.6922,-0.7121,-0.7207,-0.7906,-0.8014,-0.7994,-0.8031,-0.8001,-0.8014,-0.815,-0.9259,-1.0685,-1.268,-1.4022,-1.5524,-1.7364,-1.7582,-1.7582,-1.7582,-1.7582,-1.7622,-1.7716,-1.7722,-1.7756,-1.7849,-1.7849,-1.7849,-1.7849,-1.8063,-1.8183,-1.8183,-1.8384,-1.849,-1.849,-1.849,-1.9064,-2.0215,-2.2468,-2.3805,-2.4437,-2.6266,-2.7012,-2.6992,-2.6699,-2.6572,-2.6533,-2.6094,-2.5937,-2.5918,-2.5781,-2.5742,-2.5742,-2.5742,-2.5742,-2.5742,-2.5742,-2.5742,-2.5742,-2.5742,-2.5742,-2.5742,-2.5742,-2.6014,-2.6294,-2.6294,-2.8121,-3.0135,-3.1045,-3.214,-3.3154,-3.3471,-3.3556,-3.3556,-3.3556,-3.3556,-3.3471,-3.3154,-3.3081,-3.3081,-3.3081,-3.3081,-3.3081,-3.3081,-3.3081,-3.3081,-3.3081,-3.3081,-3.3398,-3.4191,-3.5197,-3.6225,-3.7266,-3.8308,-3.9104,-3.9424,-3.9424,-3.9424,-3.9424,-3.9424,-3.9424,-3.9424,-3.9424,-3.9424,-3.9424,-3.9424,-3.9864,-0.405,-0.4494,-0.4439,-0.4191,-0.5291,-0.6347,-0.6113,-0.6731,-0.7523,-0.7882,-0.7952,-0.8048,-0.8041,-0.8038,-0.8058,-0.8123,-0.8984,-1.0463,-1.2485,-1.3744,-1.5153,-1.7193,-1.7515,-1.7582,-1.7582,-1.7582,-1.7582,-1.7582,-1.7582,-1.7582,-1.7582,-1.7582,-1.7582,-1.7582,-1.7762,-1.7862,-1.7862,-1.8036,-1.813,-1.813,-1.813,-1.8651,-1.9592,-2.1518,-2.3184,-2.4608,-2.5872,-2.6504,-2.6484,-2.624,-2.6133,-2.6103,-2.584,-2.5742,-2.5742,-2.5742,-2.5742,-2.5742,-2.5742,-2.5742,-2.5742,-2.5742,-2.5742,-2.5742,-2.5742,-2.5742,-2.5742,-2.5742,-2.5742,-2.5742,-2.5742,-2.7579,-2.959,-3.0316,-3.1789,-3.3081,-3.3081,-3.3081,-3.3081,-3.3081,-3.3081,-3.3081,-3.3081,-3.3081,-3.3081,-3.3081,-3.3081,-3.3081,-3.3081,-3.3081,-3.3081,-3.3081,-3.3081,-3.3556,-3.4581,-3.5588,-3.6682,-3.7753,-3.8782,-3.9424,-3.9424,-3.9424,-3.9424,-3.9424,-3.9424,-3.9424,-3.9424,-3.9424,-3.9424,-3.9424,-3.9737,-4.0378,-0.3755,-0.4552,-0.4614,-0.464,-0.5867,-0.6518,-0.4117,-0.5674,-0.7679,-0.7975,-0.7972,-0.7962,-0.8041,-0.8038,-0.8085,-0.8225,-0.8361,-0.943,-1.2235,-1.2961,-1.4162,-1.6929,-1.7382,-1.7555,-1.7582,-1.7582,-1.7582,-1.7582,-1.7582,-1.7582,-1.7582,-1.7582,-1.7582,-1.7582,-1.7582,-1.7582,-1.7582,-1.7582,-1.7582,-1.7582,-1.7582,-1.7687,-1.7898,-2.0771,-2.2698,-2.3998,-2.5128,-2.5742,-2.5742,-2.5742,-2.5742,-2.5742,-2.5742,-2.5742,-2.5742,-2.5742,-2.5742,-2.5742,-2.5742,-2.5742,-2.5742,-2.5742,-2.5742,-2.5742,-2.5742,-2.5742,-2.5742,-2.5742,-2.5742,-2.5742,-2.5742,-2.7579,-2.9407,-2.9407,-3.1323,-3.3081,-3.3081,-3.3081,-3.3081,-3.3081,-3.3081,-3.3081,-3.3081,-3.3081,-3.3081,-3.3081,-3.3081,-3.3081,-3.3081,-3.3081,-3.3081,-3.3081,-3.3154,-3.3713,-3.4746,-3.5748,-3.6774,-3.7904,-3.887,-3.9424,-3.9424,-3.9424,-3.9424,-3.9424,-3.9424,-3.9424,-3.9424,-3.9424,-3.9409,-3.9553,-4.0309,-4.1213,-0.4303,-0.484,-0.4833,-0.3158,-0.493,-0.65,-0.4169,-0.4221,-0.5432,-0.7563,-0.7959,-0.8045,-0.8041,-0.8038,-0.8052,-0.8082,-0.9086,-1.0487,-1.2239,-1.3549,-1.5113,-1.7012,-1.7201,-1.7335,-1.7562,-1.7582,-1.7582,-1.7582,-1.7582,-1.7582,-1.7582,-1.7582,-1.7582,-1.7582,-1.7582,-1.7582,-1.7582,-1.7582,-1.7582,-1.7582,-1.7582,-1.8199,-1.922,-2.1027,-2.3055,-2.5333,-2.5538,-2.5742,-2.5742,-2.5742,-2.5742,-2.5742,-2.5742,-2.5742,-2.5742,-2.5742,-2.5742,-2.5742,-2.5742,-2.5742,-2.5742,-2.5742,-2.5742,-2.5742,-2.5742,-2.5742,-2.5742,-2.5742,-2.5742,-2.5742,-2.5742,-2.7579,-2.9407,-2.9407,-3.1323,-3.3081,-3.3081,-3.3081,-3.3081,-3.3081,-3.3081,-3.3081,-3.3081,-3.3081,-3.3081,-3.3081,-3.3081,-3.3081,-3.3081,-3.3081,-3.3081,-3.3081,-3.3882,-3.4733,-3.5814,-3.6866,-3.7904,-3.9017,-3.9265,-3.9424,-3.9424,-3.9424,-3.9424,-3.9424,-3.9424,-3.9424,-3.9424,-3.9424,-3.9737,-4.0432,-4.0622,-4.1543,-0.2336,-0.2551,-0.2578,-0.1438,-0.419,-0.6184,-0.2676,-0.3001,-0.4722,-0.7469,-0.7959,-0.8038,-0.8038,-0.8038,-0.8237,-0.8825,-0.9685,-1.0929,-1.2801,-1.3998,-1.512,-1.6607,-1.6854,-1.6994,-1.7148,-1.7288,-1.7375,-1.7375,-1.7502,-1.7582,-1.7582,-1.7582,-1.7582,-1.7582,-1.7582,-1.7582,-1.7582,-1.7582,-1.7582,-1.7582,-1.7582,-1.8297,-1.9627,-2.176,-2.3384,-2.4716,-2.4716,-2.5128,-2.5635,-2.502,-2.5118,-2.5742,-2.5742,-2.5742,-2.5742,-2.5742,-2.5742,-2.5742,-2.5742,-2.5742,-2.5742,-2.5742,-2.5742,-2.5742,-2.5742,-2.5742,-2.5742,-2.5742,-2.5742,-2.5742,-2.5742,-2.7579,-2.9407,-2.9407,-3.1323,-3.3081,-3.3081,-3.3081,-3.3081,-3.3081,-3.3081,-3.3081,-3.3081,-3.3081,-3.3081,-3.3081,-3.3081,-3.3081,-3.3081,-3.3081,-3.3313,-3.3797,-3.4345,-3.5292,-3.6852,-3.751,-3.8234,-3.9337,-3.9424,-3.9424,-3.9424,-3.9424,-3.9424,-3.9424,-3.9424,-3.961,-4.006,-4.006,-4.0432,-4.133,-4.1739,-4.2458,-0.0,-0.0,-0.0,-0.0,-0.3,-0.4869,-0.0879,-0.208,-0.4806,-0.7469,-0.7962,-0.8038,-0.8038,-0.8038,-0.8432,-0.9801,-0.9998,-1.0872,-1.3488,-1.4054,-1.471,-1.6162,-1.6486,-1.6653,-1.67,-1.6927,-1.7074,-1.7074,-1.7295,-1.7428,-1.7428,-1.7428,-1.7455,-1.7508,-1.7508,-1.7528,-1.7582,-1.7582,-1.7582,-1.7582,-1.7582,-1.8199,-1.9324,-2.1862,-2.3076,-2.3384,-2.3592,-2.4304,-2.5333,-2.4402,-2.4716,-2.5742,-2.5742,-2.5742,-2.5742,-2.5742,-2.5742,-2.5742,-2.5742,-2.5742,-2.5742,-2.5742,-2.5742,-2.5742,-2.5742,-2.5742,-2.5742,-2.5742,-2.5742,-2.5742,-2.5742,-2.7579,-2.9407,-2.9407,-3.1323,-3.3081,-3.3081,-3.3081,-3.3081,-3.3081,-3.3081,-3.3081,-3.3081,-3.3081,-3.3081,-3.3081,-3.3081,-3.3081,-3.3081,-3.324,-3.3713,-3.4581,-3.4979,-3.5935,-3.7677,-3.7994,-3.8472,-3.9337,-3.9424,-3.9424,-3.9424,-3.9424,-3.9424,-3.9424,-3.9424,-3.9864,-4.069,-4.069,-4.1213,-4.2252,-4.297,-4.3306,-0.0,-0.0,-0.0,-0.0,-0.0444,-0.0828,-0.0097,-0.206,-0.4736,-0.7453,-0.7962,-0.8038,-0.8038,-0.8038,-0.8432,-0.9801,-0.9998,-1.0872,-1.3488,-1.3902,-1.4503,-1.6142,-1.6306,-1.6426,-1.668,-1.674,-1.6767,-1.6767,-1.68,-1.682,-1.682,-1.682,-1.6941,-1.7201,-1.7208,-1.7328,-1.7582,-1.7582,-1.7582,-1.7582,-1.7582,-1.7687,-1.7891,-1.942,-2.0845,-2.2055,-2.3176,-2.3791,-2.3998,-2.502,-2.5538,-2.5742,-2.5742,-2.5742,-2.5742,-2.5742,-2.5742,-2.5742,-2.5742,-2.5742,-2.5742,-2.5742,-2.5742,-2.5742,-2.5742,-2.5742,-2.5742,-2.5742,-2.5742,-2.5742,-2.5742,-2.7579,-2.9407,-2.9407,-3.1323,-3.3081,-3.3081,-3.3081,-3.3081,-3.3081,-3.3081,-3.3081,-3.3081,-3.3081,-3.3081,-3.3081,-3.3081,-3.3081,-3.3081,-3.3869,-3.4511,-3.4664,-3.6332,-3.751,-3.7753,-3.8634,-3.9265,-3.9424,-3.9424,-3.9424,-3.9424,-3.9424,-3.9424,-3.9424,-3.9424,-3.9864,-4.069,-4.069,-4.1543,-4.3108,-4.3246,-4.3306,-0.0,-0.0,-0.0,-0.0,-0.0,-0.0,-0.0,-0.0954,-0.2929,-0.7134,-0.8001,-0.8038,-0.8038,-0.8038,-0.8627,-1.0779,-1.1072,-1.194,-1.4561,-1.4949,-1.5191,-1.5909,-1.6025,-1.6079,-1.6199,-1.6366,-1.6466,-1.6466,-1.6613,-1.6707,-1.6707,-1.6707,-1.6767,-1.6901,-1.6901,-1.6961,-1.7088,-1.7255,-1.7422,-1.7582,-1.7582,-1.7582,-1.7582,-1.8199,-1.922,-2.0538,-2.1151,-2.1862,-2.2667,-2.3176,-2.389,-2.4609,-2.543,-2.5742,-2.5742,-2.5742,-2.5742,-2.5742,-2.5742,-2.5742,-2.5742,-2.5742,-2.5742,-2.5742,-2.5742,-2.5742,-2.5742,-2.5742,-2.5742,-2.583,-2.6572,-2.8038,-2.959,-3.0226,-3.1777,-3.3081,-3.3081,-3.3081,-3.3081,-3.3081,-3.3081,-3.3081,-3.3081,-3.3081,-3.3081,-3.3081,-3.3081,-3.3081,-3.3081,-3.4037,-3.4897,-3.5521,-3.6866,-3.8069,-3.8634,-3.9104,-3.9424,-3.9424,-3.9424,-3.9424,-3.9424,-3.9424,-3.9424,-3.9424,-3.9424,-3.9864,-4.069,-4.069,-4.1346,-4.2583,-4.2583,-4.2583,-0.0,-0.0,-0.0,-0.0,-0.0,-0.0339,-0.1496,-0.1841,-0.2959,-0.7081,-0.7865,-0.794,-0.7974,-0.8014,-0.8726,-1.1068,-1.1658,-1.2721,-1.4949,-1.5629,-1.5832,-1.5832,-1.5832,-1.5832,-1.5832,-1.6032,-1.6159,-1.6159,-1.6359,-1.648,-1.648,-1.648,-1.6513,-1.6593,-1.66,-1.6627,-1.6707,-1.6927,-1.7181,-1.7475,-1.7475,-1.7508,-1.7582,-1.7582,-1.8199,-1.9117,-1.9428,-2.0238,-2.1143,-2.155,-2.2458,-2.3791,-2.4815,-2.543,-2.5742,-2.5742,-2.5742,-2.5742,-2.5742,-2.5742,-2.5742,-2.5742,-2.5742,-2.5742,-2.5742,-2.5742,-2.5742,-2.5742,-2.5742,-2.6014,-2.7315,-2.8495,-2.9681,-3.0944,-3.214,-3.3081,-3.3081,-3.3081,-3.3081,-3.3081,-3.3081,-3.3081,-3.3081,-3.3081,-3.3081,-3.3081,-3.3081,-3.324,-3.3471,-3.4428,-3.544,-3.6526,-3.7572,-3.8546,-3.9337,-3.9424,-3.9424,-3.9424,-3.9424,-3.9424,-3.9424,-3.9424,-3.9424,-3.9424,-3.9424,-3.9864,-4.069,-4.069,-4.128,-4.2316,-4.2316,-4.2189,-0.0,-0.0,-0.0,-0.0,-0.0,-0.1172,-0.5661,-0.676,-0.6931,-0.7476,-0.7628,-0.7662,-0.7797,-0.794,-0.8432,-0.9899,-1.1072,-1.2431,-1.3776,-1.5045,-1.5832,-1.5832,-1.5832,-1.5832,-1.5832,-1.5845,-1.5852,-1.5852,-1.5865,-1.5872,-1.5872,-1.5872,-1.6005,-1.6286,-1.6293,-1.6426,-1.67,-1.672,-1.6881,-1.7174,-1.7174,-1.7315,-1.7582,-1.7582,-1.7687,-1.7786,-1.9013,-1.9627,-1.9834,-2.1143,-2.2458,-2.3692,-2.3791,-2.4609,-2.5742,-2.5742,-2.5742,-2.5742,-2.5742,-2.5742,-2.5742,-2.5742,-2.5742,-2.5742,-2.5742,-2.5742,-2.5742,-2.5742,-2.5742,-2.6014,-2.7315,-2.8495,-2.9681,-3.0944,-3.214,-3.3081,-3.3081,-3.3081,-3.3081,-3.3081,-3.3081,-3.3081,-3.3081,-3.3081,-3.3081,-3.3081,-3.3081,-3.3471,-3.4511,-3.5507,-3.6526,-3.7587,-3.8708,-3.9337,-3.9424,-3.9424,-3.9424,-3.9424,-3.9424,-3.9424,-3.9424,-3.9424,-3.9424,-3.9424,-3.9424,-3.9864,-4.069,-4.069,-4.1593,-4.3229,-4.3229,-4.2785,-0.0,-0.0,-0.0,-0.0,-0.0,-0.0431,-0.2188,-0.4894,-0.7152,-0.7272,-0.7302,-0.7399,-0.7648,-0.7794,-0.8601,-1.0854,-1.1556,-1.2624,-1.4854,-1.5534,-1.5832,-1.5832,-1.5832,-1.5832,-1.5832,-1.5832,-1.5832,-1.5832,-1.5832,-1.5832,-1.5832,-1.5832,-1.5879,-1.5985,-1.5985,-1.6132,-1.6426,-1.6426,-1.6573,-1.6867,-1.6867,-1.6921,-1.7021,-1.7021,-1.7021,-1.7021,-1.7516,-1.7935,-1.8401,-1.9826,-2.0641,-2.1151,-2.2064,-2.2667,-2.3276,-2.4097,-2.4402,-2.451,-2.543,-2.5742,-2.5742,-2.5742,-2.5742,-2.5742,-2.5742,-2.5742,-2.5742,-2.5742,-2.6294,-2.721,-2.8402,-2.9681,-3.0866,-3.214,-3.2797,-3.3081,-3.3081,-3.3081,-3.3081,-3.3081,-3.3081,-3.3081,-3.3081,-3.3081,-3.3081,-3.3081,-3.3081,-3.3471,-3.4594,-3.5047,-3.5601,-3.6682,-3.7738,-3.8383,-3.8383,-3.9017,-3.9424,-3.9424,-3.9424,-3.9424,-3.9424,-3.9424,-3.9424,-3.9424,-3.9424,-3.9538,-3.9864,-4.0432,-4.1013,-4.1658,-4.2205,-4.2332,0.1153,0.0613,-0.0,-0.0,-0.0,-0.0,-0.0,-0.2473,-0.5122,-0.6525,-0.7007,-0.7182,-0.7417,-0.7563,-0.8482,-1.0826,-1.1545,-1.263,-1.4841,-1.5534,-1.5832,-1.5832,-1.5832,-1.5832,-1.5832,-1.5832,-1.5832,-1.5832,-1.5832,-1.5832,-1.5832,-1.5832,-1.5832,-1.5832,-1.5832,-1.5925,-1.6119,-1.6126,-1.6273,-1.656,-1.656,-1.6613,-1.6707,-1.6707,-1.6707,-1.6707,-1.6707,-1.6927,-1.7398,-1.8412,-1.906,-1.958,-2.0594,-2.1245,-2.1837,-2.252,-2.3269,-2.3773,-2.4654,-2.5208,-2.5742,-2.5742,-2.5742,-2.5742,-2.5742,-2.5742,-2.5742,-2.5742,-2.6294,-2.7305,-2.8947,-3.0586,-3.2052,-3.2896,-3.3081,-3.3081,-3.3081,-3.3081,-3.3081,-3.3081,-3.3081,-3.3081,-3.3081,-3.3081,-3.3081,-3.3081,-3.3081,-3.3471,-3.4594,-3.4664,-3.5047,-3.6119,-3.7175,-3.7829,-3.7829,-3.8782,-3.9424,-3.9424,-3.9424,-3.9424,-3.9424,-3.9424,-3.9424,-3.9424,-3.9424,-3.9538,-3.9864,-4.0432,-4.0878,-4.1147,-4.2062,-4.2252,0.0,0.0,0.0,-0.0,-0.0,-0.0,-0.0,-0.0,-0.1181,-0.5334,-0.6712,-0.7052,-0.7102,-0.7251,-0.7905,-0.9535,-1.0834,-1.2247,-1.3736,-1.5032,-1.5818,-1.5832,-1.5832,-1.5832,-1.5832,-1.5832,-1.5832,-1.5832,-1.5832,-1.5832,-1.5832,-1.5832,-1.5832,-1.5832,-1.5832,-1.5832,-1.5832,-1.5832,-1.5972,-1.6259,-1.6259,-1.6406,-1.668,-1.668,-1.668,-1.668,-1.668,-1.668,-1.67,-1.7007,-1.7939,-1.9164,-1.9375,-2.0302,-2.1476,-2.1313,-2.2214,-2.3601,-2.3417,-2.4341,-2.5693,-2.5693,-2.5713,-2.5713,-2.5713,-2.5723,-2.5742,-2.5742,-2.5732,-2.638,-2.8855,-3.1335,-3.3081,-3.3081,-3.3081,-3.3081,-3.3081,-3.3081,-3.3081,-3.3081,-3.3081,-3.3081,-3.3081,-3.3081,-3.3081,-3.3081,-3.3081,-3.3471,-3.4594,-3.4664,-3.5047,-3.6132,-3.7098,-3.7753,-3.7829,-3.8782,-3.9424,-3.9424,-3.9424,-3.9424,-3.9424,-3.9424,-3.9424,-3.9424,-3.9424,-3.9864,-4.069,-4.0758,-4.1213,-4.2062,-4.2925,-4.2847,0.3423,0.0,0.0,0.0,0.0,0.0,-0.0,-0.0,-0.0736,-0.3454,-0.5369,-0.6569,-0.6756,-0.6858,-0.7408,-0.9051,-1.0524,-1.2286,-1.4615,-1.5325,-1.5591,-1.5805,-1.5832,-1.5832,-1.5832,-1.5832,-1.5832,-1.5832,-1.5832,-1.5832,-1.5832,-1.5832,-1.5832,-1.5832,-1.5832,-1.5832,-1.5832,-1.5832,-1.5872,-1.5952,-1.5952,-1.5992,-1.6072,-1.6072,-1.6072,-1.6072,-1.6072,-1.6072,-1.6112,-1.662,-1.7022,-1.7431,-1.7507,-1.7736,-1.8311,-2.0077,-2.1075,-2.1733,-2.3476,-2.4388,-2.4785,-2.4785,-2.5,-2.5254,-2.5254,-2.5478,-2.5742,-2.5742,-2.702,-2.8947,-3.1424,-3.2612,-3.3081,-3.3081,-3.3081,-3.3081,-3.3081,-3.3081,-3.3081,-3.3081,-3.3081,-3.3081,-3.3081,-3.3081,-3.3081,-3.3081,-3.3081,-3.3471,-3.4594,-3.4037,-3.4262,-3.6053,-3.6448,-3.6944,-3.7753,-3.8782,-3.9424,-3.9424,-3.9424,-3.9424,-3.9424,-3.9424,-3.9424,-3.9424,-3.999,-4.0432,-4.069,-4.133,-4.2062,-4.2986,-4.3185,-4.2847,0.3742,0.275,0.1516,0.149,0.0,0.0,-0.0,-0.0,-0.0491,-0.2346,-0.4506,-0.6119,-0.6281,-0.6478,-0.7069,-0.8501,-0.9538,-1.1184,-1.4116,-1.4937,-1.5277,-1.5444,-1.5578,-1.5651,-1.5651,-1.5758,-1.5832,-1.5832,-1.5832,-1.5832,-1.5832,-1.5832,-1.5832,-1.5832,-1.5832,-1.5832,-1.5832,-1.5832,-1.5832,-1.5832,-1.5832,-1.5832,-1.5832,-1.5832,-1.5832,-1.5832,-1.5832,-1.5832,-1.5852,-1.6199,-1.6413,-1.6533,-1.666,-1.6707,-1.6887,-1.8873,-1.9966,-2.0841,-2.2787,-2.3798,-2.4414,-2.4414,-2.459,-2.4795,-2.4795,-2.498,-2.5225,-2.54,-2.7327,-2.9772,-3.1146,-3.2339,-3.3081,-3.3081,-3.3081,-3.3081,-3.3081,-3.3081,-3.3081,-3.3081,-3.3081,-3.3081,-3.3081,-3.3081,-3.3081,-3.3081,-3.3081,-3.3313,-3.3953,-3.3471,-3.3713,-3.544,-3.5974,-3.6604,-3.7677,-3.8782,-3.9424,-3.9424,-3.9424,-3.9424,-3.9424,-3.9424,-3.9538,-3.9935,-4.0432,-4.108,-4.1804,-4.2316,-4.297,-4.3814,-4.3502,-4.2847,0.4024,0.4055,0.3694,0.3718,0.1835,0.0,-0.0,-0.0,-0.0404,-0.1874,-0.4074,-0.5681,-0.5752,-0.6078,-0.6741,-0.7774,-0.832,-0.9625,-1.2736,-1.3975,-1.4648,-1.4963,-1.5093,-1.5252,-1.5351,-1.5611,-1.5785,-1.5785,-1.5812,-1.5832,-1.5832,-1.5832,-1.5832,-1.5832,-1.5832,-1.5832,-1.5832,-1.5832,-1.5832,-1.5832,-1.5832,-1.5832,-1.5832,-1.5832,-1.5832,-1.5832,-1.5832,-1.5832,-1.5832,-1.5832,-1.5985,-1.6253,-1.6506,-1.6607,-1.6772,-1.7838,-1.9241,-2.0604,-2.1701,-2.3025,-2.4277,-2.4277,-2.4307,-2.4346,-2.4346,-2.4385,-2.4492,-2.5248,-2.7395,-2.95,-2.9693,-3.1376,-3.3081,-3.3081,-3.3081,-3.3081,-3.3081,-3.3081,-3.3081,-3.3081,-3.3081,-3.3081,-3.3081,-3.3081,-3.3081,-3.3081,-3.3081,-3.3081,-3.3081,-3.3081,-3.3556,-3.4746,-3.5668,-3.6682,-3.7904,-3.887,-3.9424,-3.9424,-3.9424,-3.9424,-3.9424,-3.9424,-3.9793,-4.0675,-4.0878,-4.1788,-4.3426,-4.3426,-4.3814,-4.457,-4.3621,-4.2707,0.3171,0.4052,0.4321,0.4316,0.2143,0.0,-0.0,-0.0,-0.041,-0.1903,-0.3532,-0.4929,-0.5406,-0.5586,-0.5755,-0.6022,-0.7179,-0.9101,-1.2248,-1.2229,-1.2612,-1.4751,-1.4185,-1.4029,-1.4953,-1.5311,-1.5478,-1.5478,-1.5698,-1.5832,-1.5832,-1.5832,-1.5832,-1.5832,-1.5832,-1.5832,-1.5832,-1.5832,-1.5832,-1.5832,-1.5832,-1.5832,-1.5832,-1.5832,-1.5832,-1.5832,-1.5832,-1.5832,-1.5832,-1.5832,-1.5865,-1.5919,-1.5979,-1.5999,-1.6273,-1.8427,-1.9461,-2.0062,-2.219,-2.3046,-2.3389,-2.3389,-2.3623,-2.3906,-2.3906,-2.415,-2.4782,-2.6815,-2.8774,-3.0418,-3.1394,-3.2363,-3.3081,-3.3081,-3.3081,-3.3081,-3.3081,-3.3081,-3.3081,-3.3081,-3.3081,-3.3081,-3.3081,-3.3081,-3.3081,-3.3081,-3.3081,-3.3081,-3.3081,-3.3081,-3.3784,-3.5748,-3.6039,-3.6993,-3.8943,-3.9265,-3.9424,-3.9424,-3.9424,-3.9424,-3.9424,-3.9424,-3.9793,-4.0675,-4.2062,-4.3306,-4.4327,-4.4327,-4.444,-4.457,-4.297,-4.2189,0.146,0.2038,0.2281,0.225,0.1133,0.0,0.0,-0.2244,-0.2503,-0.3456,-0.4156,-0.4789,-0.5192,-0.5247,-0.527,-0.5348,-0.6154,-0.7556,-0.9621,-1.0768,-1.186,-1.3203,-1.3341,-1.3659,-1.4509,-1.479,-1.5023,-1.517,-1.5451,-1.5611,-1.5611,-1.5752,-1.5832,-1.5832,-1.5832,-1.5832,-1.5832,-1.5832,-1.5832,-1.5832,-1.5832,-1.5832,-1.5832,-1.5832,-1.5832,-1.5832,-1.5832,-1.5832,-1.5832,-1.5832,-1.5832,-1.5832,-1.5832,-1.6204,-1.6943,-1.8856,-1.9852,-2.0666,-2.2492,-2.3135,-2.3135,-2.3135,-2.3291,-2.3467,-2.3467,-2.4108,-2.5224,-2.7041,-2.8694,-3.0203,-3.1077,-3.198,-3.2717,-3.3006,-3.3081,-3.3081,-3.3081,-3.3081,-3.2896,-3.2239,-3.2152,-3.2326,-3.2982,-3.2612,-3.2339,-3.2982,-3.3081,-3.3081,-3.3081,-3.3556,-3.4498,-3.6053,-3.6682,-3.7648,-3.925,-3.9424,-3.9424,-3.9424,-3.9424,-3.9424,-3.9424,-3.9424,-3.999,-4.1346,-4.3031,-4.4138,-4.4587,-4.4587,-4.4587,-4.457,-4.2831,-4.1997,-0.0,-0.0,-0.0,-0.0,-0.0,-0.0764,0.0,0.0,0.0,-0.4931,-0.4852,-0.4793,-0.4958,-0.5003,-0.5003,-0.5003,-0.5355,-0.5931,-0.6735,-0.9098,-1.0861,-1.1193,-1.2037,-1.2732,-1.3213,-1.349,-1.3931,-1.4563,-1.4714,-1.4884,-1.5101,-1.5524,-1.5772,-1.5832,-1.5832,-1.5832,-1.5832,-1.5832,-1.5832,-1.5832,-1.5832,-1.5832,-1.5832,-1.5832,-1.5832,-1.5832,-1.5832,-1.5832,-1.5832,-1.5832,-1.5832,-1.5832,-1.5832,-1.6386,-1.7498,-1.8948,-2.0124,-2.1114,-2.2589,-2.3135,-2.3135,-2.3135,-2.3135,-2.3135,-2.3387,-2.4477,-2.5883,-2.697,-2.8512,-2.987,-3.0301,-3.1343,-3.2328,-3.2805,-3.3006,-3.3081,-3.3081,-3.3081,-3.2698,-3.1412,-3.1223,-3.15,-3.2525,-3.1865,-3.1589,-3.2896,-3.3081,-3.3081,-3.3081,-3.4037,-3.5047,-3.6119,-3.7175,-3.8234,-3.9337,-3.9424,-3.9424,-3.9424,-3.9424,-3.9424,-3.9424,-3.9737,-4.0585,-4.1997,-4.3722,-4.4587,-4.4587,-4.444,-4.4327,-4.4327,-4.2707,-4.1933,-0.0,-0.0,-0.0,-0.0,-0.0,-0.0787,-0.3834,0.0,-0.4529,-0.4573,0.0,-0.4514,-0.4591,0.0,0.0,-0.4594,-0.4809,-0.5013,-0.5178,-0.6452,-0.7996,-0.9439,-0.8996,-0.9024,-1.0117,-1.0489,-1.1334,-1.2955,-1.2985,-1.3163,-1.3839,-1.4862,-1.5565,-1.5818,-1.5832,-1.5832,-1.5832,-1.5832,-1.5832,-1.5832,-1.5832,-1.5832,-1.5832,-1.5832,-1.5832,-1.5832,-1.5832,-1.5832,-1.5832,-1.5832,-1.5832,-1.5832,-1.5832,-1.592,-1.6292,-1.8672,-1.9588,-2.0034,-2.2315,-2.3135,-2.3135,-2.3135,-2.3135,-2.3309,-2.4296,-2.5421,-2.6633,-2.7696,-2.9161,-3.0468,-3.053,-3.1417,-3.2227,-3.2303,-3.2704,-3.3081,-3.3081,-3.3081,-3.2698,-3.1412,-3.1223,-3.1223,-3.14,-3.1311,-3.1589,-3.2896,-3.3081,-3.3081,-3.3081,-3.4037,-3.5047,-3.6119,-3.7175,-3.8234,-3.9337,-3.9424,-3.9424,-3.9424,-3.9424,-3.9424,-3.9424,-4.0894,-4.1804,-4.1997,-4.3722,-4.4587,-4.4587,-4.3814,-4.3426,-4.3426,-4.2458,-4.1609,-0.0,-0.0,-0.0598,-0.3063,-0.3152,-0.2925,-0.4219,-0.449,-0.4551,-0.4704,0.0,0.0,0.0,0.0,0.0,0.0,-0.4646,-0.4728,-0.4498,-0.5133,-0.6174,-0.7707,-0.8132,-0.8549,-0.9315,-0.9622,-1.0133,-1.0906,-1.1141,-1.1665,-1.2829,-1.3758,-1.4615,-1.5565,-1.5745,-1.5832,-1.5832,-1.5832,-1.5832,-1.5832,-1.5832,-1.5832,-1.5832,-1.5832,-1.5832,-1.5832,-1.5832,-1.5832,-1.5832,-1.5832,-1.5832,-1.5832,-1.5832,-1.6292,-1.7037,-1.8048,-1.9314,-2.0666,-2.1667,-2.2492,-2.3135,-2.3135,-2.3135,-2.3299,-2.4457,-2.5126,-2.5714,-2.6871,-2.8101,-2.926,-2.9565,-3.0424,-3.1436,-3.2064,-3.239,-3.2667,-3.3006,-3.3081,-3.2525,-3.0496,-3.0676,-3.0944,-3.0316,-3.0765,-3.1589,-3.2896,-3.3081,-3.3313,-3.3953,-3.4884,-3.5987,-3.7021,-3.8055,-3.8943,-3.9337,-3.9424,-3.9424,-3.9424,-3.9424,-3.9424,-3.9424,-4.0569,-4.1288,-4.1342,-4.3015,-4.3846,-4.391,-4.3481,-4.2834,-4.1967,-4.1071,-4.0485,-0.1218,-0.1567,-0.2475,-0.5561,-0.5373,-0.4492,-0.4499,-0.4607,-0.4755,-0.483,-0.4779,0.0,0.0,0.0,-0.4572,-0.4587,0.0,-0.4599,-0.4341,-0.446,-0.4977,-0.6055,-0.6921,-0.7673,-0.8388,-0.8309,-0.8457,-0.899,-0.9204,-0.9919,-1.1226,-1.21,-1.3338,-1.4786,-1.4697,-1.4874,-1.5242,-1.5242,-1.5242,-1.5242,-1.5635,-1.5832,-1.5832,-1.5832,-1.5832,-1.5832,-1.5832,-1.5832,-1.5832,-1.5832,-1.5832,-1.5832,-1.5832,-1.6386,-1.7225,-1.7956,-1.9314,-2.0935,-2.1569,-2.2403,-2.3135,-2.3135,-2.3135,-2.3299,-2.4457,-2.4787,-2.5041,-2.6141,-2.7279,-2.8179,-2.8559,-2.9633,-3.0809,-3.1587,-3.1888,-3.2139,-3.2717,-3.2561,-3.1882,-3.0191,-3.0586,-3.0944,-3.0033,-3.0586,-3.1589,-3.2896,-3.3081,-3.3471,-3.4594,-3.5588,-3.6604,-3.7677,-3.8782,-3.9424,-3.9424,-3.9424,-3.9424,-3.9424,-3.9424,-3.9334,-3.914,-3.9964,-4.0419,-4.0309,-4.1678,-4.2417,-4.2495,-4.2179,-4.1477,-4.0356,-3.9903,-3.9442,-0.4305,-0.5663,-0.6148,-0.626,-0.5365,-0.4473,-0.4495,-0.4928,-0.5227,-0.4817,-0.5036,-0.5247,-0.4969,-0.4911,-0.4857,-0.4707,-0.4687,0.0,0.0,-0.4345,-0.4214,-0.428,-0.4725,-0.5478,-0.6639,-0.5705,-0.5698,-0.7244,-0.7234,-0.7667,-0.8684,-0.9937,-1.1563,-1.3375,-1.2439,-1.2484,-1.3968,-1.3968,-1.3968,-1.3974,-1.5242,-1.5832,-1.5832,-1.5832,-1.5832,-1.5832,-1.5832,-1.5832,-1.5832,-1.5832,-1.5832,-1.5832,-1.5832,-1.5825,-1.6103,-1.858,-1.9488,-1.9852,-2.2227,-2.3047,-2.3135,-2.3135,-2.3135,-2.3299,-2.4457,-2.4787,-2.5041,-2.6141,-2.7279,-2.8096,-2.8108,-2.9352,-3.062,-3.0658,-3.1047,-3.1574,-3.2127,-3.1345,-3.0616,-3.1027,-3.1134,-3.1223,-3.1134,-3.1134,-3.1589,-3.2896,-3.3081,-3.3471,-3.4594,-3.5588,-3.6604,-3.7677,-3.8782,-3.9424,-3.9424,-3.9424,-3.9424,-3.9424,-3.9424,-3.9125,-3.8452,-3.9259,-3.9455,-3.8772,-3.9672,-4.01,-4.0128,-3.9251,-3.8836,-3.8772,-3.9423,-3.8877,-0.4886,-0.6119,-0.6325,-0.6273,-0.5374,-0.4561,-0.4817,-0.5081,-0.5109,-0.4752,-0.505,-0.527,-0.4975,-0.4918,-0.4867,-0.4714,-0.4691,-0.4568,0.0,-0.4039,-0.3982,-0.4033,-0.4406,-0.4805,-0.5197,-0.4969,-0.5012,-0.5634,-0.5781,-0.6451,-0.7951,-0.8827,-1.0045,-1.1603,-1.1707,-1.2404,-1.3732,-1.3891,-1.4364,-1.5146,-1.5629,-1.5832,-1.5832,-1.5832,-1.5832,-1.5832,-1.5832,-1.5832,-1.5832,-1.5832,-1.5832,-1.5832,-1.5832,-1.5832,-1.6015,-1.7677,-1.8772,-1.9861,-2.2227,-2.3135,-2.3135,-2.3135,-2.3135,-2.3135,-2.3551,-2.3627,-2.38,-2.4135,-2.5041,-2.6108,-2.6871,-2.7429,-2.8151,-2.9229,-2.9106,-2.8867,-2.9382,-2.9155,-2.8941,-2.9015,-2.994,-3.0799,-3.0711,-3.1634,-3.2612,-3.3068,-3.3081,-3.3471,-3.4594,-3.5588,-3.6604,-3.7677,-3.8782,-3.9424,-3.9424,-3.9424,-3.8926,-3.7857,-3.7828,-3.723,-3.5909,-3.6775,-3.7216,-3.7061,-3.843,-3.9155,-3.9241,-3.8858,-3.8492,-3.8042,-3.7689,-3.7322,-0.5396,-0.6596,-0.6579,-0.6587,-0.5899,-0.5249,-0.5188,-0.5257,-0.527,-0.4918,-0.5165,-0.5399,-0.5257,-0.5101,-0.4962,-0.4863,-0.4758,-0.4535,0.0,-0.3934,-0.389,-0.3934,-0.4202,-0.4406,-0.4512,-0.4457,-0.4558,-0.4819,-0.487,-0.547,-0.6879,-0.7488,-0.8461,-0.9936,-1.0199,-1.0877,-1.2277,-1.289,-1.359,-1.4465,-1.5343,-1.5832,-1.5832,-1.5832,-1.5832,-1.5832,-1.5832,-1.5832,-1.5832,-1.5832,-1.5832,-1.5832,-1.5832,-1.6109,-1.6669,-1.7863,-1.9413,-2.1042,-2.2589,-2.3135,-2.3135,-2.3135,-2.3135,-2.3135,-2.3135,-2.3135,-2.3135,-2.3135,-2.3877,-2.4957,-2.5714,-2.6224,-2.6715,-2.7777,-2.7527,-2.7172,-2.7667,-2.7422,-2.738,-2.8425,-2.9155,-2.9907,-3.0604,-3.1697,-3.2616,-3.3018,-3.3081,-3.3471,-3.4594,-3.5588,-3.6604,-3.7677,-3.8782,-3.9265,-3.887,-3.8649,-3.7945,-3.6536,-3.6219,-3.5586,-3.4289,-3.4834,-3.5222,-3.5377,-3.649,-3.7238,-3.7714,-3.7619,-3.7364,-3.6886,-3.6366,-3.6315]},{"header":{"parameterUnit":"m.s-1","parameterCategory":1,"la1":30.6,"la2":29.2853,"lo1":-89.7004,"lo2":-87.6739,"dy":0.0162,"dx":0.0183,"nx":112,"ny":82,"refTime":"2024-09-12T12:00:00:Z","depth":0,"parameterNumber":3,"parameterNumberName":"V-component_of_WINDS"},"data":[0.0,0.0,0.0,0.0,0.0,0.0,0.0,0.0,0.0,0.0,0.0,0.0,0.0,0.0,0.0,0.0,0.0,0.0,0.0,0.0,0.0,0.0,0.0,0.0,0.0,0.0,0.0,0.0,0.0,0.0,0.0,0.0,0.0,0.0,0.0,0.0,0.0,0.0,0.0,0.0,0.0,0.0,0.0,0.0,0.0,0.0,0.0,0.0,0.0,0.0,0.0,0.0,0.0,0.0,0.0,0.0,0.0,0.0,0.0,0.0,0.0,0.0,0.0,0.0,0.0,0.0,0.0,0.0,0.0,0.0,0.0,0.0,0.0,0.0,0.0,0.0,0.0,0.0,0.0,0.0,0.0,0.0,0.0,0.0,0.0,0.0,0.0,0.0,0.0,0.0,-0.9573,-1.078,-1.0738,-0.9563,-0.7015,-0.6122,-0.4931,-0.3167,0.0,0.0,0.0,0.0,0.0,0.0,0.0,0.0,0.0,0.0,0.0,0.0,0.0,0.0,0.0,0.0,0.0,0.0,0.0,0.0,0.0,0.0,0.0,0.0,0.0,0.0,0.0,0.0,0.0,0.0,0.0,0.0,0.0,0.0,0.0,0.0,0.0,0.0,0.0,0.0,0.0,0.0,0.0,0.0,0.0,0.0,0.0,0.0,0.0,0.0,0.0,0.0,0.0,0.0,0.0,0.0,0.0,0.0,0.0,0.0,0.0,0.0,0.0,0.0,0.0,0.0,0.0,0.0,0.0,0.0,0.0,0.0,0.0,0.0,0.0,0.0,0.0,0.0,0.0,0.0,0.0,0.0,0.0,0.0,0.0,0.0,0.0,0.0,0.0,0.0,0.0,0.0,0.0,0.0,0.0,0.0,0.0,0.0,0.0,0.0,0.0,0.0,0.0,0.0,-0.9237,-1.0649,-1.0221,-0.9238,-0.7658,-0.6848,-0.5677,-0.3932,0.0,0.0,0.0,0.0,0.0,0.0,0.0,0.0,0.0,0.0,0.0,0.0,0.0,0.0,0.0,0.0,0.0,0.0,0.0,0.0,0.0,0.0,0.0,0.0,0.0,0.0,0.0,0.0,0.0,0.0,0.0,0.0,0.0,0.0,0.0,0.0,0.0,0.0,0.0,0.0,0.0,0.0,0.0,0.0,0.0,0.0,0.0,0.0,0.0,0.0,0.0,0.0,0.0,0.0,0.0,0.0,0.0,0.0,0.0,0.0,0.0,0.0,0.0,0.0,0.0,0.0,0.0,0.0,0.0,0.0,0.0,0.0,0.0,0.0,0.0,0.0,0.0,0.0,0.0,0.0,0.0,0.0,0.0,0.0,0.0,0.0,0.0,0.0,0.0,0.0,0.0,0.0,0.0,0.0,0.0,0.0,0.0,0.0,0.0,0.0,0.0,0.0,0.0,-0.9354,-1.0077,-1.0748,-1.0493,-0.9614,-0.7824,-0.7396,-0.6457,-0.4824,-0.3633,0.0,0.0,0.0,0.0,0.0,0.0,0.0,0.0,0.0,0.0,0.0,0.0,0.0,0.0,0.0,0.0,0.0,0.0,0.0,0.0,0.0,0.0,0.0,0.0,0.0,0.0,0.0,0.0,0.0,0.0,0.0,0.0,0.0,0.0,0.0,0.0,0.0,0.0,0.0,0.0,0.0,0.0,0.0,0.0,0.0,0.0,0.0,0.0,0.0,0.0,0.0,0.0,0.0,0.0,0.0,0.0,0.0,0.0,0.0,0.0,0.0,0.0,0.0,0.0,0.0,0.0,0.0,0.0,0.0,0.0,0.0,0.0,0.0,0.0,0.0,0.0,0.0,0.0,0.0,0.0,0.0,0.0,0.0,0.0,0.0,0.0,0.0,0.0,0.0,0.0,0.0,0.0,0.0,0.0,0.0,0.0,0.0,0.0,0.0,0.0,0.0,0.0,-1.0942,-1.1093,-1.1022,-1.0914,-1.0092,-0.8349,-0.7816,-0.6993,-0.5484,-0.4592,0.0,0.0,0.0,0.0,0.0,0.0,0.0,0.0,0.0,0.0,0.0,0.0,0.0,0.0,0.0,0.0,0.0,0.0,0.0,0.0,0.0,0.0,0.0,0.0,0.0,0.0,0.0,0.0,0.0,0.0,0.0,0.0,0.0,0.0,0.0,0.0,0.0,0.0,0.0,0.0,0.0,0.0,0.0,0.0,0.0,0.0,0.0,0.0,0.0,0.0,0.0,0.0,0.0,0.0,0.0,0.0,0.0,0.0,0.0,0.0,0.0,0.0,0.0,0.0,0.0,0.0,0.0,0.0,0.0,0.0,0.0,0.0,0.0,0.0,0.0,0.0,0.0,0.0,0.0,0.0,0.0,0.0,0.0,0.0,0.0,0.0,0.0,0.0,0.0,0.0,0.0,0.0,0.0,0.0,0.0,0.0,0.0,0.0,0.0,0.0,0.0,0.0,-1.0888,-1.1724,-1.1756,-1.1166,-1.0517,-0.9703,-0.822,-0.6853,-0.5728,-0.4499,0.0,0.0,0.0,0.0,0.0,0.0,0.0,0.0,0.0,0.0,0.0,0.0,0.0,0.0,0.0,0.0,0.0,0.0,0.0,0.0,0.0,0.0,0.0,0.0,0.0,0.0,0.0,0.0,0.0,0.0,0.0,0.0,0.0,0.0,0.0,0.0,0.0,0.0,0.0,0.0,0.0,0.0,0.0,0.0,0.0,0.0,0.0,0.0,0.0,0.0,0.0,0.0,0.0,0.0,0.0,0.0,0.0,0.0,0.0,0.0,0.0,0.0,0.0,0.0,0.0,0.0,0.0,0.0,0.0,0.0,0.0,0.0,0.0,0.0,0.0,0.0,0.0,0.0,0.0,0.0,0.0,0.0,0.0,0.0,0.0,0.0,0.0,0.0,0.0,0.0,0.0,0.0,0.0,0.0,0.0,0.0,0.0,0.0,0.0,0.0,0.0,0.0,-1.0851,-1.1705,-1.1809,-1.1566,-1.0965,-0.9917,-0.9228,-0.7975,-0.5831,0.0,0.0,0.0,0.0,0.0,0.0,0.0,0.0,0.0,0.0,0.0,0.0,0.0,0.0,0.0,0.0,0.0,0.0,0.0,0.0,0.0,0.0,0.0,0.0,0.0,0.0,0.0,0.0,0.0,0.0,0.0,0.0,0.0,0.0,0.0,0.0,0.0,0.0,0.0,0.0,0.0,0.0,0.0,0.0,0.0,0.0,0.0,0.0,0.0,0.0,0.0,0.0,0.0,0.0,0.0,0.0,0.0,0.0,0.0,0.0,0.0,0.0,0.0,0.0,0.0,0.0,0.0,0.0,0.0,0.0,0.0,0.0,0.0,0.0,0.0,0.0,0.0,0.0,0.0,0.0,0.0,0.0,0.0,0.0,0.0,0.0,0.0,0.0,0.0,0.0,0.0,0.0,0.0,0.0,0.0,0.0,0.0,0.0,0.0,0.0,0.0,0.0,-0.9992,-1.1588,-1.2534,-1.2445,-1.2248,-1.1557,-1.021,-0.9619,-0.8304,-0.5874,0.0,0.0,0.0,0.0,0.0,0.0,0.0,0.0,0.0,0.0,0.0,0.0,0.0,0.0,0.0,0.0,0.0,0.0,0.0,0.0,0.0,0.0,0.0,0.0,0.0,0.0,0.0,0.0,0.0,0.0,0.0,0.0,0.0,0.0,0.0,0.0,0.0,0.0,0.0,0.0,0.0,0.0,0.0,0.0,0.0,0.0,0.0,0.0,0.0,0.0,0.0,0.0,0.0,0.0,0.0,0.0,0.0,0.0,0.0,0.0,0.0,0.0,0.0,0.0,0.0,0.0,0.0,0.0,0.0,0.0,0.0,0.0,0.0,0.0,0.0,0.0,0.0,0.0,0.0,0.0,0.0,0.0,0.0,0.0,0.0,0.0,0.0,0.0,0.0,0.0,0.0,0.0,0.0,0.0,0.0,0.0,0.0,0.0,0.0,0.0,0.0,0.0,-1.11,-1.3235,-1.4468,-1.3862,-1.3215,-1.2278,-1.0965,-0.929,-0.759,0.0,0.0,0.0,0.0,0.0,0.0,0.0,0.0,0.0,0.0,0.0,0.0,0.0,0.0,0.0,0.0,0.0,0.0,0.0,0.0,0.0,0.0,0.0,0.0,0.0,0.0,0.0,0.0,0.0,0.0,0.0,0.0,0.0,0.0,0.0,0.0,0.0,0.0,0.0,0.0,0.0,0.0,0.0,0.0,0.0,0.0,0.0,0.0,0.0,0.0,0.0,0.0,0.0,0.0,0.0,0.0,0.0,0.0,0.0,0.0,0.0,0.0,0.0,0.0,0.0,0.0,0.0,0.0,0.0,0.0,0.0,0.0,0.0,0.0,0.0,0.0,0.0,0.0,0.0,0.0,0.0,0.0,0.0,0.0,0.0,0.0,0.0,0.0,0.0,0.0,0.0,0.0,0.0,0.0,0.0,0.0,0.0,0.0,0.0,0.0,0.0,0.0,0.0,-1.1458,-1.3404,-1.4606,-1.4468,-1.3899,-1.3168,-1.2278,-1.1336,-0.9658,-0.7041,0.0,0.0,0.0,0.0,0.0,0.0,0.0,0.0,0.0,0.0,0.0,0.0,0.0,0.0,0.0,0.0,0.0,0.0,0.0,0.0,0.0,0.0,0.0,0.0,0.0,0.0,0.0,0.0,0.0,0.0,0.0,0.0,0.0,0.0,0.0,0.0,0.0,0.0,0.0,0.0,0.0,0.0,0.0,0.0,0.0,0.0,0.0,0.0,0.0,0.0,0.0,0.0,0.0,0.0,0.0,0.0,0.0,0.0,0.0,0.0,0.0,0.0,0.0,0.0,0.0,0.0,0.0,0.0,0.0,0.0,0.0,0.0,0.0,0.0,0.0,0.0,0.0,0.0,0.0,0.0,0.0,0.0,0.0,0.0,0.0,0.0,0.0,0.0,0.0,0.0,0.0,0.0,0.0,0.0,0.0,0.0,0.0,0.0,0.0,0.0,0.0,0.0,-1.1999,-1.4299,-1.5648,-1.5407,-1.5071,-1.4391,-1.3214,-1.2529,-1.0986,-0.8122,0.0,0.0,0.0,0.0,0.0,0.0,0.0,0.0,0.0,0.0,0.0,0.0,0.0,0.0,0.0,0.0,0.0,0.0,0.0,0.0,0.0,0.0,0.0,0.0,0.0,0.0,0.0,0.0,0.0,0.0,0.0,0.0,0.0,0.0,0.0,0.0,0.0,0.0,0.0,0.0,0.0,0.0,0.0,0.0,0.0,0.0,0.0,0.0,0.0,0.0,0.0,0.0,0.0,0.0,0.0,0.0,0.0,0.0,0.0,0.0,0.0,0.0,0.0,0.0,0.0,0.0,0.0,0.0,0.0,0.0,0.0,0.0,0.0,0.0,0.0,0.0,0.0,0.0,0.0,0.0,0.0,0.0,0.0,0.0,0.0,0.0,0.0,0.0,0.0,0.0,0.0,0.0,0.0,0.0,0.0,0.0,0.0,0.0,0.0,0.0,0.0,0.0,-1.2766,-1.5542,-1.7194,-1.663,-1.6537,-1.5772,-1.4001,-1.3293,-1.1846,-0.9155,0.0,0.0,0.0,0.0,0.0,0.0,0.0,0.0,0.0,0.0,0.0,0.0,0.0,0.0,0.0,0.0,0.0,0.0,0.0,0.0,0.0,0.0,0.0,0.0,0.0,0.0,0.0,0.0,0.0,0.0,0.0,0.0,0.0,0.0,0.0,0.0,0.0,0.0,0.0,0.0,0.0,0.0,0.0,0.0,0.0,0.0,0.0,0.0,0.0,0.0,0.0,0.0,0.0,0.0,0.0,0.0,0.0,0.0,0.0,0.0,-1.6387,-1.4705,0.0,0.0,0.0,0.0,0.0,0.0,0.0,0.0,0.0,0.0,0.0,0.0,0.0,0.0,0.0,0.0,0.0,0.0,0.0,0.0,0.0,0.0,0.0,0.0,0.0,0.0,0.0,0.0,0.0,0.0,0.0,0.0,0.0,0.0,0.0,0.0,0.0,0.0,0.0,0.0,-1.4175,-1.6195,-1.7493,-1.7778,-1.7411,-1.6728,-1.5856,-1.4822,-1.3365,-1.1349,-1.0009,0.0,0.0,0.0,0.0,0.0,0.0,0.0,0.0,0.0,0.0,0.0,0.0,0.0,0.0,0.0,0.0,0.0,0.0,0.0,0.0,0.0,0.0,0.0,0.0,0.0,0.0,0.0,0.0,0.0,0.0,0.0,0.0,0.0,0.0,0.0,0.0,0.0,0.0,0.0,0.0,0.0,0.0,0.0,0.0,0.0,0.0,0.0,0.0,0.0,0.0,0.0,0.0,0.0,0.0,0.0,0.0,0.0,0.0,0.0,-1.9792,-1.8081,0.0,0.0,0.0,0.0,0.0,0.0,0.0,0.0,0.0,0.0,0.0,0.0,0.0,0.0,0.0,0.0,0.0,0.0,0.0,0.0,0.0,0.0,0.0,0.0,0.0,0.0,0.0,0.0,0.0,0.0,0.0,0.0,0.0,0.0,0.0,0.0,0.0,0.0,0.0,0.0,-1.5465,-1.6952,-1.8118,-1.8982,-1.852,-1.7849,-1.7254,-1.6132,-1.4849,-1.3409,-1.2045,0.0,0.0,0.0,0.0,0.0,0.0,0.0,0.0,0.0,0.0,0.0,0.0,0.0,0.0,0.0,0.0,0.0,0.0,0.0,0.0,0.0,0.0,0.0,0.0,0.0,0.0,0.0,0.0,0.0,0.0,0.0,0.0,0.0,0.0,0.0,0.0,0.0,0.0,0.0,0.0,0.0,0.0,0.0,0.0,0.0,0.0,0.0,0.0,0.0,0.0,0.0,0.0,0.0,-2.6782,-2.7326,-2.8385,-2.7399,-2.7405,-2.7921,-2.3894,-2.2525,-2.2986,-2.1013,0.0,0.0,0.0,0.0,0.0,0.0,0.0,0.0,0.0,0.0,0.0,0.0,0.0,0.0,0.0,0.0,0.0,0.0,0.0,0.0,0.0,0.0,-1.897,-1.942,-2.0408,-2.0191,-1.6474,0.0,0.0,0.0,0.0,0.0,0.0,0.0,0.0,0.0,0.0,0.0,-1.6689,-1.7974,-1.9055,-2.003,-1.9626,-1.9058,-1.8333,-1.7303,-1.6244,-1.5246,-1.3895,-1.2614,0.0,0.0,0.0,0.0,0.0,0.0,0.0,0.0,0.0,0.0,0.0,0.0,0.0,0.0,0.0,0.0,0.0,0.0,0.0,0.0,0.0,0.0,0.0,0.0,0.0,0.0,0.0,0.0,0.0,0.0,0.0,0.0,-1.5382,-1.7059,0.0,0.0,0.0,0.0,0.0,0.0,0.0,0.0,0.0,0.0,0.0,0.0,0.0,-2.5974,-2.9136,-3.0081,-3.1243,-3.2616,-3.3325,-3.3525,-3.3264,-3.2661,-3.2338,-3.2218,-3.0861,0.0,-2.5496,-2.3833,0.0,0.0,0.0,0.0,0.0,0.0,0.0,0.0,0.0,0.0,0.0,0.0,0.0,0.0,0.0,0.0,0.0,0.0,0.0,0.0,0.0,0.0,-2.3416,-2.3047,-2.3086,-2.3071,-2.2465,-1.9457,-1.6466,-1.5111,-1.427,-1.3584,0.0,0.0,0.0,0.0,0.0,0.0,-1.7959,-1.9534,-2.0595,-2.0673,-2.0641,-2.0099,-1.9008,-1.825,-1.7422,-1.6278,-1.5222,-1.4145,-1.3085,-1.1692,0.0,0.0,0.0,0.0,0.0,0.0,0.0,0.0,0.0,0.0,0.0,0.0,0.0,0.0,0.0,0.0,0.0,0.0,0.0,0.0,0.0,0.0,0.0,0.0,0.0,0.0,0.0,0.0,0.0,-1.5788,-1.8069,-1.9738,-2.0062,-1.9817,0.0,0.0,0.0,0.0,0.0,0.0,0.0,0.0,0.0,-2.764,-2.939,-3.1032,-3.2564,-3.3714,-3.4811,-3.5835,-3.6375,-3.659,-3.6425,-3.6042,-3.5516,-3.4883,-3.4501,-3.2977,-3.0588,-2.7811,-2.5768,-2.4271,0.0,0.0,0.0,0.0,-2.2919,-2.3405,-2.4228,-2.4802,-2.4985,-2.3709,0.0,0.0,0.0,0.0,0.0,0.0,0.0,-2.268,-2.3442,-2.4098,-2.4561,-2.4687,-2.4732,-2.4732,-2.4732,-2.2959,-2.0798,-1.8772,-1.8342,-1.7688,-1.564,-1.561,0.0,0.0,0.0,-1.9141,-2.0667,-2.117,-2.1524,-2.1844,-2.1182,-2.0373,-1.951,-1.8933,-1.8388,-1.7909,-1.718,-1.6262,-1.5122,-1.4034,-1.2525,0.0,0.0,0.0,0.0,0.0,0.0,0.0,0.0,0.0,0.0,0.0,0.0,0.0,0.0,0.0,0.0,0.0,0.0,0.0,0.0,0.0,0.0,0.0,0.0,0.0,0.0,0.0,0.0,-1.8647,-2.0908,-2.2399,-2.3755,-2.4058,0.0,0.0,0.0,0.0,0.0,0.0,-2.7673,-2.9476,-3.1056,-3.2372,-3.4199,-3.5441,-3.6017,-3.7045,-3.7908,-3.8561,-3.874,-3.881,-3.87,-3.8365,-3.7739,-3.6861,-3.6767,-3.6215,-3.5098,-3.1562,-2.9211,-2.7774,-2.7046,-2.6302,-2.5759,-2.6488,-2.7097,-2.7672,-2.8416,-2.9059,-2.9296,-2.7807,-2.7199,-2.6691,-2.4864,0.0,0.0,0.0,0.0,-2.5593,-2.6278,-2.6181,-2.6014,-2.6516,-2.6617,-2.6617,-2.6617,-2.6243,-2.5061,-2.2263,-2.1964,-2.1395,-1.8892,-1.8862,0.0,-1.917,-2.0291,-2.1567,-2.2947,-2.2901,-2.2834,-2.2948,-2.2047,-2.1053,-2.0114,-1.966,-1.9334,-1.8995,-1.8643,-1.7952,-1.6892,-1.5985,-1.4568,-1.2548,0.0,0.0,0.0,0.0,0.0,0.0,0.0,0.0,0.0,0.0,0.0,0.0,0.0,0.0,0.0,0.0,0.0,0.0,0.0,0.0,0.0,0.0,0.0,0.0,0.0,0.0,0.0,0.0,0.0,-2.5111,-2.739,0.0,0.0,0.0,0.0,-2.8845,-2.9713,-3.1314,-3.3827,-3.408,-3.5203,-3.756,-3.7738,-3.8821,-4.092,-4.1015,-4.1173,-4.1399,-4.1427,-4.0941,-4.0077,-3.9643,-3.9065,-3.8442,-3.8018,-3.777,-3.7499,-3.4455,-3.2307,-3.0903,-3.0176,-2.9414,-2.8839,-2.96,-2.9905,-3.004,-3.0768,-3.1055,-3.119,-3.1749,-3.1478,-3.0768,-2.9956,-2.9245,0.0,0.0,-2.9426,-2.9198,-2.9929,-2.9738,-2.9339,-2.9418,-2.9385,-2.9385,-2.9385,-2.9355,-2.8368,-2.5076,-2.3924,-2.3445,-2.3281,0.0,-2.3139,-2.2731,-2.3614,-2.4222,-2.3821,-2.4702,-2.4955,-2.3701,-2.3496,-2.2681,-2.0825,-2.0655,-2.0137,-1.9046,-1.8945,-1.8682,-1.8131,-1.6985,-1.6085,-1.5592,-1.2608,0.0,0.0,0.0,0.0,0.0,0.0,0.0,0.0,0.0,0.0,0.0,0.0,0.0,0.0,0.0,0.0,0.0,0.0,0.0,0.0,0.0,0.0,0.0,0.0,0.0,0.0,0.0,0.0,-2.9286,-3.1268,0.0,-3.037,-3.0828,-3.1789,-3.3192,-3.4051,-3.5432,-3.7506,-3.8595,-3.9581,-4.0476,-4.0764,-4.1285,-4.2063,-4.1704,-4.1798,-4.2355,-4.175,-4.1397,-4.1207,-4.0664,-4.0123,-3.9583,-3.9391,-3.9039,-3.8514,-3.7449,-3.6129,-3.4709,-3.3947,-3.3491,-3.3288,-3.3558,-3.3981,-3.437,-3.4117,-3.4032,-3.3931,-3.3237,-3.2831,-3.2577,-3.2307,-3.2053,-3.1884,-3.2154,-3.1817,-3.1325,-3.1162,-3.0684,-3.013,-2.972,-2.9579,-2.9579,-2.9579,-2.9579,-2.9235,-2.8053,-2.6916,-2.5884,-2.5046,-2.4896,-2.4701,-2.4089,-2.5088,-2.5836,-2.5631,-2.5947,-2.5828,-2.4975,-2.4049,-2.3057,-2.2007,-2.1176,-2.0555,-2.0112,-1.9422,-1.8781,-1.8229,-1.7467,-1.6614,-1.5688,-1.3678,-1.1888,0.0,0.0,0.0,0.0,0.0,0.0,0.0,0.0,0.0,0.0,0.0,0.0,0.0,0.0,0.0,0.0,0.0,0.0,0.0,0.0,0.0,0.0,0.0,0.0,0.0,-2.7289,-3.0228,-3.1975,-3.443,-3.5515,-3.4295,-3.4999,-3.6133,-3.7579,-3.818,-3.9119,-4.0609,-4.1585,-4.2239,-4.2544,-4.2692,-4.2857,-4.2986,-4.2436,-4.2353,-4.2765,-4.1922,-4.1528,-4.149,-4.1087,-4.0625,-4.007,-4.007,-3.98,-3.936,-3.936,-3.8785,-3.7787,-3.6789,-3.64,-3.64,-3.64,-3.6721,-3.7077,-3.6569,-3.64,-3.6231,-3.525,-3.4928,-3.4928,-3.4928,-3.4928,-3.4928,-3.4928,-3.4628,-3.4121,-3.3159,-3.2431,-3.1758,-3.0815,-3.0402,-3.0238,-3.0238,-3.0238,-3.0238,-3.0238,-2.916,-2.7979,-2.7096,-2.6946,-2.6797,-2.6363,-2.7036,-2.759,-2.759,-2.7358,-2.6934,-2.6327,-2.5157,-2.4041,-2.2963,-2.1925,-2.1176,-2.0731,-1.9635,-1.8869,-1.8493,-1.7777,-1.7008,-1.6199,-1.4547,-1.2709,-1.0676,0.0,0.0,0.0,0.0,0.0,0.0,0.0,0.0,0.0,0.0,0.0,0.0,0.0,0.0,0.0,0.0,0.0,0.0,0.0,0.0,0.0,0.0,0.0,-2.6937,-3.041,-3.3083,-3.3122,-3.6853,-3.8757,-3.7065,-3.9123,-4.1004,-4.1998,-4.2063,-4.2431,-4.3222,-4.2964,-4.3099,-4.3795,-4.3478,-4.352,-4.3967,-4.3443,-4.2977,-4.2655,-4.208,-4.149,-4.0903,-4.0856,-4.0577,-4.007,-4.007,-4.007,-4.007,-4.007,-4.007,-3.9935,-3.8531,-3.7973,-3.7973,-3.7973,-3.7973,-3.7973,-3.7939,-3.7939,-3.7939,-3.7922,-3.7905,-3.7905,-3.7905,-3.7905,-3.7905,-3.7905,-3.7905,-3.7517,-3.6088,-3.5198,-3.4311,-3.2866,-3.2063,-3.1541,-3.1541,-3.1526,-3.1497,-3.1497,-3.0522,-2.9639,-2.9609,-2.9594,-2.9579,-2.9579,-2.9579,0.0,-2.9579,-2.9026,-2.8329,-2.7625,-2.6953,-2.572,-2.3683,-2.2976,-2.2073,-2.0797,-1.9623,-1.8958,-1.8958,-1.7953,-1.7388,-1.7375,-1.536,-1.3217,-1.0919,0.0,0.0,0.0,0.0,0.0,0.0,0.0,0.0,0.0,0.0,0.0,0.0,0.0,0.0,0.0,0.0,0.0,0.0,0.0,0.0,0.0,-2.9346,-3.2193,-3.1295,-3.4295,-3.7046,-3.8257,-4.0566,-4.1873,-4.1393,-4.197,-4.2739,-4.3602,-4.3662,-4.3939,-4.4554,-4.4486,-4.4429,-4.4391,-4.3639,-4.3282,-4.3424,-4.2609,-4.2132,-4.2021,-4.1481,-4.1122,-4.0903,-4.0497,-4.0254,-4.007,-4.007,-4.007,-4.007,-4.007,-4.007,-4.0037,-3.9631,-3.9478,-3.9478,-3.9478,-3.9478,-3.9411,-3.887,-3.87,-3.8616,-3.8075,-3.7905,-3.7905,-3.7905,-3.7905,-3.7905,-3.7905,-3.75,-3.6834,-3.5911,-3.511,-3.4348,-3.3442,-3.308,-3.2961,-3.2961,-3.2587,-3.2243,-3.2243,-3.1569,-3.0836,-3.0342,-2.9879,-2.9579,-2.9579,-2.9579,-2.9579,-2.9579,-2.943,-2.9062,-2.8358,-2.7642,-2.682,-2.5734,-2.3797,-2.2273,-2.155,-1.9581,-1.843,-1.843,-1.7752,-1.7182,-1.6662,-1.5908,-1.4796,0.0,0.0,0.0,0.0,0.0,0.0,0.0,0.0,0.0,0.0,0.0,0.0,0.0,0.0,0.0,0.0,0.0,0.0,0.0,0.0,0.0,0.0,-3.3752,-3.644,-3.6603,-3.8334,-4.0085,-4.1431,-4.2777,-4.3605,-4.3605,-4.3932,-4.4282,-4.4614,-4.4652,-4.4707,-4.4881,-4.4732,-4.4561,-4.4346,-4.348,-4.2996,-4.2996,-4.1949,-4.1446,-4.1402,-4.0861,-4.0611,-4.0528,-4.0254,-4.007,-4.007,-4.007,-4.007,-4.007,-4.007,-4.007,-4.007,0.0,0.0,0.0,0.0,-4.007,-4.002,-3.9597,-3.9445,-3.9377,-3.8954,-3.8819,-3.8819,-3.8819,-3.8819,-3.8819,-3.8819,-3.8237,-3.7445,-3.6741,-3.5786,-3.4768,-3.4074,-3.3694,-3.3499,-3.3499,-3.32,-3.2931,-3.2931,-3.2617,0.0,-3.1465,-3.0821,-3.0402,-3.0402,-3.0402,-3.0402,-3.0402,-3.0148,-2.9819,-2.9445,-2.8808,-2.7988,-2.701,-2.5303,0.0,0.0,0.0,-1.9394,-1.8601,-1.8017,0.0,0.0,0.0,0.0,0.0,-1.6524,0.0,0.0,-1.5025,-1.5507,0.0,0.0,0.0,0.0,0.0,0.0,0.0,0.0,0.0,0.0,0.0,0.0,0.0,0.0,0.0,0.0,-3.8127,-4.0364,-4.1857,-4.2129,-4.2437,-4.3162,-4.3934,-4.4397,-4.4397,-4.5071,-4.5362,-4.5074,-4.5052,-4.4896,-4.4553,-4.4175,0.0,0.0,0.0,-4.2739,-4.2749,-4.162,-4.1086,-4.1022,-4.0574,-4.0324,-4.0324,-4.0324,-4.0273,-4.0206,-4.0206,-4.0155,-4.007,-4.007,-4.007,-4.007,-4.007,-4.007,-4.007,-4.007,-4.007,-4.007,-4.007,0.0,0.0,-4.007,-4.007,-4.007,-4.007,-4.007,-4.007,-4.002,-3.9385,-3.858,-3.7863,-3.6644,-3.5431,-3.4766,-3.4143,-3.3724,-3.3724,-3.3664,-3.3604,-3.3604,-3.3544,-3.3305,-3.2721,-3.2078,-3.1556,-3.1482,-3.1482,-3.1482,-3.1482,-3.1001,-3.0597,-3.0507,-3.0013,0.0,-2.7839,-2.7045,-2.5792,-2.3975,-2.2637,-2.1117,-1.9462,-1.8887,-1.8511,-1.8389,-1.9007,-1.9267,-1.9197,-2.0445,-2.1158,-2.1419,-1.8811,-1.894,0.0,0.0,0.0,0.0,0.0,0.0,0.0,0.0,0.0,0.0,0.0,0.0,0.0,0.0,0.0,-3.8112,-4.0704,-4.2722,-4.3682,-4.4174,-4.4364,-4.4107,-4.4576,-4.4953,-4.4953,-4.4848,-4.4757,-4.4682,-4.4701,-4.4527,-4.4146,-4.4028,-4.3948,-4.383,-4.3197,-4.2944,-4.3109,-4.2363,-4.2039,-4.2039,-4.1899,0.0,-4.1863,-4.1863,-4.1542,-4.0984,-4.0984,-4.0646,-4.007,-4.007,-4.007,-4.007,-4.007,-4.007,-4.007,-4.007,-4.007,-4.007,-4.007,-4.007,-4.007,-4.007,-4.007,-4.007,-4.007,-4.007,0.0,-3.9315,-3.858,-3.7847,-3.7024,-3.6198,-3.5473,-3.5374,-3.522,-3.5115,-3.5115,-3.4681,-3.4292,-3.4292,-3.3858,-3.3455,-3.332,-3.2766,-3.2138,-3.1556,-3.1482,-3.1482,-3.1482,-3.1362,-3.112,-3.0567,-3.0402,-3.0018,-2.9268,-2.7588,-2.6255,-2.5438,-2.3147,-2.1643,-2.1302,-2.1014,-2.0636,-2.0192,-2.0723,-2.0999,-2.0989,-2.2393,-2.3517,-2.4328,-2.1995,-2.2027,0.0,0.0,0.0,0.0,0.0,0.0,0.0,0.0,0.0,0.0,0.0,-3.2,-3.4955,0.0,-3.8831,-4.1393,-4.2874,-4.3936,-4.4614,-4.4934,-4.4987,-4.4729,-4.4786,-4.4849,-4.4849,-4.4701,-4.4527,-4.4318,-4.429,-4.4304,-4.4332,-4.4369,-4.4378,-4.4407,-4.3807,-4.3406,-4.3192,-4.2568,-4.2286,-4.2286,-4.2286,-4.2286,-4.2286,-4.2286,-4.21,-4.1745,-4.1745,-4.1542,-4.1187,-4.1187,-4.1187,-4.1187,-4.1187,-4.073,-4.007,-4.007,-4.007,-4.007,-4.007,-4.007,-4.007,-4.007,-4.007,-4.007,-4.007,-4.007,-4.002,-3.961,-3.8924,-3.8246,-3.7889,-3.6904,-3.6054,-3.6054,-3.5782,-3.5504,-3.5504,-3.5235,-3.4996,-3.4996,-3.4726,-3.4382,-3.4038,-3.3709,-3.3155,-3.2168,-3.2018,-3.1898,-3.1511,-3.1482,-3.1405,-3.1061,-3.1016,-3.0746,-3.0103,-2.8551,-2.7491,-2.7233,-2.5317,-2.4017,-2.3607,-2.3181,-2.2744,-2.2334,-2.2598,-2.3098,-2.3826,-2.4498,-2.5495,-2.6784,-2.5633,-2.5661,0.0,0.0,0.0,0.0,0.0,0.0,0.0,-2.8041,-2.9633,-3.3393,-3.4883,-3.6374,-3.9287,-4.0492,-4.1777,-4.4001,-4.4346,-4.4498,-4.4938,-4.4943,-4.4877,-4.4877,-4.4657,-4.4474,-4.4474,-4.4419,-4.4327,-4.4166,-4.4153,-4.4364,-4.4892,-4.4803,-4.4833,-4.5036,-4.4432,-4.392,-4.3459,-4.2976,-4.2743,-4.2743,-4.2743,-4.2743,-4.2743,-4.2743,-4.2658,-4.2506,-4.2354,-4.2286,-4.2286,-4.2286,-4.2286,-4.2286,-4.2286,-4.1559,-4.0493,-4.0341,-4.0206,-4.007,-4.007,-4.007,-4.007,-4.007,-4.007,-4.007,-4.007,-4.007,-4.007,-3.9901,-3.9368,-3.8854,-3.8745,-3.7658,-3.6615,-3.6615,-3.6054,-3.5504,-3.5504,-3.5504,-3.5504,-3.5504,-3.5504,-3.5325,-3.4771,-3.4666,-3.4233,-3.2901,-3.2706,-3.2512,-3.1988,-3.1735,-3.1661,-3.1661,-3.1556,-3.1255,-3.0567,-2.9564,-2.8921,-2.8801,-2.7627,-2.6612,-2.5799,-2.5104,-2.4536,-2.4155,-2.433,-2.5022,-2.6241,-2.6585,-2.7414,-2.8771,-2.8956,-2.8941,-2.4634,-2.5458,-2.6523,-2.7882,-2.9247,-3.1356,0.0,-3.6354,-3.673,-3.8417,-3.9448,-4.0415,-4.1515,-4.2408,-4.334,-4.4405,-4.4575,-4.4588,-4.4657,-4.4346,-4.4117,-4.4117,-4.4087,-4.4076,-4.4076,-4.3804,-4.391,-4.4577,-4.4614,-4.4946,-4.5718,-4.5249,-4.5012,-4.5194,-4.4607,-4.4303,-4.441,-4.4372,-4.4316,-4.4316,-4.4316,-4.4316,-4.4316,-4.4316,-4.3944,-4.325,-4.2574,-4.2286,-4.2286,-4.2286,-4.2286,-4.2286,-4.2286,-4.2185,-4.1965,-4.1322,-4.0646,-4.007,-4.007,-4.007,-4.007,-4.007,-4.007,-4.007,-4.007,-4.007,-3.9952,-3.9262,-3.8962,-3.8745,-3.8092,-3.7263,-3.6615,-3.6615,-3.6054,-3.5504,-3.5504,-3.5504,-3.5504,-3.5504,-3.5504,-3.5489,-3.54,-3.5385,-3.4936,-3.3589,-3.338,-3.3365,-3.329,-3.2766,-3.2407,-3.2407,-3.1884,-3.1255,-3.0567,-3.0372,-3.0058,-2.9505,-2.8656,-2.7855,-2.7059,-2.6284,-2.5553,-2.4732,-2.5444,-2.6205,-2.6837,-2.827,-2.9403,-3.0113,-3.0807,-3.0857,-2.8962,-2.9843,-3.0375,-3.1513,-3.3406,-3.5474,-3.7466,-3.83,-3.9252,-4.1286,-4.2002,-4.2511,-4.3366,-4.3825,-4.4183,-4.4523,-4.458,-4.4527,-4.429,-4.4106,-4.3924,-4.3726,-4.3693,-4.3693,-4.3693,-4.4005,-4.4342,-4.4672,-4.5131,-4.5755,-4.6562,-4.6027,-4.5753,-4.5899,-4.5294,-4.4869,-4.457,-4.4587,-4.4587,-4.4587,-4.4587,-4.4587,-4.4587,-4.4587,-4.4401,-4.4079,-4.3758,-4.3623,-4.3623,-4.3623,-4.3623,-4.3623,-4.3623,-4.3335,-4.2861,-4.2117,-4.1644,-4.1373,-4.1373,-4.1085,-4.073,-4.073,-4.0443,-4.007,-4.007,-4.007,-4.002,-3.9662,-3.961,-3.9558,-3.9226,-3.8525,-3.793,-3.793,-3.7381,-3.6707,-3.6228,-3.6165,-3.6006,-3.5554,-3.5504,-3.5504,-3.5504,-3.5504,-3.531,-3.4756,-3.4322,-3.3918,-3.3544,-3.326,-3.308,-3.308,-3.2018,-3.1441,-3.1631,-3.0881,-3.0498,-3.0675,-2.9958,-2.9152,-2.8304,-2.7444,-2.6648,-2.5841,-2.6149,-2.6948,-2.8125,-2.9213,-3.0358,-3.1603,-3.2303,-3.2527,-3.1316,-3.2596,-3.3513,-3.4559,-3.6851,-3.8887,-3.9073,-3.9962,-4.1233,-4.2978,-4.3353,-4.354,-4.4168,-4.4299,-4.4299,-4.4299,-4.4299,-4.4194,-4.3912,-4.3849,-4.3772,-4.3513,-4.3497,-4.3497,-4.3497,-4.403,-4.4562,-4.5002,-4.5571,-4.6361,-4.7388,-4.6862,-4.647,-4.6413,-4.5815,-4.5232,-4.4643,-4.4587,-4.4587,-4.4587,-4.4587,-4.4587,-4.4587,-4.4587,-4.4587,-4.4587,-4.4587,-4.4587,-4.4587,-4.4587,-4.4587,-4.4587,-4.4587,-4.4231,-4.3673,-4.3115,-4.2534,-4.1984,-4.2233,-4.1772,-4.1177,-4.1219,-4.0832,-4.0358,-4.0138,-4.007,-4.007,-4.007,-4.007,-4.007,-4.007,-3.9489,-3.8908,-3.8908,-3.8358,-3.7573,-3.6783,-3.6615,-3.6384,-3.5604,-3.5504,-3.5504,-3.5504,-3.5504,-3.5504,-3.5504,-3.5085,-3.4592,-3.4113,-3.3888,-3.3694,-3.3514,-3.2503,-3.21,-3.2721,-3.1824,-3.1424,-3.2004,-3.1229,-3.0401,-2.9564,-2.8665,-2.7751,-2.6987,-2.7183,-2.7887,-2.9111,-2.9811,-3.0813,-3.2006,-3.246,-3.2781,-3.0467,-3.2559,-3.5302,-3.6964,-3.9441,-4.1601,-4.2069,-4.305,-4.3813,-4.3542,-4.3477,-4.3477,-4.3548,-4.3548,-4.3548,-4.3548,-4.3548,-4.3513,-4.3513,-4.3513,-4.3513,-4.3497,-4.3497,-4.3497,-4.3497,-4.3516,-4.4176,-4.5755,-4.5883,-4.6599,-4.8196,-4.7679,-4.707,-4.643,-4.5815,-4.5232,-4.4643,-4.4587,-4.4587,-4.4587,-4.4587,-4.4587,-4.4587,-4.4587,-4.4587,-4.4587,-4.4587,-4.4587,-4.4587,-4.4587,-4.4587,-4.4587,-4.4587,-4.457,-4.4536,-4.4519,-4.3076,-4.1156,-4.2001,-4.1732,-4.1007,-4.1144,-4.1187,-4.1035,-4.0307,-4.007,-4.007,-4.007,-4.007,-4.007,-4.007,-3.9489,-3.8908,-3.8908,-3.8358,-3.7573,-3.6783,-3.6615,-3.6384,-3.5604,-3.5504,-3.5504,-3.5504,-3.5504,-3.5504,-3.5504,-3.5489,-3.5474,-3.5444,-3.4861,-3.4203,-3.3559,-3.3469,-3.3455,-3.3469,-3.344,-3.344,-3.344,-3.2557,-3.1616,-3.0809,-2.9872,-2.8931,-2.8059,-2.886,-2.9329,-2.9399,-3.016,-3.0636,-3.0636,-3.0649,-3.1047,-3.3515,-3.5826,-3.7863,-3.9478,-4.1001,-4.2263,-4.2926,-4.3395,-4.3646,-4.3513,-4.3075,-4.269,-4.269,-4.269,-4.269,-4.269,-4.3149,-4.3497,-4.3497,-4.3956,-4.4103,-4.3552,-4.3975,-4.4085,-4.3534,-4.3975,-4.4745,-4.581,-4.6397,-4.7186,-4.8251,-4.7715,-4.7357,-4.7209,-4.6584,-4.6158,-4.6041,-4.6041,-4.6041,-4.6041,-4.6041,-4.6041,-4.6024,-4.5551,-4.5331,-4.5297,-4.479,-4.4587,-4.4587,-4.4587,-4.4587,-4.4587,-4.4587,-4.4587,-4.4587,-4.4587,-4.3746,-4.2624,-4.3496,-4.3288,-4.2579,-4.2635,-4.2337,-4.1779,-4.1052,-4.0832,-4.073,-4.0223,-4.007,-4.007,-4.007,-3.9901,-3.9731,-3.9731,-3.9506,-3.8995,-3.7674,-3.7397,-3.6995,-3.5733,-3.5504,-3.5504,-3.5504,-3.5504,-3.5504,-3.5504,-3.5504,-3.5504,-3.5504,-3.5295,-3.507,-3.4861,-3.3938,-3.353,-3.4143,-3.3195,-3.2616,-3.2553,-3.1738,-3.0798,-2.9925,-2.8983,-2.8375,-2.8109,-2.8375,-2.8853,-2.9381,-3.013,-3.074,-3.1268,-3.1736,-3.204,-3.6135,-3.812,-3.9588,-4.1479,-4.2359,-4.2855,-4.3369,-4.3497,-4.3406,-4.313,-4.2433,-4.1791,-4.1497,-4.1203,-4.1203,-4.1791,-4.2304,-4.2928,-4.3809,-4.4378,-4.4617,-4.4378,-4.4819,-4.4929,-4.4397,-4.4837,-4.5351,-4.5865,-4.6654,-4.7609,-4.8691,-4.8151,-4.785,-4.8024,-4.7335,-4.6931,-4.6786,-4.6786,-4.6786,-4.6786,-4.6786,-4.6786,-4.6769,-4.6312,-4.6092,-4.6075,-4.5585,-4.5229,-4.4976,-4.4976,-4.4823,-4.4587,-4.4587,-4.4587,-4.4587,-4.4587,-4.4253,-4.3814,-4.4384,-4.4063,-4.335,-4.3377,-4.3098,-4.2557,-4.1813,-4.1593,-4.1441,-4.0696,-4.0476,-4.0409,-4.0155,-4.007,-4.007,-4.007,-4.007,-3.9679,-3.8149,-3.7822,-3.7354,-3.5797,-3.5504,-3.5504,-3.5504,-3.5504,-3.5504,-3.5504,-3.5504,-3.5504,-3.5504,-3.5504,-3.5504,-3.5504,-3.4602,-3.4271,-3.4846,-3.3967,-3.3237,-3.2817,-3.1923,-3.1033,-3.0072,-2.9193,-2.8712,-2.8712,-2.8712,-2.8984,-2.9533,-2.9995,-3.0446,-3.1002,-3.1376,-3.1623,-3.8157,-3.9441,-4.0616,-4.291,-4.3497,-4.3497,-4.3497,-4.3424,-4.3149,-4.2341,-4.1479,-4.0598,-3.9735,-3.9093,-3.9184,-4.0689,-4.1093,-4.2047,-4.4378,-4.4745,-4.5039,-4.581,-4.5938,-4.5957,-4.5902,-4.5975,-4.6012,-4.6012,-4.6746,-4.7884,-4.9499,-4.8968,-4.8721,-4.887,-4.819,-4.7498,-4.6904,-4.6904,-4.6904,-4.6904,-4.6904,-4.6904,-4.6904,-4.687,-4.6853,-4.6836,-4.6802,-4.6397,-4.5771,-4.5771,-4.5314,-4.4637,-4.4637,-4.4604,-4.4587,-4.4587,-4.4587,-4.4587,-4.4587,-4.4064,-4.3386,-4.3468,-4.347,-4.3335,-4.2574,-4.2354,-4.2202,-4.1457,-4.1271,-4.1102,-4.0375,-4.0155,-4.0138,-4.0138,-4.0104,-3.9627,-3.8092,-3.7764,-3.7294,-3.5797,-3.5504,-3.5504,-3.5504,-3.5504,-3.5504,-3.5504,-3.5504,-3.5504,-3.5504,-3.5504,-3.5504,-3.5504,-3.5504,-3.5504,-3.5504,-3.5504,-3.5052,-3.4027,-3.3101,-3.2177,-3.118,-3.0279,-2.9792,-2.9792,-2.9792,-2.9792,-2.9792,-2.9792,-2.9792,-2.9792,-2.9792,-2.9792,-3.9845,-4.1515,-4.2727,-4.3332,-4.3497,-4.3497,-4.3497,-4.2561,-4.1479,-4.0671,-3.9036,-3.7258,-3.5662,-3.7302,-3.8828,-3.8462,-4.0928,-4.3314,-4.4544,-4.5223,-4.5663,-4.5883,-4.6434,-4.6562,-4.5957,-4.6985,-4.77,-4.77,-4.7884,-4.8453,-4.9517,-5.0002,-5.0053,-4.9617,-4.9448,-4.9055,-4.8426,-4.8443,-4.8443,-4.8443,-4.8443,-4.8443,-4.8426,-4.7885,-4.7631,-4.7597,-4.7039,-4.6684,-4.6515,-4.6515,-4.6075,-4.5415,-4.5415,-4.5077,-4.4587,-4.4587,-4.4587,-4.4587,-4.4587,-4.444,-4.4276,-4.4294,-4.4282,-4.4147,-4.3369,-4.3132,-4.298,-4.2219,-4.2016,-4.1965,-4.1779,-4.1322,-4.0916,-4.0916,-4.0012,-3.8924,-3.7978,-3.7338,-3.6631,-3.5668,-3.5504,-3.5504,-3.5504,-3.5504,-3.5504,-3.5504,-3.5504,-3.5504,-3.5504,-3.5504,-3.5504,-3.5504,-3.5504,-3.5504,-3.5504,-3.5504,-3.4773,-3.3031,-3.2749,-3.1901,-3.0203,-2.9934,-2.9792,-2.9792,-2.9792,-2.9792,-2.9792,-2.9792,-2.9792,-2.9792,-2.9792,-2.9365,-4.1167,-4.2543,-4.3497,-4.3497,-4.3497,-4.3204,-4.2158,-4.0946,-3.9515,-3.7606,-3.5734,-3.3988,-3.25,-3.446,-3.6461,-3.6912,-3.9753,-4.269,-4.4911,-4.5626,-4.6213,-4.7091,-4.7445,-4.7665,-4.7737,-4.842,-4.9022,-4.937,-4.9407,-4.9756,-5.06,-5.0757,-5.0715,-5.0431,-5.0136,-4.9617,-4.9001,-4.9001,-4.9001,-4.9001,-4.9001,-4.9001,-4.8984,-4.8578,-4.8392,-4.8376,-4.7953,-4.7581,-4.7293,-4.7293,-4.6853,-4.616,-4.5838,-4.5449,-4.5026,-4.4705,-4.4587,-4.4587,-4.4587,-4.4587,-4.4587,-4.4587,-4.4587,-4.4502,-4.4062,-4.3927,-4.3775,-4.2997,-4.2777,-4.2709,-4.2371,-4.1698,-4.1092,-4.1092,-3.9946,-3.8658,-3.79,-3.7122,-3.6384,-3.5604,-3.5504,-3.5504,-3.5504,-3.5504,-3.5504,-3.5504,-3.5504,-3.5504,-3.5504,-3.5504,-3.5504,-3.5504,-3.5504,-3.5504,-3.5504,-3.5067,-3.4192,-3.2678,-3.2249,-3.1328,-2.9869,-2.9792,-2.9792,-2.9792,-2.9792,-2.9792,-2.9792,-2.9792,-2.9792,-2.9792,-2.9792,-2.9197,-4.2249,-4.2965,-4.3497,-4.3497,-4.3406,-4.2727,-4.0414,-3.905,-3.7371,-3.4173,-3.2334,-3.0946,-2.9853,-3.1399,-3.3547,-3.5744,-3.8306,-4.1406,-4.5421,-4.5956,-4.6705,-4.8677,-4.8697,-4.8956,-5.0001,-5.0028,-5.0257,-5.0912,-5.1059,-5.1371,-5.1958,-5.149,-5.1185,-5.112,-5.0297,-4.9563,-4.9001,-4.9001,-4.9001,-4.9001,-4.9107,-4.9107,-4.9001,-4.9107,-4.9107,-4.9001,-4.9001,-4.8646,-4.8071,-4.8071,-4.7614,-4.687,-4.6244,-4.5872,-4.5618,-4.4976,-4.4654,-4.4587,-4.4587,-4.4587,-4.4587,-4.4587,-4.4587,-4.4587,-4.4587,-4.4587,-4.4434,-4.3775,-4.3572,-4.342,-4.276,-4.1911,-4.1173,-4.1173,-3.9919,-3.8552,-3.7763,-3.6971,-3.6275,-3.5619,-3.5504,-3.5504,-3.5504,-3.5504,-3.5504,-3.5504,-3.5504,-3.5504,-3.5504,-3.5504,-3.5569,-3.5619,-3.5554,-3.5569,-3.5619,-3.4662,-3.3602,-3.2664,-3.1742,-3.0758,-2.9869,-2.9792,-2.9792,-2.9792,-2.9792,-2.9792,-2.9792,-2.9792,-2.9702,-2.9534,-2.9534,-2.8858,-4.3057,-4.3387,-4.3497,-4.3497,-4.3002,-4.2047,-4.0286,-3.7808,-3.5166,-3.2599,-3.0564,-2.8704,-2.7035,-2.9885,-3.3034,-3.472,-3.8164,-4.1968,-4.5769,-4.6294,-4.6973,-4.8692,-4.9477,-4.9926,-5.0091,-5.1303,-5.1991,-5.1816,-5.2417,-5.2546,-5.2013,-5.2517,-5.2272,-5.1138,-4.9838,-4.9107,-4.9001,-4.9001,-4.9001,-4.9001,-4.9563,-4.9521,-4.9001,-4.9563,-4.9504,-4.9001,-4.9001,-4.8934,-4.8815,-4.8815,-4.8376,-4.7716,-4.7581,-4.6786,-4.5686,-4.5568,-4.5111,-4.4587,-4.4587,-4.4587,-4.4587,-4.4587,-4.4587,-4.4587,-4.4587,-4.4587,-4.4553,-4.4418,-4.4384,-4.435,-4.4215,-4.3096,-4.2005,-4.2005,-4.0283,-3.8463,-3.7746,-3.6575,-3.5668,-3.5504,-3.5504,-3.5504,-3.5504,-3.5504,-3.5504,-3.5504,-3.5504,-3.5504,-3.5504,-3.5504,-3.5718,-3.6337,-3.5831,-3.5733,-3.6384,-3.4934,-3.3602,-3.2664,-3.1742,-3.0758,-2.9869,-2.9792,-2.9792,-2.9792,-2.9792,-2.9792,-2.9792,-2.9792,-2.9287,-2.8426,-2.8426,-2.7348,-4.3277,-4.3497,-4.3497,-4.3497,-4.2677,-4.1108,-3.818,-3.5516,-3.2689,-2.94,-2.7689,-2.6483,-2.5555,-2.8184,-3.1097,-3.3034,-3.5703,-3.9152,-4.3806,-4.461,-4.5675,-4.8295,-4.9721,-5.066,-5.0989,-5.198,-5.2623,-5.2624,-5.2986,-5.3041,-5.2656,-5.2309,-5.1777,-5.1138,-5.009,-4.9521,-4.9521,-4.9879,-4.9879,-4.9504,-4.9821,-4.9664,-4.9001,-4.9299,-4.9316,-4.9001,-4.9001,-4.9001,-4.9001,-4.9001,-4.8798,-4.8443,-4.8071,-4.7242,-4.6227,-4.5838,-4.5229,-4.4587,-4.4587,-4.4587,-4.4587,-4.4587,-4.4587,-4.4587,-4.4587,-4.4587,-4.4587,-4.4587,-4.4587,-4.4514,-4.4064,-4.3026,-4.2002,-4.1549,-3.9932,-3.8226,-3.7208,-3.6522,-3.5908,-3.5564,-3.5504,-3.5504,-3.5504,-3.5504,-3.5504,-3.5504,-3.5504,-3.5504,-3.5504,-3.5504,-3.5619,-3.6006,-3.5733,-3.5604,-3.6006,-3.4336,-3.3101,-3.2593,-3.1267,-3.0279,-2.9792,-2.9792,-2.9792,-2.9792,-2.9792,-2.9792,-2.9792,-2.9792,-2.9197,-2.8096,-2.8096,-2.693,-4.3254,-4.3517,-4.3631,-4.3712,-4.2483,-4.0235,-3.6335,-3.3556,-3.0734,-2.6862,-2.5532,-2.5041,-2.4923,-2.6749,-2.9083,-3.1593,-3.3526,-3.6572,-4.1912,-4.3348,-4.4997,-4.8056,-5.0043,-5.1376,-5.185,-5.2559,-5.307,-5.3193,-5.3206,-5.3206,-5.3206,-5.1988,-5.1292,-5.1292,-5.0608,-5.0241,-5.0241,-5.0823,-5.0716,-4.9976,-5.0129,-4.9763,-4.9001,-4.9152,-4.9168,-4.9001,-4.9001,-4.9001,-4.9001,-4.9001,-4.9001,-4.8951,-4.8376,-4.7597,-4.6718,-4.616,-4.5365,-4.4587,-4.4587,-4.4587,-4.4587,-4.4587,-4.4587,-4.4587,-4.4587,-4.4587,-4.4587,-4.4587,-4.4587,-4.4384,-4.3502,-4.2645,-4.1739,-4.069,-3.9404,-3.8123,-3.7105,-3.6776,-3.6492,-3.5848,-3.5714,-3.5669,-3.5534,-3.5504,-3.5504,-3.5504,-3.5504,-3.5504,-3.5504,-3.5504,-3.5504,-3.5504,-3.5504,-3.5554,-3.5733,-3.3808,-3.2593,-3.2593,-3.0846,-2.9792,-2.9792,-2.9792,-2.9792,-2.9792,-2.9792,-2.9792,-2.9792,-2.9792,-2.9118,-2.7775,-2.7775,-2.6521,-4.3137,-4.3643,-4.4046,-4.4419,-4.2481,-3.9664,-3.6562,-3.3293,-3.0037,-2.6911,-2.5731,-2.5264,-2.5253,-2.6098,-2.7876,-3.1207,-3.3786,-3.707,-4.1844,-4.4547,-4.6706,-4.8557,-5.0945,-5.23,-5.1937,-5.3365,-5.4027,-5.3272,-5.3206,-5.3206,-5.3206,-5.2445,-5.2,-5.2,-5.1343,-5.0981,-5.0981,-5.1086,-5.0716,-5.0033,-5.0662,-5.0314,-4.9001,-4.9622,-4.9563,-4.9001,-4.9001,-4.9001,-4.9001,-4.9001,-4.9001,-4.9001,-4.8934,-4.8037,-4.6786,-4.6718,-4.5805,-4.4587,-4.4587,-4.4587,-4.4587,-4.4587,-4.4587,-4.4587,-4.4587,-4.4587,-4.4587,-4.4587,-4.4587,-4.4384,-4.3502,-4.2645,-4.1609,-3.9935,-3.8957,-3.8362,-3.8242,-3.7749,-3.715,-3.6522,-3.6402,-3.6207,-3.5609,-3.5504,-3.5504,-3.5504,-3.5504,-3.5504,-3.5504,-3.5504,-3.5504,-3.5504,-3.5504,-3.5782,-3.6446,-3.4076,-3.2593,-3.2593,-3.0846,-2.9792,-2.9792,-2.9792,-2.9792,-2.9792,-2.9792,-2.9792,-2.9792,-2.9792,-2.8712,-2.6637,-2.6637,-2.5389,-4.2712,-4.3624,-4.4106,-4.4501,-4.2365,-3.9312,-3.6044,-3.2832,-2.9622,-2.6366,-2.5493,-2.5303,-2.5303,-2.5572,-2.6774,-2.966,-3.0583,-3.2549,-3.7262,-3.9871,-4.2412,-4.5421,-4.9127,-5.1558,-5.1892,-5.3472,-5.4137,-5.3272,-5.3206,-5.3206,-5.3206,-5.249,-5.2112,-5.2112,-5.1856,-5.1692,-5.1692,-5.2149,-5.1777,-5.0662,-5.0981,-5.0352,-4.9001,-4.9256,-4.9256,-4.9001,-4.9001,-4.9001,-4.9001,-4.9001,-4.9001,-4.9001,-4.9001,-4.8376,-4.7411,-4.6955,-4.6143,-4.5196,-4.4739,-4.4587,-4.4587,-4.4587,-4.4587,-4.4587,-4.4587,-4.4587,-4.4587,-4.4587,-4.4587,-4.4253,-4.2909,-4.1494,-4.0255,-3.9553,-3.9215,-3.8901,-3.8482,-3.8182,-3.7808,-3.7165,-3.6746,-3.6402,-3.6148,-3.5774,-3.5504,-3.5504,-3.5504,-3.5504,-3.5504,-3.5504,-3.5504,-3.5504,-3.5504,-3.5619,-3.5879,-3.3862,-3.2593,-3.2593,-3.0846,-2.9792,-2.9792,-2.9792,-2.9792,-2.9792,-2.9792,-2.9792,-2.9792,-2.9106,-2.7947,-2.6472,-2.5808,-2.4638,-4.1406,-4.2831,-4.3649,-4.4061,-4.1694,-3.848,-3.5389,-3.2216,-2.9032,-2.5946,-2.5303,-2.5303,-2.5303,-2.5303,-2.5967,-2.8025,-2.8525,-3.0157,-3.4467,-3.7191,-4.0041,-4.3522,-4.7393,-5.0153,-5.1069,-5.2963,-5.3851,-5.3248,-5.3206,-5.3206,-5.3206,-5.2707,-5.2445,-5.2445,-5.2445,-5.2445,-5.2445,-5.2937,-5.2463,-5.1086,-5.1086,-5.0352,-4.9001,-4.9001,-4.9001,-4.9001,-4.9001,-4.9001,-4.9001,-4.9001,-4.9001,-4.9001,-4.9001,-4.8562,-4.7851,-4.7327,-4.6515,-4.5635,-4.5094,-4.4773,-4.4587,-4.4587,-4.4587,-4.4587,-4.4587,-4.4587,-4.4587,-4.4587,-4.4253,-4.3545,-4.2316,-4.0706,-3.9424,-3.9424,-3.9424,-3.929,-3.8796,-3.8691,-3.8497,-3.7823,-3.7345,-3.6985,-3.6791,-3.6372,-3.6073,-3.6073,-3.6073,-3.6073,-3.6073,-3.6073,-3.5998,-3.5804,-3.5804,-3.5714,-3.5519,-3.3685,-3.2593,-3.2593,-3.0846,-2.9792,-2.9792,-2.9792,-2.9792,-2.9792,-2.9792,-2.9792,-2.9792,-2.8688,-2.7522,-2.6483,-2.5294,-2.4372,-3.885,-4.0899,-4.2601,-4.3017,-4.0341,-3.7022,-3.4735,-3.135,-2.8074,-2.5772,-2.5303,-2.5303,-2.5303,-2.5303,-2.5591,-2.6486,-2.8736,-3.1571,-3.5012,-3.8373,-4.1412,-4.3989,-4.628,-4.8104,-4.9313,-5.1714,-5.3206,-5.3206,-5.3206,-5.3206,-5.3206,-5.3206,-5.3206,-5.3206,-5.3206,-5.3206,-5.3206,-5.3206,-5.2463,-5.1086,-5.1086,-5.0352,-4.9001,-4.9001,-4.9001,-4.9001,-4.9001,-4.9001,-4.9001,-4.9001,-4.9001,-4.9001,-4.9001,-4.8562,-4.7919,-4.7902,-4.6972,-4.5703,-4.5703,-4.5213,-4.4587,-4.4587,-4.4587,-4.4587,-4.4587,-4.4587,-4.4587,-4.4587,-4.335,-4.1997,-4.1997,-4.0706,-3.9424,-3.9424,-3.9424,-3.9424,-3.9409,-3.9409,-3.92,-3.8512,-3.8377,-3.8167,-3.7509,-3.7389,-3.7389,-3.7389,-3.7389,-3.7389,-3.7389,-3.7389,-3.715,-3.6537,-3.6477,-3.6207,-3.5564,-3.3685,-3.2593,-3.2593,-3.0846,-2.9792,-2.9792,-2.9792,-2.9792,-2.9792,-2.9792,-2.9792,-2.9792,-2.8688,-2.7522,-2.6483,-2.5294,-2.4787,-3.5392,-3.6967,-3.8156,-3.7951,-3.6138,-3.3901,-3.2032,-2.9805,-2.7601,-2.5696,-2.5303,-2.5303,-2.5303,-2.5303,-2.6341,-2.9563,-3.0756,-3.2468,-3.5853,-3.9258,-4.1912,-4.3316,-4.7662,-5.1051,-5.2292,-5.2874,-5.3206,-5.3206,-5.3206,-5.3206,-5.3206,-5.3206,-5.3206,-5.3206,-5.3206,-5.3206,-5.3206,-5.2707,-5.197,-5.1086,-5.0608,-4.9879,-4.9001,-4.9001,-4.9001,-4.9001,-4.9001,-4.9001,-4.9001,-4.9001,-4.9001,-4.9001,-4.9001,-4.8866,-4.8595,-4.8105,-4.7614,-4.7073,-4.6058,-4.5551,-4.5263,-4.4739,-4.4587,-4.4587,-4.4587,-4.4587,-4.4587,-4.4587,-4.335,-4.1997,-4.1997,-4.0706,-3.9424,-3.9424,-3.9424,-3.9424,-3.9424,-3.9424,-3.9349,-3.9125,-3.8706,-3.8317,-3.8123,-3.7704,-3.7404,-3.7404,-3.7404,-3.7404,-3.7404,-3.7404,-3.733,-3.7135,-3.712,-3.6686,-3.5594,-3.3685,-3.2593,-3.2593,-3.0846,-2.9792,-2.9792,-2.9792,-2.9792,-2.9792,-2.9792,-2.9792,-2.9792,-2.7959,-2.6461,-2.5294,-2.4957,-2.5619,-3.1698,-3.3589,-3.4871,-3.4587,-3.3237,-3.1602,-3.0217,-2.8602,-2.7005,-2.5591,-2.5303,-2.5303,-2.5303,-2.5303,-2.6283,-2.9294,-3.0314,-3.2006,-3.5738,-3.8911,-4.1771,-4.4265,-4.8201,-5.123,-5.2549,-5.3009,-5.3206,-5.3206,-5.3206,-5.3206,-5.3206,-5.3206,-5.3206,-5.3206,-5.3206,-5.3206,-5.3206,-5.249,-5.1741,-5.1086,-5.0335,-4.9664,-4.9001,-4.9001,-4.9001,-4.9001,-4.9001,-4.9001,0.0,-4.9001,-4.9001,-4.9001,-4.9001,-4.9001,-4.8951,-4.8494,-4.8156,-4.775,-4.6532,-4.594,-4.5585,-4.4823,-4.4587,-4.4587,-4.4587,-4.4587,-4.4587,-4.4587,-4.335,-4.1997,-4.1997,-4.0706,-3.9424,-3.9424,-3.9424,-3.9424,-3.9424,-3.9424,-3.9424,-3.9424,-3.9065,-3.8624,-3.822,-3.7824,-3.7386,-3.6997,-3.7315,-3.7559,-3.7559,-3.7927,-3.8063,-3.7808,-3.7778,-3.7207,-3.5745,-3.403,-3.2698,-3.2119,-3.0633,-2.9792,-2.9792,-2.9792,-2.9792,-2.9792,-2.9792,-2.9792,-2.9792,-2.7959,-2.6543,-2.5462,-2.587,-2.6767,0.0,-3.0371,-3.2275,-3.2275,-3.1102,-2.9756,-2.9006,-2.7621,0.0,-2.5457,-2.5303,-2.536,-2.5534,-2.5476,-2.5822,-2.7121,-2.8621,-3.1121,-3.5353,-3.82,-4.1723,-4.6785,-4.8346,-4.9545,-5.0864,-5.2325,-5.3206,-5.3206,-5.3206,-5.3206,-5.3206,-5.3206,-5.3206,-5.3206,-5.3206,-5.3206,-5.3206,-5.249,-5.1808,-5.1138,-5.0407,-4.9681,-4.9063,-4.9001,-4.9001,-4.9001,-4.9001,-4.9001,-4.9001,-4.9001,-4.9001,-4.9001,-4.9001,-4.9001,-4.9001,-4.9001,-4.8578,-4.7885,-4.7124,-4.643,-4.5737,-4.4993,-4.4705,-4.4654,-4.4654,-4.4621,-4.4587,-4.4587,-4.335,-4.1997,-4.1997,-4.0706,-3.9424,-3.9424,-3.9424,-3.9424,-3.9424,-3.9337,-3.9265,-3.9265,-3.925,-3.887,-3.7829,-3.7677,-3.7343,-3.6448,-3.7175,-3.7829,-3.7904,-3.8782,-3.917,-3.8527,-3.8467,-3.7816,-3.6144,-3.452,-3.2946,-3.1347,-3.0407,-2.9829,-2.9792,-2.9792,-2.9792,-2.9792,-2.9792,-2.9804,-2.9764,-2.8657,-2.7684,-2.6749,-2.78,-2.8283,-2.3081,0.0,-2.6179,-2.6169,-2.588,-2.5678,0.0,-2.589,-2.5553,-2.5341,-2.5303,-2.5909,-2.7852,-2.7159,-2.8063,-3.3449,-3.4661,-3.618,-3.9815,-4.3085,-4.6647,-5.0793,-5.1223,-5.1668,-5.2958,-5.316,-5.3206,-5.3206,-5.3206,-5.3206,-5.3206,-5.3206,-5.3206,-5.3206,-5.3206,-5.3206,-5.3206,-5.249,-5.2,-5.1856,-5.0608,-4.9936,-4.9832,-4.929,-4.9001,-4.9001,-4.9001,-4.9001,-4.9001,-4.9001,-4.9001,-4.9001,-4.9001,-4.9001,-4.9001,-4.9001,-4.89,-4.8646,-4.7919,-4.7547,-4.7276,-4.6515,-4.5889,-4.5449,-4.5449,-4.5043,-4.4587,-4.4587,-4.335,-4.1997,-4.1997,-4.0706,-3.9424,-3.9424,-3.9424,-3.9424,-3.9424,-3.8782,-3.8144,-3.8144,-3.7496,-3.6838,-3.6604,-3.6604,-3.6774,-3.7343,-3.7663,-3.8069,-3.8943,-3.9265,-3.9364,-3.9185,-3.917,-3.8527,-3.6881,-3.5152,-3.3561,-3.1942,-3.0918,-3.0231,-2.9817,-2.9792,-2.9792,-2.9792,-2.9792,-2.9564,-2.912,-2.8853,-2.8822,-2.9058,-2.9308,-2.9818,-2.0957,-2.2763,-2.4648,-2.4649,-2.4947,-2.5351,-2.5793,-2.5591,-2.5303,-2.5303,-2.5303,-2.5851,-2.768,-2.7862,-2.9352,-3.4205,-3.5955,-3.8296,-4.2893,-4.5513,-4.8267,-5.1849,-5.1743,-5.1954,-5.3378,-5.3336,-5.3206,-5.3206,-5.3206,-5.3206,-5.3206,-5.3206,-5.3206,-5.3206,-5.3206,-5.3206,-5.3206,-5.249,-5.1952,-5.1643,-5.0554,-4.9838,-4.9555,-4.9168,-4.9001,-4.9001,-4.9001,-4.9001,-4.9001,-4.9001,-4.9001,-4.9001,-4.9001,-4.9001,-4.9001,-4.9001,-4.9001,-4.89,-4.8173,-4.7699,-4.7276,-4.6532,-4.6024,-4.5652,-4.5297,-4.4908,-4.4587,-4.4587,-4.3604,-4.252,-4.2125,-4.1028,-3.9935,-3.9481,-3.9424,-3.9424,-3.9424,-3.8546,-3.7829,-3.7829,-3.693,-3.6053,-3.5588,-3.5894,-3.6212,-3.6318,-3.7204,-3.7994,-3.862,-3.9104,-3.9424,-3.9424,-3.9424,-3.8883,-3.7502,-3.6532,-3.4948,-3.259,-3.1493,-3.0733,-3.0193,-3.0168,-3.0168,-3.0168,-3.0407,-3.0406,-3.0086,-3.0086,-3.0233,-3.0538,-3.0538,-3.0881,-2.0619,-2.3043,-2.5399,-2.5014,-2.5678,-2.6409,-2.6409,-2.5832,-2.5341,-2.5486,-2.5505,-2.5957,-2.7392,-2.8779,-3.0637,-3.3513,-3.6147,-3.9758,-4.522,-4.6725,-4.8381,-5.145,-5.1264,-5.1474,-5.2964,-5.3157,-5.3206,-5.3206,-5.3206,-5.3206,-5.3206,-5.3206,-5.3206,-5.3206,-5.3206,-5.3206,-5.3206,-5.249,-5.1808,-5.1241,-5.039,-4.9722,-4.9152,-4.9063,-4.9001,-4.9001,-4.9001,-4.9001,-4.9001,-4.9001,-4.9001,-4.9001,-4.9001,-4.9001,-4.9001,-4.9001,-4.9001,-4.89,-4.8173,-4.7428,-4.6684,-4.6075,-4.5788,-4.5585,-4.4942,-4.4671,-4.4587,-4.4587,-4.3873,-4.2909,-4.2189,-4.128,-4.0309,-3.961,-3.9424,-3.9337,-3.9177,-3.8308,-3.751,-3.7357,-3.6462,-3.5507,-3.4815,-3.544,-3.5828,-3.521,-3.6646,-3.7829,-3.7994,-3.8855,-3.9424,-3.9424,-3.9424,-3.9017,-3.8144,-3.7904,-3.6674,-3.388,-3.2497,-3.1435,-3.0758,-3.0733,-3.0733,-3.0733,-3.1173,-3.1436,-3.1512,-3.1512,-3.1562,-3.165,-3.165,-3.165,-2.2023,-2.437,-2.589,-2.3716,-2.4351,-2.5495,-2.5495,-2.5399,-2.5524,-2.6314,-2.6497,-2.7624,-3.1347,-3.2222,-3.3691,-3.769,-4.1027,-4.4201,-4.7278,-4.8187,-4.9232,-5.1161,-5.1305,-5.1602,-5.2587,-5.3016,-5.3206,-5.3206,-5.3206,-5.3206,-5.3206,-5.3206,-5.3206,-5.3206,-5.3206,-5.3206,-5.3206,-5.249,-5.2047,-5.1952,-5.0591,-4.9919,-4.9821,-4.9256,-4.9001,-4.9001,-4.9001,-4.9001,-4.9001,-4.9001,-4.9001,-4.9001,-4.9001,-4.9001,-4.9001,-4.9001,-4.9001,-4.89,-4.8173,-4.7428,-4.6769,-4.6667,-4.621,-4.5686,-4.5568,-4.5094,-4.4587,-4.4587,-4.341,-4.2189,-4.2062,-4.0842,-3.9538,-3.9409,-3.9424,-3.9177,-3.8234,-3.7175,-3.6212,-3.5373,-3.4345,-3.3784,-3.4594,-3.4815,-3.5453,-3.7035,-3.7601,-3.8144,-3.9031,-3.9265,-3.9424,-3.9424,-3.9424,-3.9337,-3.9177,-3.8308,-3.7591,-3.7087,-3.4763,-3.2756,-3.1367,-3.1273,-3.1273,-3.1273,-3.1348,-3.1625,-3.2089,-3.2089,-3.234,-3.2817,-3.2817,-3.2817,-2.1254,-2.3312,-2.5063,-2.4332,-2.6467,-2.864,-2.8148,-2.8052,-2.8313,-2.9209,-2.9402,-3.0285,-3.3171,-3.4792,-3.7237,-4.1928,-4.4393,-4.6432,-4.8509,-4.8613,-4.911,-5.0778,-5.1006,-5.1359,-5.2172,-5.2858,-5.3206,-5.3206,-5.3206,-5.3206,-5.3206,-5.3206,-5.3206,-5.3206,-5.3206,-5.3206,-5.3206,-5.2131,-5.1741,-5.2065,-5.0645,-4.9976,-4.9976,-4.9316,-4.9001,-4.9001,-4.9001,-4.9001,-4.9001,-4.9001,-4.9001,-4.9001,-4.9001,-4.9001,-4.8951,-4.8562,-4.8426,-4.8308,-4.7564,-4.7073,-4.6718,-4.6346,-4.5974,-4.5635,-4.5229,-4.4857,-4.4587,-4.4587,-4.368,-4.2583,-4.2125,-4.1095,-3.999,-3.9481,-3.9424,-3.9104,-3.7994,-3.6944,-3.5894,-3.4897,-3.4275,-3.4108,-3.4581,-3.5615,-3.6724,-3.7677,-3.8308,-3.8855,-3.9337,-3.9424,-3.9424,-3.9424,-3.9424,-3.9424,-3.9424,-3.8943,-3.7919,-3.6253,-3.4634,-3.3177,-3.1921,-3.1838,-3.1838,-3.1838,-3.2139,-3.2428,-3.2679,-3.2679,-3.2817,-3.3081,-3.3081,-3.3081,-2.0792,-2.2601,-2.4582,-2.5409,-2.8082,-3.0583,-3.091,-3.0667,-3.0871,-3.2545,-3.2891,-3.3364,-3.4902,-3.7212,-4.0431,-4.5143,-4.6624,-4.7683,-4.9067,-4.8802,-4.8955,-5.0146,-5.0416,-5.0747,-5.1371,-5.2179,-5.2729,-5.2913,-5.2931,-5.3004,-5.3206,-5.3206,-5.3206,-5.3206,-5.3206,-5.3206,-5.3206,-5.1988,-5.1593,-5.2065,-5.05,-4.9936,-5.0241,-4.9359,-4.9107,-4.9212,-4.9046,-4.9001,-4.9001,-4.9001,-4.9001,-4.9001,-4.9001,-4.89,-4.8663,-4.7919,-4.7547,-4.731,-4.6735,-4.643,-4.6177,-4.5635,-4.5449,-4.5331,-4.4756,-4.4587,-4.4587,-4.4587,-4.3814,-4.2847,-4.2189,-4.1213,-4.0239,-3.9538,-3.9424,-3.9031,-3.7738,-3.6774,-3.5894,-3.4897,-3.4664,-3.4828,-3.5305,-3.6724,-3.7904,-3.8144,-3.887,-3.9424,-3.9424,-3.9424,-3.9424,-3.9424,-3.9424,-3.9424,-3.9424,-3.9424,-3.8144,-3.521,-3.4377,-3.3502,-3.25,-3.2416,-3.2416,-3.2416,-3.2855,-3.3081,-3.3081,-3.3081,-3.3081,-3.3081,-3.3081,-3.3081,-2.2197,-2.3889,-2.5418,-2.6294,-2.6736,-2.7986,-3.1833,-3.1525,-3.1545,-3.5611,-3.643,-3.6724,-3.7651,-3.9858,-4.2701,-4.624,-4.749,-4.8202,-4.877,-4.9159,-4.93,-4.9052,-4.9418,-4.9701,-4.9756,-5.049,-5.1279,-5.2032,-5.2087,-5.2417,-5.317,-5.3206,-5.3206,-5.3206,-5.3206,-5.3206,-5.3206,-5.2445,-5.2047,-5.2065,-5.0033,-4.9739,-5.0981,-4.9639,-4.9359,-4.9861,-4.9256,-4.9001,-4.9001,-4.9001,-4.9001,-4.9001,-4.9001,-4.8595,-4.7902,-4.7141,-4.6447,-4.5855,-4.5805,-4.5331,-4.4722,-4.4671,-4.4654,-4.4654,-4.4604,-4.4587,-4.4587,-4.4587,-4.341,-4.2062,-4.1997,-4.0774,-3.9481,-3.9409,-3.9424,-3.8855,-3.676,-3.6277,-3.5894,-3.4897,-3.4664,-3.5305,-3.7281,-3.7677,-3.8144,-3.9104,-3.9337,-3.9424,-3.9424,-3.9424,-3.9424,-3.9424,-3.9424,-3.9424,-3.9424,-3.9424,-3.8457,-3.6212,-3.5157,-3.4126,-3.3091,-3.3018,-3.3018,-3.3018,-3.3056,-3.3081,-3.3081,-3.3081,-3.3081,-3.3081,-3.3081,-3.3081,-2.1081,-2.3235,-2.5524,-2.6429,-2.7824,-2.9794,-3.2987,-3.4026,-3.5391,-3.9142,-3.9912,-4.0319,-4.1703,-4.2722,-4.4124,-4.6509,-4.7586,-4.826,-4.8724,-4.9197,-4.9356,-4.8963,-4.9289,-4.9591,-4.9591,-5.0325,-5.093,-5.1224,-5.1242,-5.1389,-5.1701,-5.172,-5.172,-5.172,-5.2197,-5.2454,-5.2454,-5.2236,-5.2335,-5.2769,-5.1086,-5.0554,-5.1086,-5.009,-4.9504,-4.9359,-4.9107,-4.9001,-4.9001,-4.9001,-4.8731,-4.8291,-4.7817,-4.7462,-4.7124,-4.6397,-4.594,-4.5635,-4.5179,-4.4823,-4.4587,-4.4587,-4.4587,-4.4587,-4.4587,-4.4587,-4.4587,-4.4587,-4.3739,-4.2707,-4.2125,-4.0706,-3.9424,-3.9424,-3.9424,-3.9017,-3.7496,-3.7175,-3.6866,-3.5828,-3.616,-3.688,-3.7677,-3.8383,-3.8943,-3.9337,-3.9424,-3.9424,-3.9424,-3.9424,-3.9424,-3.9424,-3.9424,-3.9424,-3.9424,-3.8782,-3.7738,-3.6277,-3.5814,-3.4884,-3.3154,-3.3081,-3.3081,-3.3081,-3.3081,-3.3081,-3.3081,-3.3081,-3.3081,-3.3081,-3.3081,-3.3081,-2.0688,-2.2765,-2.5236,-2.6371,-2.8578,-3.1325,-3.47,-3.6329,-3.8238,-4.2239,-4.2854,-4.3069,-4.4451,-4.4489,-4.4951,-4.6951,-4.774,-4.8316,-4.8922,-4.9286,-4.9295,-4.8779,-4.9011,-4.9187,-4.9187,-4.9682,-5.0123,-5.0398,-5.0417,-5.0527,-5.0784,-5.0802,-5.0802,-5.0802,-5.1334,-5.161,-5.161,-5.1686,-5.196,-5.2454,-5.1455,-5.1167,-5.1352,-5.0186,-4.9395,-4.8918,-4.8515,-4.8308,-4.8308,-4.8308,-4.802,-4.7479,-4.6735,-4.6447,-4.6363,-4.5618,-4.5348,-4.528,-4.4756,-4.4587,-4.4587,-4.4587,-4.4587,-4.4587,-4.4587,-4.4587,-4.4587,-4.4587,-4.3948,-4.3169,-4.2583,-4.1095,-3.9793,-3.9793,-3.961,-3.9104,-3.7994,-3.7829,-3.7587,-3.6852,-3.7266,-3.7919,-3.8234,-3.8943,-3.9424,-3.9424,-3.9424,-3.9424,-3.9424,-3.9424,-3.9424,-3.9424,-3.9424,-3.9424,-3.9424,-3.8383,-3.7343,-3.629,-3.5894,-3.4966,-3.3154,-3.3081,-3.3081,-3.3081,-3.3081,-3.3081,-3.3081,-3.3081,-3.3081,-3.3081,-3.3081,-3.2884,-2.1498,-2.2851,-2.461,-2.6217,-2.8608,-3.1913,-3.7045,-3.8113,-3.9488,-4.4718,-4.5124,-4.4741,-4.547,-4.4893,-4.5143,-4.7663,-4.8086,-4.8426,-4.9344,-4.9504,-4.9202,-4.8402,-4.8306,-4.8306,-4.8306,-4.8306,-4.8655,-4.9499,-4.9572,-4.9921,-5.0729,-5.0784,-5.0784,-5.0784,-5.0784,-5.0802,-5.0802,-5.0802,-5.0802,-5.0802,-5.0802,-5.1206,-5.1917,-4.9849,-4.8872,-4.8735,-4.7391,-4.6786,-4.6786,-4.6786,-4.6786,-4.6718,-4.5974,-4.5703,-4.5602,-4.4857,-4.4587,-4.4587,-4.4587,-4.4587,-4.4587,-4.4587,-4.4587,-4.4587,-4.4587,-4.4587,-4.4587,-4.4587,-4.4006,-4.3306,-4.3306,-4.1997,-4.069,-4.069,-4.0045,-3.9104,-3.8069,-3.7829,-3.7829,-3.7829,-3.7829,-3.8144,-3.9192,-3.9424,-3.9424,-3.9424,-3.9424,-3.9424,-3.9424,-3.9424,-3.9424,-3.9424,-3.9424,-3.9424,-3.9424,-3.8383,-3.7343,-3.6277,-3.5197,-3.4191,-3.3154,-3.3081,-3.3081,-3.3081,-3.3081,-3.3081,-3.3081,-3.3081,-3.3081,-3.3081,-3.3081,-3.2426,-2.1722,-2.414,-2.7055,-2.8152,-3.1728,-3.5881,-3.9258,-3.9877,-4.0873,-4.4836,-4.5451,-4.5336,-4.5547,-4.5374,-4.5451,-4.622,-4.7086,-4.7705,-4.7739,-4.8502,-4.8863,-4.8364,-4.8306,-4.8306,-4.8306,-4.8306,-4.8416,-4.8673,-4.8691,-4.8783,-4.904,-4.904,-4.904,-4.904,-4.9627,-4.9958,-4.9958,-5.0508,-5.0802,-5.0802,-5.0802,-5.0652,-5.0351,-4.9301,-4.8539,-4.7961,-4.7141,-4.6786,-4.6752,-4.6244,-4.6024,-4.5957,-4.5196,-4.4925,-4.4891,-4.4654,-4.4587,-4.4587,-4.4587,-4.4587,-4.4587,-4.4587,-4.4587,-4.4587,-4.4587,-4.4587,-4.4587,-4.4587,-4.4384,-4.4196,-4.4196,-4.2892,-4.1478,-4.0826,-4.0045,-3.9337,-3.9017,-3.8943,-3.8943,-3.8943,-3.8943,-3.9017,-3.9337,-3.9424,-3.9424,-3.9424,-3.9424,-3.9424,-3.9424,-3.9424,-3.9424,-3.9424,-3.9424,-3.9104,-3.8308,-3.7252,-3.6225,-3.521,-3.4191,-3.3398,-3.3081,-3.3081,-3.3081,-3.3081,-3.3081,-3.3081,-3.3081,-3.3081,-3.3081,-3.3081,-3.3081,-3.2426,-2.2966,-2.5486,-2.8425,-3.0297,-3.3886,-3.793,-4.1525,-4.2498,-4.3217,-4.5276,-4.568,-4.5643,-4.5605,-4.5586,-4.5701,-4.6067,-4.6762,-4.7194,-4.7003,-4.7932,-4.8427,-4.7886,-4.8122,-4.8306,-4.8306,-4.8306,-4.8306,-4.8306,-4.8306,-4.8306,-4.8306,-4.8306,-4.8306,-4.8306,-4.8802,-4.9077,-4.9077,-4.9554,-4.9811,-4.9811,-4.9811,-4.9555,-4.9107,-4.8615,-4.7799,-4.6773,-4.6198,-4.5906,-4.5872,-4.5449,-4.5263,-4.5213,-4.4756,-4.4587,-4.4587,-4.4587,-4.4587,-4.4587,-4.4587,-4.4587,-4.4587,-4.4587,-4.4587,-4.4587,-4.4587,-4.4587,-4.4587,-4.4587,-4.4587,-4.4587,-4.4587,-4.329,-4.1869,-4.1346,-4.0324,-3.9424,-3.9424,-3.9424,-3.9424,-3.9424,-3.9424,-3.9424,-3.9424,-3.9424,-3.9424,-3.9424,-3.9424,-3.9424,-3.9424,-3.9424,-3.9424,-3.9424,-3.9424,-3.8943,-3.7904,-3.6852,-3.5734,-3.4746,-3.3713,-3.3081,-3.3081,-3.3081,-3.3081,-3.3081,-3.3081,-3.3081,-3.3081,-3.3081,-3.3081,-3.3081,-3.2612,-3.1689,-2.4756,-2.6843,-2.9129,-3.2502,-3.5534,-3.895,-4.3752,-4.5389,-4.5885,-4.5815,-4.5796,-4.5738,-4.5605,-4.5586,-4.5855,-4.6644,-4.6818,-4.6873,-4.6887,-4.7542,-4.781,-4.7151,-4.7755,-4.8233,-4.8306,-4.8306,-4.8306,-4.8306,-4.8306,-4.8306,-4.8306,-4.8306,-4.8306,-4.8306,-4.8306,-4.8306,-4.8306,-4.8306,-4.8306,-4.8306,-4.8306,-4.8267,-4.819,-4.7769,-4.6797,-4.5372,-4.4869,-4.4587,-4.4587,-4.4587,-4.4587,-4.4587,-4.4587,-4.4587,-4.4587,-4.4587,-4.4587,-4.4587,-4.4587,-4.4587,-4.4587,-4.4587,-4.4587,-4.4587,-4.4587,-4.4587,-4.4587,-4.4587,-4.4587,-4.4587,-4.4587,-4.329,-4.1997,-4.1997,-4.0638,-3.9424,-3.9424,-3.9424,-3.9424,-3.9424,-3.9424,-3.9424,-3.9424,-3.9424,-3.9424,-3.9424,-3.9424,-3.9424,-3.9424,-3.9424,-3.9424,-3.9424,-3.9337,-3.8782,-3.7753,-3.6696,-3.5668,-3.4581,-3.3641,-3.3081,-3.3081,-3.3081,-3.3081,-3.3081,-3.3081,-3.3081,-3.3081,-3.3081,-3.3068,-3.2896,-3.1777,-3.0496,-2.5043,-2.7804,-3.0953,-3.4367,-3.875,-4.285,-4.5375,-4.5939,-4.5891,-4.5806,-4.5719,-4.5624,-4.5605,-4.5586,-4.5663,-4.5836,-4.6205,-4.6348,-4.6078,-4.6484,-4.6861,-4.7058,-4.726,-4.7627,-4.8251,-4.8306,-4.8306,-4.8306,-4.8306,-4.8306,-4.8306,-4.8306,-4.8306,-4.8306,-4.8306,-4.8306,-4.8306,-4.8306,-4.8306,-4.8306,-4.8306,-4.8035,-4.7572,-4.6952,-4.599,-4.4776,-4.4682,-4.4587,-4.4587,-4.4587,-4.4587,-4.4587,-4.4587,-4.4587,-4.4587,-4.4587,-4.4587,-4.4587,-4.4587,-4.4587,-4.4587,-4.4587,-4.4587,-4.4587,-4.4587,-4.4587,-4.4587,-4.4587,-4.4587,-4.4587,-4.4587,-4.329,-4.1997,-4.1997,-4.0638,-3.9424,-3.9424,-3.9424,-3.9424,-3.9424,-3.9424,-3.9424,-3.9424,-3.9424,-3.9424,-3.9424,-3.9424,-3.9424,-3.9424,-3.9424,-3.9424,-3.9424,-3.8634,-3.7738,-3.6604,-3.5601,-3.4581,-3.3471,-3.324,-3.3081,-3.3081,-3.3081,-3.3081,-3.3081,-3.3081,-3.3081,-3.3081,-3.3081,-3.2612,-3.1589,-3.1311,-3.0045,-2.542,-2.844,-3.1868,-3.6593,-4.0722,-4.4001,-4.537,-4.5781,-4.589,-4.5861,-4.5719,-4.5586,-4.5586,-4.5586,-4.555,-4.54,-4.5564,-4.5523,-4.5012,-4.5431,-4.5853,-4.5938,-4.6305,-4.6691,-4.7113,-4.7498,-4.7737,-4.7737,-4.8086,-4.8306,-4.8306,-4.8306,-4.8306,-4.8306,-4.8306,-4.8306,-4.8306,-4.8306,-4.8306,-4.8306,-4.8306,-4.7977,-4.7385,-4.6401,-4.5648,-4.5052,-4.5052,-4.4869,-4.4626,-4.4906,-4.4852,-4.4587,-4.4587,-4.4587,-4.4587,-4.4587,-4.4587,-4.4587,-4.4587,-4.4587,-4.4587,-4.4587,-4.4587,-4.4587,-4.4587,-4.4587,-4.4587,-4.4587,-4.4587,-4.4587,-4.4587,-4.329,-4.1997,-4.1997,-4.0638,-3.9424,-3.9424,-3.9424,-3.9424,-3.9424,-3.9424,-3.9424,-3.9424,-3.9424,-3.9424,-3.9424,-3.9424,-3.9424,-3.9424,-3.9424,-3.9177,-3.8708,-3.8144,-3.719,-3.5588,-3.4979,-3.4275,-3.3154,-3.3081,-3.3081,-3.3081,-3.3081,-3.3081,-3.3081,-3.3081,-3.2797,-3.2152,-3.2152,-3.1589,-3.0305,-2.9772,-2.8773,-2.498,-2.8496,-3.2461,-3.8418,-4.1591,-4.3576,-4.4737,-4.5362,-4.5725,-4.5861,-4.5738,-4.5586,-4.5586,-4.5586,-4.5495,-4.514,-4.5096,-4.4853,-4.4117,-4.4575,-4.4939,-4.4707,-4.5296,-4.5755,-4.5883,-4.6507,-4.6911,-4.6911,-4.7517,-4.7884,-4.7884,-4.7884,-4.7957,-4.8104,-4.8104,-4.8159,-4.8306,-4.8306,-4.8306,-4.8306,-4.8306,-4.8035,-4.753,-4.6353,-4.5783,-4.5648,-4.5563,-4.5232,-4.4776,-4.5178,-4.5052,-4.4587,-4.4587,-4.4587,-4.4587,-4.4587,-4.4587,-4.4587,-4.4587,-4.4587,-4.4587,-4.4587,-4.4587,-4.4587,-4.4587,-4.4587,-4.4587,-4.4587,-4.4587,-4.4587,-4.4587,-4.329,-4.1997,-4.1997,-4.0638,-3.9424,-3.9424,-3.9424,-3.9424,-3.9424,-3.9424,-3.9424,-3.9424,-3.9424,-3.9424,-3.9424,-3.9424,-3.9424,-3.9424,-3.9265,-3.8782,-3.7904,-3.751,-3.6568,-3.4828,-3.4511,-3.4037,-3.3154,-3.3081,-3.3081,-3.3081,-3.3081,-3.3081,-3.3081,-3.3081,-3.2426,-3.1223,-3.1223,-3.0496,-2.9039,-2.8038,-2.7589,-2.1992,-2.7187,-3.3281,-3.8574,-4.072,-4.214,-4.4472,-4.4933,-4.5064,-4.5764,-4.5738,-4.5586,-4.5586,-4.5586,-4.5495,-4.514,-4.5096,-4.4853,-4.4117,-4.4091,-4.4308,-4.4652,-4.48,-4.5131,-4.5828,-4.5993,-4.6067,-4.6067,-4.6159,-4.6214,-4.6214,-4.6214,-4.6544,-4.726,-4.7278,-4.7609,-4.8306,-4.8306,-4.8306,-4.8306,-4.8306,-4.8267,-4.8172,-4.747,-4.6819,-4.624,-4.5732,-4.5459,-4.5372,-4.4906,-4.4682,-4.4587,-4.4587,-4.4587,-4.4587,-4.4587,-4.4587,-4.4587,-4.4587,-4.4587,-4.4587,-4.4587,-4.4587,-4.4587,-4.4587,-4.4587,-4.4587,-4.4587,-4.4587,-4.4587,-4.4587,-4.329,-4.1997,-4.1997,-4.0638,-3.9424,-3.9424,-3.9424,-3.9424,-3.9424,-3.9424,-3.9424,-3.9424,-3.9424,-3.9424,-3.9424,-3.9424,-3.9424,-3.9424,-3.862,-3.7994,-3.7829,-3.6174,-3.4979,-3.4746,-3.3882,-3.324,-3.3081,-3.3081,-3.3081,-3.3081,-3.3081,-3.3081,-3.3081,-3.3081,-3.2426,-3.1223,-3.1223,-3.0045,-2.7861,-2.7683,-2.7589,-2.3633,-2.8047,-3.248,-3.668,-3.9043,-4.0781,-4.2383,-4.37,-4.4689,-4.5044,-4.5374,-4.5586,-4.5586,-4.5586,-4.5438,-4.4896,-4.4825,-4.4561,-4.3836,-4.3726,-4.3808,-4.4009,-4.403,-4.4176,-4.4507,-4.4966,-4.5241,-4.5241,-4.5645,-4.5902,-4.5902,-4.5902,-4.6067,-4.6434,-4.6434,-4.6599,-4.6948,-4.7407,-4.7865,-4.8306,-4.8306,-4.8306,-4.8306,-4.8035,-4.7572,-4.6955,-4.6682,-4.6353,-4.5965,-4.5732,-4.5407,-4.5089,-4.472,-4.4587,-4.4587,-4.4587,-4.4587,-4.4587,-4.4587,-4.4587,-4.4587,-4.4587,-4.4587,-4.4587,-4.4587,-4.4587,-4.4587,-4.4587,-4.4587,-4.4514,-4.4006,-4.297,-4.1869,-4.1412,-4.0309,-3.9424,-3.9424,-3.9424,-3.9424,-3.9424,-3.9424,-3.9424,-3.9424,-3.9424,-3.9424,-3.9424,-3.9424,-3.9424,-3.9424,-3.8472,-3.7587,-3.6944,-3.5601,-3.4428,-3.3882,-3.3398,-3.3081,-3.3081,-3.3081,-3.3081,-3.3081,-3.3081,-3.3081,-3.3081,-3.3081,-3.2426,-3.1223,-3.1223,-3.0316,-2.8588,-2.8588,-2.8588,-2.418,-2.7285,-2.9844,-3.373,-3.6582,-3.8827,-4.0324,-4.2167,-4.3689,-4.4083,-4.4605,-4.5028,-4.522,-4.5451,-4.5419,-4.4806,-4.4676,-4.4364,-4.3726,-4.3529,-4.3497,-4.3497,-4.3497,-4.3497,-4.3497,-4.4048,-4.4397,-4.4397,-4.4947,-4.5278,-4.5278,-4.5278,-4.5369,-4.559,-4.5608,-4.5681,-4.5902,-4.6507,-4.7205,-4.8012,-4.8012,-4.8104,-4.8306,-4.8306,-4.8035,-4.7614,-4.7488,-4.7106,-4.6664,-4.6478,-4.6046,-4.5459,-4.4998,-4.472,-4.4587,-4.4587,-4.4587,-4.4587,-4.4587,-4.4587,-4.4587,-4.4587,-4.4587,-4.4587,-4.4587,-4.4587,-4.4587,-4.4587,-4.4587,-4.4384,-4.3502,-4.2645,-4.1804,-4.0878,-4.0045,-3.9424,-3.9424,-3.9424,-3.9424,-3.9424,-3.9424,-3.9424,-3.9424,-3.9424,-3.9424,-3.9424,-3.9424,-3.9265,-3.9017,-3.8069,-3.7021,-3.5894,-3.4884,-3.3953,-3.3154,-3.3081,-3.3081,-3.3081,-3.3081,-3.3081,-3.3081,-3.3081,-3.3081,-3.3081,-3.3081,-3.2426,-3.1223,-3.1223,-3.0406,-2.8947,-2.8947,-2.9131,-2.0957,-2.2812,-2.4746,-2.9883,-3.3086,-3.5801,-3.9045,-4.0395,-4.1416,-4.2948,-4.3258,-4.3451,-4.422,-4.5028,-4.5495,-4.5118,-4.4825,-4.4447,-4.4028,-4.3693,-4.3497,-4.3497,-4.3497,-4.3497,-4.3497,-4.3534,-4.3552,-4.3552,-4.3589,-4.3608,-4.3608,-4.3608,-4.3975,-4.4745,-4.4764,-4.5131,-4.5883,-4.5938,-4.6379,-4.7186,-4.7186,-4.7572,-4.8306,-4.8306,-4.8267,-4.821,-4.7656,-4.7385,-4.7299,-4.6664,-4.6046,-4.5511,-4.5459,-4.5089,-4.4587,-4.4587,-4.4587,-4.4587,-4.4587,-4.4587,-4.4587,-4.4587,-4.4587,-4.4587,-4.4587,-4.4587,-4.4587,-4.4587,-4.4587,-4.4384,-4.3502,-4.2645,-4.1804,-4.0878,-4.0045,-3.9424,-3.9424,-3.9424,-3.9424,-3.9424,-3.9424,-3.9424,-3.9424,-3.9424,-3.9424,-3.9424,-3.9424,-3.9017,-3.7994,-3.693,-3.5894,-3.4897,-3.3797,-3.3154,-3.3081,-3.3081,-3.3081,-3.3081,-3.3081,-3.3081,-3.3081,-3.3081,-3.3081,-3.3081,-3.3081,-3.2426,-3.1223,-3.1223,-2.9943,-2.7673,-2.7673,-2.8319,-1.959,-2.1602,-2.3945,-2.7519,-3.0273,-3.2888,-3.5773,-3.781,-3.9554,-4.1239,-4.1947,-4.2505,-4.3374,-4.4201,-4.4767,-4.4778,-4.4682,-4.4392,-4.3758,-4.3563,-4.3497,-4.3497,-4.3497,-4.3497,-4.3497,-4.3497,-4.3497,-4.3497,-4.3497,-4.3497,-4.3497,-4.3497,-4.3626,-4.392,-4.392,-4.4323,-4.5131,-4.5131,-4.5535,-4.6342,-4.6342,-4.6489,-4.6764,-4.6764,-4.6764,-4.6764,-4.6539,-4.7028,-4.7937,-4.7281,-4.691,-4.6682,-4.6257,-4.5965,-4.5681,-4.532,-4.5178,-4.5142,-4.472,-4.4587,-4.4587,-4.4587,-4.4587,-4.4587,-4.4587,-4.4587,-4.4587,-4.4587,-4.4196,-4.3545,-4.2707,-4.1804,-4.0961,-4.0045,-3.961,-3.9424,-3.9424,-3.9424,-3.9424,-3.9424,-3.9424,-3.9424,-3.9424,-3.9424,-3.9424,-3.9424,-3.9424,-3.9017,-3.7919,-3.742,-3.6866,-3.5734,-3.4733,-3.4108,-3.4108,-3.3471,-3.3081,-3.3081,-3.3081,-3.3081,-3.3081,-3.3081,-3.3081,-3.3081,-3.3081,-3.2884,-3.2426,-3.1589,-3.0765,-2.9852,-2.9143,-2.8958,-1.8206,-2.0049,-2.248,-2.5391,-2.7363,-2.9551,-3.3301,-3.5363,-3.703,-3.8989,-4.0254,-4.1254,-4.2066,-4.2893,-4.3636,-4.4241,-4.4241,-4.4045,-4.3721,-4.3563,-4.3497,-4.3497,-4.3497,-4.3497,-4.3497,-4.3497,-4.3497,-4.3497,-4.3497,-4.3497,-4.3497,-4.3497,-4.3497,-4.3497,-4.3497,-4.3754,-4.4287,-4.4305,-4.4709,-4.5498,-4.5498,-4.5645,-4.5902,-4.5902,-4.5902,-4.5902,-4.5902,-4.6507,-4.7479,-4.7347,-4.7174,-4.6981,-4.6802,-4.6618,-4.63,-4.5667,-4.5422,-4.5425,-4.4707,-4.4555,-4.4587,-4.4587,-4.4587,-4.4587,-4.4587,-4.4587,-4.4587,-4.4587,-4.4196,-4.3486,-4.2316,-4.1147,-4.0115,-3.9553,-3.9424,-3.9424,-3.9424,-3.9424,-3.9424,-3.9424,-3.9424,-3.9424,-3.9424,-3.9424,-3.9424,-3.9424,-3.9424,-3.9017,-3.7919,-3.7829,-3.742,-3.6277,-3.5278,-3.4664,-3.4664,-3.3713,-3.3081,-3.3081,-3.3081,-3.3081,-3.3081,-3.3081,-3.3081,-3.3081,-3.3081,-3.2884,-3.2426,-3.1589,-3.0944,-3.0586,-2.9315,-2.9039,0.0,0.0,0.0,-2.3457,-2.4316,-2.5898,-3.1777,-3.3125,-3.3827,-3.623,-3.8065,-3.9492,-4.0277,-4.1123,-4.2136,-4.3458,-4.3455,-4.3423,-4.3897,-4.3656,-4.3461,-4.3497,-4.3497,-4.3497,-4.3497,-4.3497,-4.3497,-4.3497,-4.3497,-4.3497,-4.3497,-4.3497,-4.3497,-4.3497,-4.3497,-4.3497,-4.3497,-4.3497,-4.3883,-4.4672,-4.4672,-4.5076,-4.5828,-4.5828,-4.5828,-4.5828,-4.5828,-4.5828,-4.5883,-4.6728,-4.6734,-4.6266,-4.7066,-4.6972,-4.6318,-4.5446,-4.5295,-4.5338,-4.4509,-4.4367,-4.4502,-4.4502,-4.4536,-4.4536,-4.4536,-4.4553,-4.4587,-4.4587,-4.457,-4.4121,-4.2379,-4.0653,-3.9424,-3.9424,-3.9424,-3.9424,-3.9424,-3.9424,-3.9424,-3.9424,-3.9424,-3.9424,-3.9424,-3.9424,-3.9424,-3.9424,-3.9424,-3.9017,-3.7919,-3.7829,-3.742,-3.629,-3.5359,-3.4746,-3.4664,-3.3713,-3.3081,-3.3081,-3.3081,-3.3081,-3.3081,-3.3081,-3.3081,-3.3081,-3.3081,-3.2426,-3.1223,-3.1134,-3.0496,-2.9315,-2.8143,-2.8226,-1.7819,0.0,0.0,0.0,0.0,0.0,-2.7949,-2.9199,-3.0655,-3.4299,-3.5396,-3.6325,-3.8315,-3.8892,-3.9487,-4.0825,-4.1821,-4.2498,-4.2746,-4.2684,-4.2837,-4.3424,-4.3497,-4.3497,-4.3497,-4.3497,-4.3497,-4.3497,-4.3497,-4.3497,-4.3497,-4.3497,-4.3497,-4.3497,-4.3497,-4.3497,-4.3497,-4.3497,-4.3608,-4.3828,-4.3828,-4.3938,-4.4158,-4.4158,-4.4158,-4.4158,-4.4158,-4.4158,-4.4268,-4.5663,-4.614,-4.6008,-4.6209,-4.6205,-4.5896,-4.4831,-4.4435,-4.4313,-4.3237,-4.2887,-4.2929,-4.2929,-4.3301,-4.3741,-4.3741,-4.413,-4.4587,-4.4587,-4.3663,-4.2316,-4.0585,-3.9737,-3.9424,-3.9424,-3.9424,-3.9424,-3.9424,-3.9424,-3.9424,-3.9424,-3.9424,-3.9424,-3.9424,-3.9424,-3.9424,-3.9424,-3.9424,-3.9017,-3.7919,-3.8472,-3.8219,-3.6369,-3.5974,-3.5521,-3.4746,-3.3713,-3.3081,-3.3081,-3.3081,-3.3081,-3.3081,-3.3081,-3.3081,-3.3081,-3.2239,-3.1589,-3.1223,-3.0305,-2.9315,-2.8049,-2.7778,-2.8226,-1.9249,-2.0204,-2.1685,-2.2,0.0,0.0,-2.6699,-2.7344,-2.814,-3.1573,-3.3113,-3.4263,-3.5622,-3.6738,-3.7682,-3.8346,-3.973,-4.1022,-4.1884,-4.1889,-4.1974,-4.2433,-4.28,-4.3002,-4.3002,-4.3296,-4.3497,-4.3497,-4.3497,-4.3497,-4.3497,-4.3497,-4.3497,-4.3497,-4.3497,-4.3497,-4.3497,-4.3497,-4.3497,-4.3497,-4.3497,-4.3497,-4.3497,-4.3497,-4.3497,-4.3497,-4.3497,-4.3497,-4.3552,-4.4507,-4.5094,-4.5424,-4.5773,-4.5902,-4.5773,-4.4461,-4.4066,-4.3941,-4.2632,-4.2278,-4.2286,-4.2286,-4.2591,-4.2946,-4.2946,-4.3267,-4.369,-4.3995,-4.3102,-4.1739,-4.0774,-3.9935,-3.9424,-3.9424,-3.9424,-3.9424,-3.9424,-3.9424,-3.9424,-3.9424,-3.9424,-3.9424,-3.9424,-3.9424,-3.9424,-3.9424,-3.9424,-3.9177,-3.8546,-3.9017,-3.8782,-3.7021,-3.6448,-3.5814,-3.4828,-3.3713,-3.3081,-3.3081,-3.3081,-3.3081,-3.3081,-3.3081,-3.2884,-3.2339,-3.1589,-3.0676,-2.9681,-2.8947,-2.8038,-2.6849,-2.7315,-2.8226,-2.0945,-2.1357,-2.2373,-2.3813,-2.268,0.0,-2.6738,-2.6758,-2.6442,-2.8591,-3.0944,-3.2634,-3.2622,-3.4468,-3.5936,-3.5806,-3.7146,-3.8965,-4.1017,-4.1169,-4.108,-4.1111,-4.175,-4.2191,-4.2176,-4.2892,-4.3369,-4.3369,-4.3442,-4.3497,-4.3497,-4.3497,-4.3497,-4.3497,-4.3497,-4.3497,-4.3497,-4.3497,-4.3497,-4.3497,-4.3497,-4.3497,-4.3497,-4.3497,-4.3497,-4.3497,-4.3497,-4.3497,-4.3497,-4.3497,-4.392,-4.4654,-4.5351,-4.5626,-4.5462,-4.415,-4.3727,-4.3686,-4.2362,-4.197,-4.2049,-4.2049,-4.21,-4.2168,-4.2168,-4.2236,-4.2422,-4.2863,-4.2386,-4.1741,-4.1628,-4.0523,-3.9424,-3.9424,-3.9424,-3.9424,-3.9424,-3.9424,-3.9424,-3.9424,-3.9424,-3.9424,-3.9424,-3.9424,-3.9424,-3.9424,-3.9424,-3.9424,-3.9424,-3.9424,-3.8943,-3.7753,-3.6774,-3.5734,-3.4581,-3.3641,-3.3081,-3.3081,-3.3081,-3.3081,-3.3081,-3.3081,-3.2513,-3.1211,-3.0944,-2.967,-2.74,-2.74,-2.6849,-2.5732,-2.7125,-2.8402,-2.2926,-2.358,-2.4505,-2.3573,-2.4496,0.0,-2.4355,-2.5488,-2.6852,-2.7219,-2.8257,-2.9454,-3.066,-3.1282,-3.1827,-3.2493,-3.3777,-3.5835,-3.9144,-4.0315,-4.0933,-4.1084,-4.149,-4.1625,-4.1364,-4.2066,-4.2525,-4.2525,-4.313,-4.3497,-4.3497,-4.3497,-4.3497,-4.3497,-4.3497,-4.3497,-4.3497,-4.3497,-4.3497,-4.3497,-4.3497,-4.3497,-4.3497,-4.3497,-4.3497,-4.3497,-4.3497,-4.3497,-4.3497,-4.3497,-4.3589,-4.3736,-4.3901,-4.3956,-4.3814,-4.2633,-4.2214,-4.2062,-4.0868,-4.0527,-4.051,-4.051,-4.0916,-4.1407,-4.1407,-4.183,-4.2072,-4.09,-4.034,-4.0002,-3.9291,-3.9259,-3.9424,-3.9424,-3.9424,-3.9424,-3.9424,-3.9424,-3.9424,-3.9424,-3.9424,-3.9424,-3.9424,-3.9424,-3.9424,-3.9424,-3.9424,-3.9424,-3.9424,-3.9424,-3.8694,-3.6696,-3.6355,-3.5413,-3.3556,-3.324,-3.3081,-3.3081,-3.3081,-3.3081,-3.3081,-3.3081,-3.2513,-3.1211,-2.9315,-2.7589,-2.611,-2.611,-2.5917,-2.5732,-2.8038,-2.9131,-2.4762,-2.5191,-2.6072,-2.5722,-2.5952,0.0,0.0,-2.5644,-2.5993,-2.7164,-2.7401,-2.7873,-2.9448,-2.9756,-2.989,-3.0333,-3.2031,-3.3734,-3.499,-3.7244,-3.8794,-3.8894,-3.9301,-3.9667,-3.9863,-4.0634,-4.1277,-4.168,-4.2451,-4.2892,-4.2892,-4.3277,-4.3497,-4.3497,-4.3497,-4.3497,-4.3497,-4.3497,-4.3497,-4.3497,-4.3497,-4.3497,-4.3497,-4.3497,-4.3497,-4.3497,-4.3497,-4.3497,-4.3497,-4.3497,-4.3497,-4.3497,-4.3497,-4.3339,-4.3014,-4.2103,-4.1621,-4.1223,-4.0368,-4.007,-4.007,-4.007,-4.0341,-4.0646,-4.0646,-4.0927,-4.0962,-3.9715,-3.9314,-3.9183,-3.9069,-3.8967,-3.899,-3.9334,-3.9424,-3.9424,-3.9424,-3.9424,-3.9553,-3.999,-4.006,-3.992,-3.9481,-3.9737,-3.9935,-3.9481,-3.9424,-3.9424,-3.9424,-3.8943,-3.7979,-3.6369,-3.5734,-3.4802,-3.3227,-3.3081,-3.3081,-3.3081,-3.3081,-3.3081,-3.3081,-3.3081,-3.2239,-3.0316,-2.7945,-2.639,-2.5742,-2.5742,-2.5742,-2.5732,-2.8215,-2.9407,-2.6797,-2.6953,-2.7656,-2.8086,-2.75,-2.6923,0.0,0.0,0.0,-2.6935,-2.683,-2.6841,-2.8121,-2.8371,-2.8371,-2.8371,-3.0371,-3.1616,-3.0696,-3.3372,-3.5525,-3.577,-3.6504,-3.7239,-3.7837,-3.863,-3.9614,-4.0841,-4.1264,-4.1742,-4.2349,-4.2944,-4.3332,-4.3497,-4.3497,-4.3497,-4.3497,-4.3497,-4.3497,-4.3497,-4.3497,-4.3497,-4.3497,-4.3497,-4.3497,-4.3497,-4.3497,-4.3497,-4.3497,-4.3497,-4.3497,-4.3497,-4.3497,-4.325,-4.277,-4.2062,-4.149,-4.0995,-4.0336,-4.007,-4.007,-4.007,-4.007,-4.007,-3.9901,-3.9748,-3.9478,-3.8697,-3.8357,-3.8404,-3.8959,-3.8705,-3.8527,-3.9095,-3.9334,-3.9424,-3.9424,-3.9424,-3.9666,-4.0569,-4.069,-4.05,-3.9809,-4.0239,-4.0432,-3.9553,-3.9424,-3.9424,-3.9424,-3.8472,-3.742,-3.6277,-3.5278,-3.4275,-3.3154,-3.3081,-3.3081,-3.3081,-3.3081,-3.3081,-3.3081,-3.2612,-3.1424,-2.9407,-2.6924,-2.5742,-2.5742,-2.5917,-2.611,-2.611,-2.8402,-2.9498,-2.9414,-2.9687,-2.9922,-2.8535,-2.9707,-3.0048,-2.5653,0.0,-2.7065,-2.4975,0.0,-2.5601,-2.5707,0.0,0.0,-2.5726,-2.7274,-2.8429,-2.828,-2.9718,-3.1199,-3.2383,-3.4168,-3.521,-3.4993,-3.5698,-3.7362,-4.017,-3.9091,-3.9629,-4.2593,-4.2558,-4.2763,-4.3461,-4.3497,-4.3497,-4.3497,-4.3497,-4.3497,-4.3497,-4.3497,-4.3497,-4.3497,-4.3497,-4.3497,-4.3497,-4.3497,-4.3497,-4.3497,-4.3497,-4.3497,-4.3497,-4.3497,-4.3444,-4.3286,-4.2185,-4.1768,-4.1534,-4.0466,-4.007,-4.007,-4.007,-4.007,-3.9969,-3.9262,-3.859,-3.786,-3.7089,-3.6825,-3.6797,-3.6872,-3.7608,-3.8407,-3.8497,-3.8975,-3.9424,-3.9424,-3.9424,-3.9666,-4.0569,-4.069,-4.069,-4.0554,-4.0622,-4.0432,-3.9553,-3.9424,-3.9424,-3.9424,-3.8472,-3.742,-3.6277,-3.5278,-3.4275,-3.3154,-3.3081,-3.3081,-3.3081,-3.3081,-3.3081,-3.3081,-3.0956,-2.9681,-2.9407,-2.6924,-2.5742,-2.5742,-2.6849,-2.74,-2.74,-2.8773,-2.9954,-2.9726,-3.0059,-3.0463,-2.9765,-2.9991,-2.97,-2.7016,-2.6477,-2.6487,-2.6341,0.0,0.0,0.0,0.0,0.0,0.0,-2.6351,-2.6813,-2.5842,-2.7037,-2.8739,-3.0627,-3.1446,-3.2185,-3.3028,-3.3834,-3.5049,-3.6817,-3.6726,-3.7567,-3.9779,-4.1119,-4.2147,-4.2763,-4.3259,-4.3497,-4.3497,-4.3497,-4.3497,-4.3497,-4.3497,-4.3497,-4.3497,-4.3497,-4.3497,-4.3497,-4.3497,-4.3497,-4.3497,-4.3497,-4.3497,-4.3497,-4.3497,-4.3286,-4.2976,-4.2519,-4.1895,-4.1223,-4.075,-4.0368,-4.007,-4.007,-4.007,-3.9952,-3.9139,-3.869,-3.8302,-3.7499,-3.6955,-3.6621,-3.7002,-3.7237,-3.7464,-3.8212,-3.8601,-3.8931,-3.9334,-3.9424,-3.9809,-4.1213,-4.108,-4.0878,-4.1346,-4.1013,-4.0432,-3.9553,-3.9424,-3.9177,-3.8546,-3.7572,-3.6462,-3.544,-3.4415,-3.3556,-3.3154,-3.3081,-3.3081,-3.3081,-3.3081,-3.3081,-3.3081,-3.1412,-2.9998,-2.9083,-2.7536,-2.6345,-2.5352,-2.6907,-2.7817,-2.8174,-2.9431,-3.0232,-3.0992,-3.1211,-3.1446,-3.0751,-3.009,-2.9187,-2.7624,-2.6814,-2.6629,-2.739,-2.7101,0.0,0.0,0.0,-2.5928,-2.5687,0.0,-2.6082,-2.462,-2.5293,-2.6529,-2.8185,-2.8829,-2.9668,-3.1035,-3.1561,-3.2411,-3.3846,-3.4051,-3.5171,-3.7598,-3.9578,-4.1051,-4.2046,-4.2987,-4.3504,-4.3646,-4.3646,-4.3646,-4.3646,-4.3548,-4.3497,-4.3497,-4.3497,-4.3497,-4.3497,-4.3497,-4.3497,-4.3497,-4.3497,-4.3497,-4.3497,-4.3497,-4.325,-4.2902,-4.2559,-4.1895,-4.1087,-4.078,-4.0417,-4.007,-4.007,-4.007,-3.9952,-3.9139,-3.8908,-3.8745,-3.8035,-3.7203,-3.6723,-3.7219,-3.6923,-3.6716,-3.7644,-3.8003,-3.8302,-3.899,-3.9324,-3.9902,-4.1365,-4.1147,-4.0878,-4.1528,-4.1147,-4.0432,-3.9553,-3.9424,-3.9017,-3.7919,-3.6852,-3.5814,-3.4828,-3.3713,-3.3081,-3.3081,-3.3081,-3.3081,-3.3081,-3.3081,-3.3006,-3.2842,-3.1646,-3.032,-2.9018,-2.8112,-2.7022,-2.5787,-2.7391,-2.8374,-2.8919,-2.9933,-3.0539,-3.4439,-3.4301,-3.3582,-3.1115,-3.0429,-2.9487,-2.616,-2.7253,-2.8549,-2.6976,-2.8563,-2.9756,-2.8179,-2.7852,-2.7544,-2.6697,-2.6582,0.0,0.0,-2.4639,-2.4206,-2.4274,-2.6456,-2.8183,-2.8755,-2.8358,-2.9315,-3.2343,-3.1023,-3.2245,-3.7243,-3.808,-3.9352,-4.1471,-4.2677,-4.3538,-4.3967,-4.3967,-4.3967,-4.3986,-4.3646,-4.3497,-4.3497,-4.3497,-4.3497,-4.3497,-4.3497,-4.3497,-4.3497,-4.3497,-4.3497,-4.3497,-4.3497,-4.3479,-4.3356,-4.2226,-4.1793,-4.1621,-4.0514,-4.0121,-4.007,-4.007,-4.007,-3.9952,-3.9139,-3.8908,-3.8745,-3.8035,-3.7203,-3.6615,-3.6631,-3.6572,-3.6492,-3.6537,-3.7,-3.7629,-3.8287,-3.9055,-3.99,-4.0619,-4.0758,-4.069,-4.0758,-4.0758,-4.0432,-3.9553,-3.9424,-3.9017,-3.7919,-3.6852,-3.5814,-3.4828,-3.3713,-3.3081,-3.3081,-3.3081,-3.3081,-3.3081,-3.3081,-3.283,-3.2265,-3.1089,-3.0138,-2.9616,-2.8298,-2.7689,-2.7579,-2.8912,-2.9532,-2.9616,-3.0114,-3.0786,-3.5328,-3.5611,-3.5416,-3.344,-3.2112,-3.052,-2.767,-2.8099,-2.861,-2.6948,-2.864,-2.989,-2.8217,-2.789,-2.7601,-2.6736,-2.6601,-2.5909,0.0,-2.2908,-2.2581,-2.3167,-2.4986,-2.6243,-2.6427,-2.6809,-2.7715,-2.9327,-2.9398,-3.1016,-3.4786,-3.6768,-3.8496,-4.0134,-4.2215,-4.3257,-4.3223,-4.3725,-4.3881,-4.3679,-4.3529,-4.3497,-4.3497,-4.3497,-4.3497,-4.3497,-4.3497,-4.3497,-4.3497,-4.3497,-4.3497,-4.3497,-4.3497,-4.3497,-4.341,-4.2675,-4.2162,-4.1639,-4.0514,-4.007,-4.007,-4.007,-4.007,-4.007,-3.9782,-3.9714,-3.961,-3.9385,-3.8745,-3.7987,-3.7499,-3.7408,-3.7358,-3.7244,-3.776,-3.8482,-3.9169,-3.9581,-3.9835,-4.0119,-4.0094,-3.9957,-4.0024,-3.9948,-3.9737,-3.9409,-3.9424,-3.9017,-3.7919,-3.6852,-3.5814,-3.4828,-3.3713,-3.3081,-3.3081,-3.3081,-3.3246,-3.3493,-3.3467,-3.3522,-3.3632,-3.2536,-3.1367,-3.0146,-2.9355,-2.8448,-2.735,-2.8885,-2.9403,-2.9059,-3.0114,-3.0629,-3.6656,-3.6935,-3.6839,-3.511,-3.3885,-3.2232,-2.9052,-2.9437,-2.989,-2.789,-2.9294,-3.0621,-2.9813,-2.8929,-2.814,-2.7582,-2.6986,-2.5717,0.0,-2.2312,-2.2062,-2.2312,-2.3832,-2.4986,-2.5264,-2.5274,-2.5851,-2.7332,-2.7621,-2.9159,-3.2363,-3.5229,-3.7394,-3.8766,-4.168,-4.3223,-4.3171,-4.3868,-4.4106,-4.3868,-4.3631,-4.3497,-4.3497,-4.3497,-4.3497,-4.3497,-4.3497,-4.3497,-4.3497,-4.3497,-4.3497,-4.3497,-4.3497,-4.3375,-4.3142,-4.2598,-4.1871,-4.1076,-4.0336,-4.007,-4.007,-4.007,-4.007,-4.007,-4.007,-4.007,-4.007,-4.007,-3.9542,-3.8799,-3.8302,-3.7978,-3.7801,-3.771,-3.8062,-3.8626,-3.9329,-3.9714,-3.9838,-3.9485,-3.9581,-3.9508,-3.8995,-3.8795,-3.8871,-3.9349,-3.9424,-3.9017,-3.7919,-3.6852,-3.5814,-3.4828,-3.3713,-3.324,-3.3641,-3.3449,-3.3571,-3.422,-3.4072,-3.3917,-3.3991,-3.3347,-3.2275,-3.0753,-3.0348,-2.9488,-2.8034,-2.9128,-2.9455,-2.9209,-2.9978,-3.0069]}]]